Date StartTime U_cm/s V_cm/s W_cm/s Ustd_cm/s Vstd_cm/s Wstd_cm/s Uvar_(cm/s)^2 Vvar_(cm/s)^2 Wvar_(cm/s)^2 KE_(m/s)^2 TurbulentKE_(m/s)^2 HorizWindSpeed_cm/s FrictionSpeec_cm/s DragCoef SpeedOfSound_m/s SonicTemperature_C Pressure_mb 
08/05/2014  00:00:00       13.975      -80.949       -0.263       27.247       25.760       29.826      742.413      663.575      889.597        0.452        0.115       82.146       21.072        0.066      341.500       16.256      864.571
08/05/2014  00:01:00      -14.559      -69.550       -0.983       25.368       35.798       18.469      643.546     1281.504      341.089        0.366        0.113       71.058       13.632        0.037      341.440       16.154      864.572
08/05/2014  00:02:00      -25.173       -9.018        0.987       15.732       16.644        9.454      247.503      277.025       89.369        0.066        0.031       26.740        5.247        0.038      341.355       16.011      864.586
08/05/2014  00:03:00      -43.403      -19.529       -8.642       17.645       13.366        9.267      311.361      178.657       85.880        0.146        0.029       47.594       10.145        0.045      341.364       16.026      864.604
08/05/2014  00:04:00      -51.374      -14.926       -3.325       17.166       14.447        9.929      294.683      208.702       98.579        0.174        0.030       53.499        7.854        0.022      341.346       15.994      864.631
08/05/2014  00:05:00      -30.939       -2.695        1.585       13.335        7.623        6.906      177.822       58.103       47.700        0.063        0.014       31.057        7.039        0.051      341.341       15.988      864.640
08/05/2014  00:06:00      -19.529       -4.896        1.802       16.134       10.801        7.081      260.291      116.657       50.144        0.042        0.021       20.133        8.732        0.188      341.371       16.037      864.633
08/05/2014  00:07:00      -27.150      -12.820        0.948       10.693       14.451       11.242      114.341      208.844      126.382        0.068        0.022       30.025        7.850        0.068      341.398       16.084      864.632
08/05/2014  00:08:00      -35.776      -11.570        3.760       11.287       13.944        7.775      127.388      194.423       60.443        0.091        0.019       37.601        5.633        0.022      341.360       16.018      864.641
08/05/2014  00:09:00      -32.069       -7.776        2.871        8.056       12.280        7.826       64.902      150.802       61.248        0.069        0.014       32.998        6.732        0.042      341.307       15.928      864.647
08/05/2014  00:10:00        5.784        1.975       12.511       10.565        9.179        9.847      111.628       84.248       96.965        0.024        0.015        6.112        6.970        1.301      341.288       15.896      864.659
08/05/2014  00:11:00       20.784       17.229       -1.229        6.085        4.978        5.199       37.025       24.782       27.026        0.041        0.004       26.997        2.715        0.010      341.230       15.797      864.660
08/05/2014  00:12:00       31.660       17.847        9.658       13.660       15.478       12.332      186.607      239.564      152.067        0.100        0.029       36.344       11.174        0.095      341.240       15.816      864.655
08/05/2014  00:13:00       39.973       35.958        6.622       15.032       12.824       17.914      225.951      164.448      320.909        0.182        0.036       53.766        8.706        0.026      341.189       15.730      864.662
08/05/2014  00:14:00       26.570       50.062        1.115       19.530       28.060       16.012      381.415      787.386      256.392        0.232        0.071       56.676       15.688        0.077      341.157       15.673      864.677
08/05/2014  00:15:00       28.893       65.349       -6.105       18.092       25.866       16.327      327.336      669.050      266.578        0.320        0.063       71.452       14.671        0.042      341.126       15.623      864.698
08/05/2014  00:16:00       27.418       60.682       -0.630       25.259       27.928       22.336      638.042      779.994      498.875        0.318        0.096       66.588       19.284        0.084      341.124       15.622      864.712
08/05/2014  00:17:00       42.702       71.066       -4.514       24.364       31.783       21.814      593.593     1010.150      475.852        0.449        0.104       82.909       20.030        0.058      341.115       15.604      864.733
08/05/2014  00:18:00       37.907       64.567       -2.998       22.317       25.902       20.511      498.031      670.896      420.708        0.360        0.079       74.872       15.605        0.043      341.101       15.581      864.749
08/05/2014  00:19:00       31.110       75.545       -0.614       18.923       28.307       18.466      358.081      801.285      341.001        0.409        0.075       81.700       16.031        0.039      341.083       15.548      864.773
08/05/2014  00:20:00       36.022       77.760        2.613       29.937       40.389       29.783      896.224     1631.257      887.055        0.538        0.171       85.698       26.541        0.096      341.038       15.474      864.803
08/05/2014  00:21:00       28.780       65.799      -12.352       35.419       33.604       27.748     1254.489     1129.200      769.965        0.423        0.158       71.817       23.800        0.110      341.040       15.478      864.832
08/05/2014  00:22:00       50.307       58.994       -0.200       26.915       27.587       23.059      724.400      761.063      531.739        0.401        0.101       77.531       18.104        0.055      341.038       15.477      864.858
08/05/2014  00:23:00       54.581       56.080        0.836       32.627       30.257       27.642     1064.546      915.467      764.095        0.443        0.137       78.256       22.496        0.083      341.029       15.458      864.868
08/05/2014  00:24:00       78.515       51.509        4.131       37.867       29.923       20.924     1433.931      895.357      437.817        0.580        0.138       93.903       17.680        0.035      341.018       15.439      864.875
08/05/2014  00:25:00       89.655       50.830        6.678       38.791       35.152       24.887     1504.763     1235.645      619.368        0.701        0.168      103.061       13.966        0.018      341.030       15.462      864.882
08/05/2014  00:26:00       79.441       52.380       14.546       33.558       24.248       24.569     1126.106      587.954      603.643        0.579        0.116       95.156       14.526        0.023      340.994       15.399      864.889
08/05/2014  00:27:00       97.396       82.452        9.217       43.749       33.252       25.300     1914.016     1105.698      640.068        1.001        0.183      127.610       17.939        0.020      340.967       15.353      864.892
08/05/2014  00:28:00       62.874       36.914        1.423       34.373       35.008       28.769     1181.522     1225.588      827.640        0.428        0.162       72.910       19.922        0.075      341.002       15.413      864.892
08/05/2014  00:29:00       99.503       77.452        4.061       44.674       28.625       25.904     1995.760      819.395      671.006        0.970        0.174      126.094       17.397        0.019      340.944       15.315      864.884
08/05/2014  00:30:00       90.271       50.148       11.615       27.220       22.207       26.247      740.943      493.168      688.918        0.636        0.096      103.265        9.921        0.009      340.931       15.294      864.872
08/05/2014  00:31:00       53.856       48.344        8.219       35.867       42.330       26.518     1286.444     1791.787      703.213        0.454        0.189       72.372       18.883        0.068      340.959       15.340      864.864
08/05/2014  00:32:00       65.499       44.498        7.408       26.010       26.172       20.335      676.540      684.985      413.521        0.405        0.089       79.184       13.880        0.031      340.909       15.257      864.855
08/05/2014  00:33:00       74.140       33.307       10.177       36.153       27.957       15.934     1307.049      781.605      253.885        0.453        0.117       81.278        7.594        0.009      340.915       15.266      864.834
08/05/2014  00:34:00       35.894       22.353       -3.341       32.217       20.919       14.244     1037.967      437.598      202.878        0.174        0.084       42.285       16.168        0.146      340.916       15.266      864.826
08/05/2014  00:35:00       49.363       38.624       -6.740       30.091       25.663       18.449      905.457      658.611      340.370        0.294        0.095       62.678       14.128        0.051      340.882       15.211      864.838
08/05/2014  00:36:00       33.596       41.783        1.798       25.197       26.157       16.241      634.900      684.199      263.766        0.223        0.079       53.615       12.472        0.054      340.882       15.208      864.842
08/05/2014  00:37:00       32.712       44.922       -3.104       18.436       23.365       18.005      339.876      545.901      324.176        0.215        0.060       55.570       12.874        0.054      340.879       15.202      864.831
08/05/2014  00:38:00       70.510       40.258        5.292       28.877       21.390       17.447      833.859      457.516      304.395        0.411        0.080       81.193       13.036        0.026      340.882       15.207      864.821
08/05/2014  00:39:00       27.408       34.468        2.243       27.142       25.981       21.385      736.704      675.027      457.308        0.191        0.093       44.037       15.218        0.119      340.874       15.194      864.800
08/05/2014  00:40:00       41.340       37.151        0.099       23.997       21.453       21.113      575.867      460.235      445.744        0.229        0.074       55.580       14.413        0.067      340.864       15.177      864.786
08/05/2014  00:41:00       73.859       23.985        5.082       24.894       18.564       19.031      619.717      344.637      362.184        0.369        0.066       77.656        7.489        0.009      340.903       15.244      864.773
08/05/2014  00:42:00       59.736       35.274       -1.916       18.736       19.854       17.242      351.020      394.167      297.282        0.293        0.052       69.374       13.044        0.035      340.864       15.179      864.775
08/05/2014  00:43:00       33.469       32.477       -0.622       15.246       12.143       13.957      232.444      147.451      194.790        0.137        0.029       46.636        6.386        0.019      340.857       15.163      864.771
08/05/2014  00:44:00       32.601       33.630        1.984       13.941       10.146       10.316      194.346      102.933      106.413        0.130        0.020       46.838        6.649        0.020      340.840       15.138      864.766
08/05/2014  00:45:00       49.267       48.062       14.901       17.423       13.460       22.701      303.568      181.178      515.345        0.298        0.050       68.827        9.891        0.021      340.901       15.241      864.758
08/05/2014  00:46:00       18.521       30.413       54.620       19.299       19.790       13.113      372.462      391.637      171.963        0.259        0.047       35.608       13.112        0.136      340.934       15.297      864.761
08/05/2014  00:47:00        0.043       17.075       47.670       32.232       28.276       21.036     1038.883      799.556      442.518        0.242        0.114       17.075       18.005        1.112      340.986       15.385      864.776
08/05/2014  00:48:00       53.247       43.084       50.018       37.029       36.517       21.246     1371.137     1333.476      451.391        0.517        0.158       68.494       18.973        0.077      340.943       15.312      864.808
08/05/2014  00:49:00       15.644      -36.253        8.148       35.923       44.998       19.773     1290.456     2024.799      390.961        0.267        0.185       39.485       17.564        0.198      341.052       15.497      864.822
08/05/2014  00:50:00       55.533      -97.074       -2.191       34.605       31.813       18.259     1197.538     1012.046      333.395        0.753        0.127      111.836       21.756        0.038      340.961       15.344      864.825
08/05/2014  00:51:00       73.169      -94.671       -6.383       27.435       29.802       18.803      752.673      888.188      353.544        0.818        0.100      119.650       14.756        0.015      340.910       15.258      864.817
08/05/2014  00:52:00       90.428      -95.757      -15.261       27.940       29.493       16.867      780.644      869.812      284.491        0.976        0.097      131.706       11.209        0.007      340.851       15.156      864.810
08/05/2014  00:53:00       37.676      -30.489       23.366       35.435       46.144       27.992     1255.672     2129.234      783.525        0.353        0.208       48.467       32.634        0.453      340.933       15.296      864.815
08/05/2014  00:54:00       19.048      -14.161       16.571       28.141       35.674       30.252      791.924     1272.608      915.160        0.191        0.149       23.735       23.328        0.966      340.982       15.378      864.835
08/05/2014  00:55:00       49.106       27.596       49.832       39.846       47.907       34.315     1587.729     2295.039     1177.488        0.536        0.253       56.329       34.880        0.383      340.968       15.356      864.866
08/05/2014  00:56:00       66.246      -40.589        2.911       49.385       70.624       24.647     2438.911     4987.726      607.479        0.704        0.402       77.692       20.223        0.068      341.012       15.428      864.876
08/05/2014  00:57:00       74.743       53.058       66.114       49.281       30.783       32.245     2428.583      947.604     1039.767        0.859        0.221       91.661       27.586        0.091      340.895       15.233      864.884
08/05/2014  00:58:00       66.441       57.929       55.440       47.801       33.270       35.492     2284.889     1106.910     1259.686        0.775        0.233       88.149       22.585        0.066      340.883       15.212      864.884
08/05/2014  00:59:00       67.752       63.851       53.890       42.711       24.045       25.873     1824.223      578.167      669.426        0.732        0.154       93.098       19.370        0.043      340.860       15.173      864.866
08/05/2014  01:00:00       37.509       48.427       43.534       26.579       20.470       16.018      706.433      419.010      256.585        0.351        0.069       61.254        7.116        0.013      340.851       15.158      864.853
08/05/2014  01:01:00       44.410       39.239       14.673       15.562       13.685       13.123      242.187      187.293      172.207        0.216        0.030       59.261        5.707        0.009      340.761       15.005      864.833
08/05/2014  01:02:00       29.016       34.213       21.411       13.647        9.436        8.804      186.228       89.032       77.512        0.141        0.018       44.861        6.248        0.019      340.739       14.970      864.788
08/05/2014  01:03:00        1.318       15.736        3.329       18.060       12.757       12.274      326.180      162.744      150.654        0.045        0.032       15.791        8.729        0.306      340.743       14.976      864.731
08/05/2014  01:04:00      -77.352       11.011        0.841       36.637       15.262       13.383     1342.254      232.931      179.111        0.393        0.088       78.131        9.040        0.013      340.877       15.202      864.664
08/05/2014  01:05:00     -126.697      -25.241       -9.866       32.383       20.129       15.492     1048.677      405.159      240.004        0.924        0.085      129.187       17.349        0.018      340.858       15.172      864.596
08/05/2014  01:06:00     -151.288      -62.848        0.667       40.918       26.630       20.850     1674.277      709.175      434.721        1.483        0.141      163.822       21.738        0.018      340.827       15.115      864.551
08/05/2014  01:07:00      -96.586      -17.367       -0.328       42.738       44.877       27.091     1826.561     2013.905      733.936        0.710        0.229       98.135       23.981        0.060      340.850       15.155      864.534
08/05/2014  01:08:00      -11.745       14.214       12.202       20.686       11.997       12.179      427.911      143.938      148.320        0.060        0.036       18.439        7.574        0.169      340.934       15.297      864.561
08/05/2014  01:09:00      -24.761        5.721       16.936       27.289       17.579       15.327      744.671      309.026      234.928        0.111        0.064       25.413       13.095        0.266      340.919       15.274      864.608
08/05/2014  01:10:00      -41.745      -39.444       -4.401       15.513        9.802        8.280      240.649       96.086       68.550        0.186        0.020       57.433        6.522        0.013      340.847       15.151      864.644
08/05/2014  01:11:00      -41.842      -34.716       -0.988       10.065       13.402       11.794      101.310      179.626      139.095        0.169        0.021       54.368        7.591        0.019      340.884       15.210      864.652
08/05/2014  01:12:00      -52.153      -56.890       -4.078       17.705       10.730       11.751      313.458      115.138      138.087        0.327        0.028       77.178        9.314        0.015      340.906       15.250      864.631
08/05/2014  01:13:00     -115.446      -60.718       -0.821       27.899       20.877       14.226      778.372      435.853      202.386        0.922        0.071      130.439       12.472        0.009      340.938       15.303      864.609
08/05/2014  01:14:00     -153.714      -60.659       -4.955       29.174       18.693       11.044      851.106      349.417      121.975        1.433        0.066      165.250        9.078        0.003      340.879       15.202      864.604
08/05/2014  01:15:00     -124.579      -50.238        4.042       38.653       50.433       22.327     1494.049     2543.510      498.500        1.130        0.227      134.327       23.886        0.032      340.918       15.270      864.596
08/05/2014  01:16:00      -75.430      -79.364        5.017       43.829       31.797       28.496     1920.947     1011.076      812.032        0.788        0.187      109.492       27.046        0.061      340.947       15.321      864.580
08/05/2014  01:17:00     -104.998      -67.029      -10.493       31.190       30.420       17.708      972.812      925.354      313.559        0.892        0.111      124.569       14.258        0.013      340.954       15.329      864.576
08/05/2014  01:18:00      -60.962      -47.985       -3.403       28.984       23.388       22.010      840.048      546.979      484.432        0.395        0.094       77.582       14.815        0.036      340.959       15.339      864.599
08/05/2014  01:19:00      -55.893      -26.135       -1.979       30.469       26.781       15.551      928.383      717.216      241.832        0.285        0.094       61.702       13.559        0.048      340.941       15.307      864.636
08/05/2014  01:20:00      -37.438       24.449      -10.835       41.373       39.053       18.303     1711.733     1525.125      334.997        0.284        0.179       44.714       26.757        0.358      340.947       15.318      864.659
08/05/2014  01:21:00      -44.792       30.738       -9.391       17.728       25.362       16.437      314.296      643.213      270.176        0.213        0.061       54.324       18.126        0.111      340.932       15.295      864.659
08/05/2014  01:22:00      -34.441       27.261      -10.846        7.515       10.277        6.522       56.470      105.624       42.533        0.113        0.010       43.924        3.733        0.007      340.891       15.225      864.652
08/05/2014  01:23:00      -30.466       10.208       -7.407        8.759       10.474        6.418       76.727      109.712       41.186        0.066        0.011       32.131        5.375        0.028      340.911       15.259      864.646
08/05/2014  01:24:00      -49.761      -13.606        0.793       12.164       16.728       10.710      147.963      279.822      114.701        0.160        0.027       51.588        4.809        0.009      340.962       15.345      864.629
08/05/2014  01:25:00      -48.820      -42.476       -2.814       25.499       13.204       13.405      650.178      174.341      179.683        0.260        0.050       64.711       13.016        0.040      341.008       15.422      864.603
08/05/2014  01:26:00      -69.973      -45.237       -0.473       36.037       27.379       17.904     1298.669      749.598      320.543        0.466        0.118       83.323       21.363        0.066      340.990       15.392      864.570
08/05/2014  01:27:00      -87.003      -48.190       -4.625       40.226       17.159       19.140     1618.107      294.433      366.327        0.610        0.114       99.458       20.601        0.043      340.958       15.338      864.537
08/05/2014  01:28:00      -64.856      -52.243       -7.629       49.230       24.076       19.281     2423.554      579.641      371.772        0.518        0.169       83.280       17.809        0.046      340.955       15.331      864.509
08/05/2014  01:29:00        3.584      -19.998       25.425       33.155       18.807       15.254     1099.241      353.692      232.682        0.137        0.084       20.316       14.217        0.490      341.035       15.469      864.477
08/05/2014  01:30:00      -34.929      -45.034       -1.797       32.856       19.221       13.634     1079.488      369.446      185.894        0.244        0.082       56.992       13.301        0.054      341.020       15.444      864.455
08/05/2014  01:31:00      -79.975      -55.721       -8.347       31.683       32.459       19.140     1003.834     1053.587      366.342        0.600        0.121       97.472       13.393        0.019      341.061       15.513      864.463
08/05/2014  01:32:00      -60.076      -38.357       -7.605       12.932       14.062        9.962      167.242      197.746       99.240        0.280        0.023       71.276        6.209        0.008      341.028       15.452      864.478
08/05/2014  01:33:00      -24.140      -29.806       16.717       16.534       29.095       12.424      273.359      846.511      154.351        0.151        0.064       38.356       12.207        0.101      341.142       15.649      864.513
08/05/2014  01:34:00        5.294       10.531        2.045       11.570       24.153       14.724      133.863      583.389      216.798        0.054        0.047       11.787       16.942        2.066      341.106       15.590      864.555
08/05/2014  01:35:00       56.668       27.597        2.124       28.550       21.664       14.078      815.107      469.349      198.182        0.273        0.074       63.031        9.113        0.021      340.990       15.393      864.595
08/05/2014  01:36:00       50.940       53.686       35.979       29.309       29.900       26.955      859.020      894.039      726.584        0.463        0.124       74.007        7.578        0.010      340.973       15.363      864.618
08/05/2014  01:37:00       45.658       41.024       31.400       45.692       36.812       33.020     2087.774     1355.143     1090.318        0.464        0.227       61.381       17.304        0.079      340.951       15.326      864.626
08/05/2014  01:38:00       81.578       56.166       27.924       38.220       22.558       17.146     1460.733      508.860      293.978        0.643        0.113       99.043       16.076        0.026      340.813       15.093      864.621
08/05/2014  01:39:00       52.719       39.768        5.823       28.841       27.151       21.578      831.818      737.162      465.603        0.321        0.102       66.036       19.733        0.089      340.799       15.069      864.604
08/05/2014  01:40:00       54.130       20.785       14.760       29.822       17.178       20.620      889.353      295.072      425.175        0.259        0.080       57.983       13.943        0.058      340.815       15.095      864.589
08/05/2014  01:41:00       44.230       49.866        3.040       28.606       17.340       19.543      818.321      300.684      381.947        0.298        0.075       66.655       16.249        0.059      340.758       15.000      864.571
08/05/2014  01:42:00       10.764       53.530       -5.360       22.070       16.599       14.270      487.098      275.513      203.635        0.199        0.048       54.601        9.691        0.031      340.772       15.025      864.551
08/05/2014  01:43:00       25.270       80.994      -11.861       19.073       23.411       15.683      363.776      548.076      245.944        0.425        0.058       84.844       16.035        0.036      340.752       14.992      864.544
08/05/2014  01:44:00       42.645       43.498        4.600       36.328       24.610       18.880     1319.709      605.631      356.454        0.301        0.114       60.915       14.578        0.057      340.763       15.009      864.544
08/05/2014  01:45:00       64.698       61.088       -6.883       15.327       12.274       15.619      234.927      150.652      243.944        0.430        0.031       88.981        9.607        0.012      340.760       15.004      864.526
08/05/2014  01:46:00       52.527       65.896        6.555       20.700       13.766       15.990      428.497      189.494      255.689        0.401        0.044       84.269        7.125        0.007      340.796       15.066      864.492
08/05/2014  01:47:00       55.641       42.206       21.105       14.448       15.099       14.595      208.749      227.974      213.026        0.299        0.032       69.837        4.612        0.004      340.735       14.959      864.461
08/05/2014  01:48:00       64.219       42.068       26.488       13.956        8.470       16.282      194.779       71.734      265.110        0.356        0.027       76.771        5.899        0.006      340.755       14.993      864.437
08/05/2014  01:49:00       60.783       42.533       28.468       25.273       16.484       18.511      638.725      271.736      342.669        0.378        0.063       74.187       15.857        0.046      340.777       15.032      864.431
08/05/2014  01:50:00        9.138        6.147       26.033       23.981       25.529       17.357      575.076      651.748      301.261        0.116        0.076       11.013       12.455        1.279      340.880       15.207      864.436
08/05/2014  01:51:00       37.509       26.755       30.462       32.893       30.236       27.657     1081.941      914.217      764.932        0.291        0.138       46.073       25.011        0.295      340.868       15.188      864.437
08/05/2014  01:52:00       54.358       53.493       38.928       26.923       21.881       22.885      724.861      478.792      523.742        0.453        0.086       76.265       19.001        0.062      340.821       15.106      864.424
08/05/2014  01:53:00       68.557       45.365       37.390       26.437       20.816       19.002      698.930      433.294      361.066        0.482        0.075       82.207        9.898        0.014      340.827       15.116      864.422
08/05/2014  01:54:00       83.569       34.002       16.780       36.769       42.698       22.662     1351.945     1823.110      513.549        0.605        0.184       90.221       21.485        0.057      340.859       15.171      864.424
08/05/2014  01:55:00      114.251       58.231        3.368       34.842       31.385       25.790     1213.986      985.043      665.149        0.966        0.143      128.235       19.559        0.023      340.761       15.004      864.431
08/05/2014  01:56:00       98.366       39.834       15.921       45.464       32.515       27.886     2066.974     1057.241      777.614        0.771        0.195      106.125       17.858        0.028      340.782       15.039      864.446
08/05/2014  01:57:00       94.591       52.318       12.610       32.167       24.401       22.191     1034.698      595.400      492.457        0.698        0.106      108.095       14.449        0.018      340.761       15.003      864.444
08/05/2014  01:58:00       85.858       53.431       20.477       17.743       18.097       22.094      314.831      327.502      488.161        0.589        0.057      101.126       12.993        0.017      340.732       14.954      864.437
08/05/2014  01:59:00       79.906       44.479        1.991       15.258       22.436       21.556      232.794      503.368      464.664        0.478        0.060       91.451       13.409        0.021      340.738       14.966      864.438
08/05/2014  02:00:00       48.966       44.912       -3.558       18.360       28.168       15.949      337.083      793.437      254.366        0.291        0.069       66.443       10.384        0.024      340.739       14.968      864.432
08/05/2014  02:01:00       25.857       61.973       -7.510       21.523       16.453       12.868      463.223      270.698      165.574        0.273        0.045       67.151        9.627        0.021      340.744       14.978      864.419
08/05/2014  02:02:00       15.804       52.211       -8.905       14.204       16.455       14.552      201.758      270.774      211.756        0.187        0.034       54.551       12.782        0.055      340.786       15.045      864.405
08/05/2014  02:03:00       13.210       56.655       -6.913       22.895       15.624       15.211      524.171      244.109      231.366        0.222        0.050       58.175       10.237        0.031      340.789       15.053      864.393
08/05/2014  02:04:00      -73.120      -12.979       -2.632       46.732       37.579       17.720     2183.876     1412.167      313.999        0.472        0.196       74.262       15.772        0.045      340.952       15.332      864.383
08/05/2014  02:05:00      -27.266      -41.619        3.454       40.436       25.330       14.851     1635.078      641.592      220.545        0.249        0.125       49.755       11.638        0.055      341.021       15.444      864.362
08/05/2014  02:06:00      -48.122      -39.254       -6.581       16.584       11.159       13.040      275.041      124.527      170.050        0.223        0.028       62.102        9.154        0.022      340.912       15.263      864.352
08/05/2014  02:07:00      -41.697      -18.771       -7.949       20.465       26.763       16.818      418.801      716.269      282.861        0.179        0.071       45.727       14.545        0.101      340.889       15.220      864.324
08/05/2014  02:08:00      -80.125      -22.395        1.109       54.991       25.819       18.845     3023.961      666.602      355.150        0.548        0.202       83.196       22.330        0.072      340.955       15.334      864.300
08/05/2014  02:09:00      -75.929      -49.591        5.823       39.658       26.006       19.379     1572.796      676.312      375.544        0.544        0.131       90.689       17.031        0.035      340.921       15.277      864.275
08/05/2014  02:10:00      -70.390      -40.973       -1.657       20.833       19.557       17.696      434.023      382.474      313.137        0.388        0.056       81.446        7.457        0.008      340.903       15.245      864.262
08/05/2014  02:11:00      -12.994      -58.446       -6.011       26.942       23.474       14.026      725.878      551.018      196.739        0.255        0.074       59.873       11.157        0.035      340.939       15.308      864.249
08/05/2014  02:12:00       11.915      -50.151       14.630       23.349       34.170       20.184      545.173     1167.590      407.406        0.250        0.106       51.547       19.988        0.150      340.994       15.398      864.233
08/05/2014  02:13:00      -76.125      -67.777        1.633       40.289       34.062       22.323     1623.164     1160.253      498.332        0.684        0.164      101.925       24.540        0.058      340.923       15.280      864.231
08/05/2014  02:14:00      -40.839      -63.303       11.436       36.245       33.774       21.661     1313.669     1140.666      469.215        0.436        0.146       75.334       20.321        0.073      340.952       15.327      864.227
08/05/2014  02:15:00      -77.520      -57.732      -13.047       28.706       28.843       18.658      824.017      831.919      348.135        0.576        0.100       96.656       16.928        0.031      340.938       15.305      864.236
08/05/2014  02:16:00      -41.332       -9.434       -9.238       16.301       12.824       10.588      265.728      164.462      112.116        0.121        0.027       42.395       11.610        0.075      340.923       15.279      864.246
08/05/2014  02:17:00      -36.411        9.763        6.449       16.458       25.688       10.202      270.853      659.856      104.087        0.125        0.052       37.698        5.179        0.019      340.952       15.327      864.254
08/05/2014  02:18:00      -12.941        9.462       10.580       12.403       12.220       11.354      153.829      149.326      128.920        0.040        0.022       16.032        8.823        0.303      340.974       15.363      864.257
08/05/2014  02:19:00      -11.985      -46.131       -7.501       19.482       30.881        8.896      379.553      953.650       79.147        0.187        0.071       47.662        8.299        0.030      341.005       15.418      864.256
08/05/2014  02:20:00        2.120      -80.026        2.371       35.470       34.869       17.469     1258.096     1215.840      305.155        0.460        0.139       80.054        9.713        0.015      340.960       15.340      864.246
08/05/2014  02:21:00       -7.878      -70.238       -5.680       14.797       32.526       11.956      218.939     1057.960      142.943        0.322        0.071       70.679       10.785        0.023      340.929       15.287      864.234
08/05/2014  02:22:00        3.564       -5.163       12.185       11.952       10.230       10.561      142.856      104.661      111.538        0.027        0.018        6.274        9.645        2.364      340.991       15.394      864.232
08/05/2014  02:23:00       -3.240       17.541       11.712       20.191       34.568       14.508      407.659     1194.928      210.490        0.113        0.091       17.838       10.463        0.344      340.968       15.353      864.256
08/05/2014  02:24:00        0.073       19.484       17.747       14.359       18.046       11.682      206.180      325.641      136.467        0.068        0.033       19.485        3.449        0.031      341.096       15.572      864.263
08/05/2014  02:25:00       -0.539        2.352       31.885       16.235       21.693       14.884      263.577      470.592      221.529        0.099        0.048        2.413       11.701       23.508      341.077       15.540      864.266
08/05/2014  02:26:00        7.615       41.215       -3.021       21.106       19.731       11.380      445.472      389.332      129.516        0.136        0.048       41.912       12.351        0.087      340.955       15.333      864.257
08/05/2014  02:27:00      -16.087       24.483       -4.039       17.489       16.610       10.489      305.882      275.882      110.027        0.078        0.035       29.295        8.173        0.078      340.886       15.215      864.237
08/05/2014  02:28:00      -30.393       23.397      -13.380       21.160       15.355        6.719      447.735      235.768       45.143        0.119        0.036       38.356        5.028        0.017      340.904       15.247      864.222
08/05/2014  02:29:00      -21.372        1.206      -11.818       17.396       16.132        9.046      302.623      260.250       81.833        0.062        0.032       21.406        3.111        0.021      340.938       15.304      864.218
08/05/2014  02:30:00      -41.020      -28.014       -5.660       25.019       23.353       12.704      625.951      545.363      161.388        0.192        0.067       49.673        8.815        0.031      340.925       15.282      864.214
08/05/2014  02:31:00      -40.112      -24.195       -2.493       17.914       16.598       10.495      320.914      275.506      110.154        0.145        0.035       46.844        9.351        0.040      340.929       15.289      864.206
08/05/2014  02:32:00      -34.696      -36.196       -1.008       18.896       11.900       11.719      357.066      141.621      137.326        0.158        0.032       50.140        4.265        0.007      340.981       15.377      864.192
08/05/2014  02:33:00      -36.974      -22.005       -3.063       11.100       13.663        9.821      123.216      186.680       96.455        0.113        0.020       43.027        7.060        0.027      340.934       15.300      864.178
08/05/2014  02:34:00       -5.689       -1.589        9.088       25.459       11.933       15.851      648.158      142.387      251.269        0.058        0.052        5.907        4.153        0.494      340.982       15.380      864.174
08/05/2014  02:35:00      -41.181       19.046        0.390       19.223       17.129        8.998      369.507      293.386       80.973        0.140        0.037       45.372        9.222        0.041      340.961       15.344      864.175
08/05/2014  02:36:00      -68.508       27.335       -4.551       13.176       10.555        9.399      173.603      111.417       88.343        0.292        0.019       73.760        7.457        0.010      340.941       15.310      864.185
08/05/2014  02:37:00      -70.061       32.562      -10.236       12.300       11.777       10.865      151.299      138.700      118.058        0.324        0.020       77.258        7.328        0.009      340.936       15.304      864.178
08/05/2014  02:38:00      -53.536       23.477       -2.476       16.024       15.307        8.477      256.763      234.316       71.862        0.199        0.028       58.458        6.620        0.013      340.933       15.297      864.179
08/05/2014  02:39:00       -3.139       -0.723        1.850       19.717        8.264       12.230      388.776       68.297      149.574        0.031        0.030        3.221       11.816       13.457      340.989       15.389      864.182
08/05/2014  02:40:00       10.150        6.667        7.915       10.821       10.112        9.510      117.103      102.255       90.435        0.026        0.015       12.144        6.329        0.272      340.962       15.344      864.176
08/05/2014  02:41:00      -35.704      -20.540        2.229       24.462       26.881       16.915      598.406      722.570      286.130        0.165        0.080       41.191       14.128        0.118      340.963       15.346      864.182
08/05/2014  02:42:00      -34.678       -1.279        2.837       23.699       11.888       13.250      561.637      141.319      175.566        0.105        0.044       34.701       15.181        0.191      340.918       15.271      864.205
08/05/2014  02:43:00       -2.369        4.571       12.799        6.194       12.683        8.027       38.371      160.864       64.434        0.023        0.013        5.149        1.486        0.083      340.989       15.390      864.216
08/05/2014  02:44:00       -5.012       26.054        1.954       14.575       15.824       13.103      212.420      250.410      171.694        0.067        0.032       26.531        5.347        0.041      340.934       15.295      864.227
08/05/2014  02:45:00       30.559       35.435       34.974       24.022       18.132       29.562      577.066      328.753      873.934        0.260        0.089       46.792       14.330        0.094      340.965       15.349      864.242
08/05/2014  02:46:00       42.960       54.148       53.297       31.533       23.116       23.028      994.323      534.336      530.269        0.484        0.103       69.120       17.712        0.066      340.868       15.186      864.252
08/05/2014  02:47:00       69.873       59.248       31.676       27.227       21.121       23.693      741.305      446.086      561.379        0.557        0.087       91.612       13.134        0.021      340.923       15.279      864.259
08/05/2014  02:48:00       85.859       57.772       32.683       22.373       23.040       20.730      500.549      530.828      429.739        0.662        0.073      103.486       14.239        0.019      340.854       15.163      864.264
08/05/2014  02:49:00       73.268       76.302       49.311       32.527       26.735       32.675     1058.005      714.756     1067.663        0.823        0.142      105.784       20.911        0.039      340.908       15.252      864.280
08/05/2014  02:50:00       84.881       71.183       46.658       34.199       23.340       31.491     1169.596      544.762      991.706        0.858        0.135      110.778       22.295        0.041      340.953       15.330      864.302
08/05/2014  02:51:00       75.347       77.597       48.659       40.633       33.365       35.571     1651.023     1113.221     1265.298        0.905        0.201      108.160       25.756        0.057      340.987       15.387      864.310
08/05/2014  02:52:00       75.356       64.159       50.480       31.525       32.204       33.858      993.822     1037.128     1146.342        0.776        0.159       98.969       25.896        0.068      340.913       15.261      864.317
08/05/2014  02:53:00       70.863       54.061       44.951       34.492       29.171       32.517     1189.714      850.956     1057.324        0.653        0.155       89.130       25.569        0.082      340.952       15.328      864.330
08/05/2014  02:54:00       85.330       66.349       37.116       25.479       22.972       27.883      649.193      527.696      777.459        0.751        0.098      108.090       10.493        0.009      340.937       15.303      864.341
08/05/2014  02:55:00      102.946       53.842       23.918       45.563       41.221       27.199     2076.026     1699.145      739.802        0.929        0.226      116.176       21.060        0.033      340.853       15.160      864.355
08/05/2014  02:56:00       85.109       36.857       15.160       45.848       43.022       30.073     2102.005     1850.867      904.410        0.684        0.243       92.747       22.917        0.061      340.834       15.127      864.359
08/05/2014  02:57:00      101.203       54.657       14.006       42.908       33.115       22.915     1841.133     1096.610      525.106        0.844        0.173      115.019       22.383        0.038      340.812       15.092      864.359
08/05/2014  02:58:00       82.353       45.933       43.821       36.678       35.432       25.789     1345.301     1255.461      665.059        0.704        0.163       94.296       20.521        0.047      340.823       15.109      864.352
08/05/2014  02:59:00       79.160       58.752       45.696       43.589       30.658       31.025     1900.030      939.943      962.558        0.780        0.190       98.580       24.734        0.063      340.823       15.109      864.337
08/05/2014  03:00:00       76.113       48.222       36.547       22.296       27.682       29.153      497.100      766.303      849.901        0.578        0.106       90.103       15.725        0.030      340.863       15.177      864.332
08/05/2014  03:01:00       97.673       61.579       21.278       39.876       27.163       25.030     1590.118      737.855      626.502        0.837        0.148      115.464       15.116        0.017      340.782       15.041      864.335
08/05/2014  03:02:00      118.256       81.216        8.611       39.667       34.458       25.316     1573.507     1187.358      640.922        1.203        0.170      143.459       20.973        0.021      340.743       14.975      864.341
08/05/2014  03:03:00      129.223       81.380        7.574       38.692       27.501       25.052     1497.053      756.317      627.615        1.313        0.144      152.713       16.737        0.012      340.733       14.957      864.356
08/05/2014  03:04:00       78.205       59.712       23.760       41.170       23.378       30.055     1694.937      546.533      903.274        0.669        0.157       98.395       21.910        0.050      340.739       14.968      864.368
08/05/2014  03:05:00      144.191       85.414        6.697       44.934       31.293       31.631     2019.071      979.265     1000.529        1.606        0.200      167.591       11.560        0.005      340.724       14.941      864.379
08/05/2014  03:06:00       82.894       54.006       15.453       36.878       42.342       29.027     1360.007     1792.838      842.582        0.701        0.200       98.935       19.137        0.037      340.740       14.968      864.385
08/05/2014  03:07:00       65.774       24.780        5.060       35.415       26.927       18.925     1254.228      725.077      358.158        0.365        0.117       70.286        9.844        0.020      340.764       15.010      864.401
08/05/2014  03:08:00       56.801       49.072       -2.256       25.021       20.717       13.136      626.058      429.180      172.551        0.343        0.061       75.063        8.597        0.013      340.802       15.074      864.419
08/05/2014  03:09:00       31.940       65.833       -7.523       19.267       26.019       14.454      371.224      676.981      208.909        0.333        0.063       73.172       11.252        0.024      340.752       14.993      864.437
08/05/2014  03:10:00       44.700       45.195        0.134       16.806       21.523       17.972      282.452      463.259      322.980        0.255        0.053       63.567       15.764        0.062      340.774       15.028      864.436
08/05/2014  03:11:00       26.064       46.522        6.556       21.719       33.909       15.952      471.712     1149.817      254.467        0.238        0.094       53.326       17.161        0.104      340.768       15.017      864.436
08/05/2014  03:12:00       76.743       57.742       14.481       38.803       23.552       25.052     1505.635      554.709      627.580        0.606        0.134       96.040       16.557        0.030      340.760       15.003      864.443
08/05/2014  03:13:00      118.372       55.764        5.180       44.619       37.115       28.695     1990.845     1377.560      823.428        1.067        0.210      130.849       10.707        0.007      340.720       14.935      864.462
08/05/2014  03:14:00       82.830       65.844       -6.256       46.491       53.429       45.304     2161.454     2854.641     2052.480        0.915        0.353      105.813       37.088        0.123      340.720       14.937      864.480
08/05/2014  03:15:00      104.863       47.855       12.524       60.192       43.718       29.845     3623.131     1911.235      890.745        0.993        0.321      115.266       16.707        0.021      340.711       14.919      864.490
08/05/2014  03:16:00      162.492       88.774       28.226       71.781       61.213       43.248     5152.532     3747.078     1870.380        2.292        0.538      185.161       26.504        0.020      340.690       14.883      864.499
08/05/2014  03:17:00      142.937       91.672       30.433       67.048       58.515       50.032     4495.389     3424.047     2503.244        2.009        0.521      169.808       34.330        0.041      340.632       14.784      864.508
08/05/2014  03:18:00      148.967      101.641       11.857       51.562       44.595       39.854     2658.601     1988.717     1588.359        1.945        0.312      180.339       25.845        0.021      340.610       14.748      864.510
08/05/2014  03:19:00       84.996       72.344        3.207       44.468       42.740       31.932     1977.368     1826.686     1019.668        0.865        0.241      111.615       24.245        0.047      340.634       14.791      864.504
08/05/2014  03:20:00       79.478       43.035       12.423       36.963       28.926       23.102     1366.299      836.735      533.683        0.553        0.137       90.381       13.487        0.022      340.666       14.844      864.495
08/05/2014  03:21:00       50.259       35.898       14.597       32.357       30.672       22.321     1046.979      940.790      498.238        0.326        0.124       61.763       15.388        0.062      340.686       14.878      864.480
08/05/2014  03:22:00       36.948       28.618       23.699       49.342       35.033       37.927     2434.608     1227.317     1438.467        0.392        0.255       46.735       31.428        0.452      340.713       14.923      864.451
08/05/2014  03:23:00       -5.871       33.009       -8.300       17.502       24.199        9.768      306.335      585.572       95.424        0.109        0.049       33.527       10.108        0.091      340.622       14.768      864.408
08/05/2014  03:24:00        8.533       33.273       -1.705       22.940       12.384       11.715      526.232      153.359      137.230        0.100        0.041       34.349       10.815        0.099      340.628       14.778      864.365
08/05/2014  03:25:00        9.141       13.134       -1.204       19.975       10.275       11.443      399.010      105.567      130.931        0.045        0.032       16.001        3.473        0.047      340.652       14.821      864.322
08/05/2014  03:26:00      -46.644       12.973       -2.456       19.390       15.651       11.521      375.972      244.967      132.743        0.155        0.038       48.414        5.424        0.013      340.734       14.960      864.279
08/05/2014  03:27:00      -71.407        2.970       -9.709       24.151       17.870       13.965      583.294      319.332      195.023        0.315        0.055       71.469       13.802        0.037      340.721       14.937      864.247
08/05/2014  03:28:00      -50.424       22.307       -9.909       18.150       23.037       15.256      329.433      530.700      232.755        0.212        0.055       55.137       11.175        0.041      340.750       14.987      864.214
08/05/2014  03:29:00      -42.875       24.113      -13.012       13.645       12.855       10.064      186.179      165.260      101.278        0.152        0.023       49.190        6.964        0.020      340.664       14.839      864.203
08/05/2014  03:30:00      -30.264       13.659       -5.860        9.357       11.019        7.603       87.546      121.410       57.806        0.070        0.013       33.204        6.140        0.034      340.640       14.801      864.188
08/05/2014  03:31:00      -58.142        2.778       -0.766       27.871       22.975       11.341      776.767      527.840      128.609        0.241        0.072       58.208        1.598        0.001      340.716       14.929      864.170
08/05/2014  03:32:00      -14.012      -43.572       -9.169       18.185       10.942        9.651      330.704      119.733       93.151        0.136        0.027       45.769        6.860        0.022      340.761       15.003      864.178
08/05/2014  03:33:00       -4.867      -29.523      -10.542        9.559       14.752       12.674       91.372      217.627      160.635        0.074        0.023       29.922        6.852        0.052      340.800       15.070      864.202
08/05/2014  03:34:00        5.813      -43.248        8.772       16.382       33.992       16.535      268.369     1155.452      273.420        0.184        0.085       43.637       11.810        0.073      340.878       15.202      864.231
08/05/2014  03:35:00       46.198       48.520       10.893       41.381       34.179       19.072     1712.391     1168.208      363.723        0.393        0.162       66.996       18.151        0.073      340.794       15.060      864.264
08/05/2014  03:36:00       53.688       64.774       58.830       39.601       23.074       18.423     1568.238      532.430      339.403        0.649        0.122       84.132       10.112        0.014      340.846       15.149      864.286
08/05/2014  03:37:00        3.176       36.025       67.357       25.445       29.967       14.521      647.459      897.998      210.860        0.380        0.088       36.165       15.342        0.180      340.772       15.025      864.297
08/05/2014  03:38:00       10.322       41.823       55.827       18.014       28.753       14.831      324.512      826.736      219.972        0.317        0.069       43.078        9.022        0.044      340.769       15.018      864.300
08/05/2014  03:39:00       46.766       57.164       53.069       41.638       29.469       24.856     1733.713      868.449      617.844        0.574        0.161       73.856       22.210        0.090      340.778       15.034      864.297
08/05/2014  03:40:00       61.500       67.206       60.031       31.586       21.739       17.704      997.647      472.588      313.435        0.684        0.089       91.098       14.599        0.026      340.696       14.895      864.293
08/05/2014  03:41:00       64.408       51.115       36.159       46.879       27.376       28.313     2197.650      749.444      801.599        0.591        0.187       82.226       29.330        0.127      340.680       14.869      864.298
08/05/2014  03:42:00       74.872       61.801       40.212       32.709       22.725       29.106     1069.908      516.435      847.140        0.674        0.122       97.083       19.956        0.042      340.692       14.889      864.295
08/05/2014  03:43:00       67.373       20.324       -2.698       42.711       37.034       31.297     1824.245     1371.527      979.533        0.457        0.209       70.372       25.549        0.132      340.642       14.803      864.287
08/05/2014  03:44:00       80.184       15.968       11.463       43.338       31.961       33.820     1878.149     1021.526     1143.788        0.543        0.202       81.758       24.157        0.087      340.633       14.789      864.279
08/05/2014  03:45:00       82.103       49.732       20.624       18.847       18.182       26.612      355.222      330.576      708.225        0.552        0.070       95.990       14.545        0.023      340.686       14.878      864.259
08/05/2014  03:46:00       65.820       33.812       11.942       27.406       35.706       20.011      751.105     1274.952      400.434        0.402        0.121       73.996       20.437        0.076      340.648       14.813      864.247
08/05/2014  03:47:00      115.991       59.506        7.935       21.922       16.684       16.779      480.591      278.340      281.533        0.905        0.052      130.364       11.813        0.008      340.579       14.695      864.232
08/05/2014  03:48:00       86.851       39.528        8.846       26.095       19.173       21.432      680.930      367.595      459.315        0.535        0.075       95.423       15.760        0.027      340.615       14.758      864.222
08/05/2014  03:49:00       59.134        6.411        7.069       38.003       26.953       20.187     1444.258      726.443      407.532        0.308        0.129       59.480       18.561        0.097      340.633       14.787      864.224
08/05/2014  03:50:00       21.683       34.151       24.008       21.097       18.731       21.883      445.081      350.868      478.884        0.174        0.064       40.454       13.916        0.118      340.672       14.854      864.222
08/05/2014  03:51:00       15.733       13.465       31.966       22.659       22.162       10.934      513.428      491.164      119.545        0.129        0.056       20.708        9.873        0.227      340.762       15.007      864.221
08/05/2014  03:52:00       38.869      -66.237        0.663       41.373       46.723       25.721     1711.693     2183.074      661.561        0.523        0.228       76.800       26.360        0.118      340.773       15.025      864.212
08/05/2014  03:53:00       60.020      -75.162       -9.576       36.186       67.367       34.562     1309.413     4538.344     1194.524        0.819        0.352       96.186       38.445        0.160      340.802       15.073      864.194
08/05/2014  03:54:00       54.462      -63.336       -9.981       34.878       49.940       31.262     1216.468     2494.035      977.300        0.588        0.234       83.532       35.615        0.182      340.705       14.909      864.182
08/05/2014  03:55:00       30.990      -46.662        6.760       26.826       41.190       26.770      719.610     1696.583      716.652        0.316        0.157       56.016       24.216        0.187      340.692       14.889      864.173
08/05/2014  03:56:00       15.099      -21.159       20.786       27.294       32.102       32.084      744.984     1030.507     1029.397        0.196        0.140       25.994       16.779        0.417      340.746       14.979      864.143
08/05/2014  03:57:00       30.094      -31.802        3.229       24.019       36.051       28.492      576.891     1299.708      811.811        0.231        0.134       43.784       24.172        0.305      340.717       14.929      864.117
08/05/2014  03:58:00        5.115      -57.372        8.565       39.267       46.800       29.873     1541.888     2190.210      892.422        0.401        0.231       57.599       18.986        0.109      340.759       15.001      864.092
08/05/2014  03:59:00      -34.891      -21.834       13.147       24.847       16.948       16.919      617.388      287.224      286.260        0.153        0.060       41.160       12.339        0.090      340.817       15.099      864.078
08/05/2014  04:00:00      -13.639      -34.474       -4.266       19.622       22.795       14.561      385.038      519.620      212.014        0.125        0.056       37.074        7.841        0.045      340.900       15.240      864.066
08/05/2014  04:01:00       -7.247       -7.278        7.965       16.136       24.396       17.363      260.373      595.161      301.466        0.066        0.058       10.270        9.382        0.835      340.910       15.257      864.065
08/05/2014  04:02:00      -10.648        9.527       14.491       10.172       16.475       11.782      103.476      271.441      138.813        0.046        0.026       14.287        6.819        0.228      340.889       15.223      864.064
08/05/2014  04:03:00        0.387       -0.056       18.224        9.977       11.237        9.923       99.541      126.260       98.461        0.033        0.016        0.391        8.254      445.045      340.911       15.257      864.068
08/05/2014  04:04:00        4.094      -47.527        6.077       32.667       38.459       24.356     1067.152     1479.127      593.222        0.273        0.157       47.703       16.774        0.124      340.882       15.210      864.069
08/05/2014  04:05:00      -32.525      -50.513        1.047       22.821       37.713       18.795      520.779     1422.239      353.253        0.295        0.115       60.079       12.917        0.046      340.893       15.228      864.071
08/05/2014  04:06:00      -19.134       17.800       46.420       16.799       30.775       19.598      282.194      947.106      384.090        0.223        0.081       26.133       17.710        0.459      340.869       15.186      864.075
08/05/2014  04:07:00       -2.600       -2.974       44.427       17.710       37.261       20.448      313.630     1388.370      418.124        0.205        0.106        3.951       18.977       23.073      340.986       15.384      864.085
08/05/2014  04:08:00      -12.924      -39.323        5.922       26.115       23.981       26.954      681.992      575.094      726.521        0.187        0.099       41.393       17.347        0.176      340.900       15.240      864.086
08/05/2014  04:09:00      -20.100      -45.477        9.462       16.916       25.902       19.855      286.135      670.904      394.238        0.196        0.068       49.721       15.559        0.098      340.929       15.289      864.082
08/05/2014  04:10:00      -18.238      -27.283       -2.583       15.905       19.741       14.095      252.979      389.691      198.655        0.096        0.042       32.818        8.179        0.062      340.914       15.265      864.080
08/05/2014  04:11:00      -28.701      -19.564        6.942       19.187       14.900       12.921      368.130      222.011      166.941        0.101        0.038       34.735        6.787        0.038      340.836       15.130      864.077
08/05/2014  04:12:00      -11.000       10.954       33.597       10.017       21.093       18.956      100.339      444.930      359.337        0.114        0.045       15.524       17.651        1.293      340.946       15.318      864.074
08/05/2014  04:13:00      -20.888      -23.775        3.364       13.468       17.070       20.471      181.389      291.373      419.077        0.095        0.045       31.647       17.233        0.297      340.942       15.312      864.075
08/05/2014  04:14:00      -14.759      -20.156        6.063       23.606       34.442       15.465      557.220     1186.255      239.152        0.132        0.099       24.981        7.828        0.098      340.946       15.318      864.070
08/05/2014  04:15:00        2.546      -46.172        2.339       20.707       29.637       18.891      428.769      878.336      356.864        0.190        0.083       46.243       10.608        0.053      340.934       15.299      864.064
08/05/2014  04:16:00      -20.001      -24.627        0.285       14.301       13.926       11.106      204.508      193.937      123.349        0.076        0.026       31.726        7.852        0.061      340.949       15.321      864.060
08/05/2014  04:17:00      -29.879      -30.118        5.241       26.646       18.782       17.500      709.997      352.770      306.245        0.160        0.068       42.425       15.765        0.138      340.975       15.366      864.051
08/05/2014  04:18:00      -27.409      -21.198        3.437       37.527       19.652       17.661     1408.274      386.201      311.918        0.166        0.105       34.650       15.672        0.205      340.883       15.213      864.041
08/05/2014  04:19:00      -46.616      -41.411        2.884       44.464       29.831       18.619     1977.019      889.906      346.668        0.355        0.161       62.353       23.816        0.146      340.852       15.158      864.033
08/05/2014  04:20:00      -66.998      -48.215      -11.956       13.945       21.030       10.818      194.461      442.278      117.023        0.385        0.038       82.543        5.251        0.004      340.730       14.950      864.025
08/05/2014  04:21:00       -8.024      -33.632        3.147       16.823       21.021       14.231      282.997      441.870      202.510        0.107        0.046       34.576       16.568        0.230      340.801       15.073      864.020
08/05/2014  04:22:00        9.749       10.270       25.189       11.709       11.439        7.572      137.111      130.854       57.338        0.058        0.016       14.160        5.427        0.147      340.849       15.154      864.005
08/05/2014  04:23:00       -9.711       14.465        1.608       13.941       14.436       10.489      194.355      208.390      110.009        0.041        0.026       17.422        7.046        0.164      340.770       15.019      863.999
08/05/2014  04:24:00        5.957      -88.706      -14.150       25.502       33.205       15.743      650.369     1102.559      247.828        0.505        0.100       88.906       10.091        0.013      340.841       15.140      863.998
08/05/2014  04:25:00      -38.068      -72.595       -5.656       26.006       27.230       16.876      676.295      741.457      284.807        0.423        0.085       81.971       13.392        0.027      340.839       15.138      863.996
08/05/2014  04:26:00       -6.409      -22.916        8.570       18.100       21.125       19.745      327.614      446.283      389.856        0.090        0.058       23.795        9.679        0.165      340.982       15.378      864.007
08/05/2014  04:27:00      -21.172      -84.758      -11.958       35.039       42.394       21.246     1227.749     1797.285      451.411        0.563        0.174       87.362        9.780        0.013      340.848       15.151      864.012
08/05/2014  04:28:00      -42.574     -151.209        0.574       37.040       23.270       20.825     1371.982      541.500      433.670        1.351        0.117      157.089       15.155        0.009      340.773       15.024      864.017
08/05/2014  04:29:00        7.785      -87.244        3.524       18.680       37.579       17.705      348.955     1412.168      313.458        0.488        0.104       87.591        9.975        0.013      340.845       15.147      864.018
08/05/2014  04:30:00      -17.874      -72.434        8.255       37.458       27.006       22.199     1403.081      729.321      492.796        0.413        0.131       74.607       21.336        0.082      340.797       15.065      864.020
08/05/2014  04:31:00      -72.722      -18.757       -5.930       22.957       29.609       10.921      527.026      876.720      119.260        0.360        0.076       75.101       10.350        0.019      340.732       14.954      864.020
08/05/2014  04:32:00      -59.287       -5.031        2.475       36.117       27.850       17.063     1304.459      775.598      291.132        0.296        0.119       59.500        9.668        0.026      340.756       14.997      864.017
08/05/2014  04:33:00      -13.900      -19.576       11.071       35.086       18.048       13.637     1231.025      325.724      185.977        0.122        0.087       24.009       17.449        0.528      340.787       15.047      864.025
08/05/2014  04:34:00      -68.133      -44.001       -0.730       25.623       16.763       12.384      656.547      281.004      153.354        0.383        0.055       81.106       10.155        0.016      340.761       15.008      864.021
08/05/2014  04:35:00      -42.013      -40.840       -4.767       18.959       19.520       19.056      359.444      381.047      363.132        0.228        0.055       58.592       15.352        0.069      340.802       15.073      864.024
08/05/2014  04:36:00      -39.070        2.014        6.557       24.807       12.706       12.317      615.384      161.448      151.712        0.125        0.046       39.122        8.224        0.044      340.778       15.034      864.019
08/05/2014  04:37:00      -10.712       11.463        4.647        9.424        8.324        8.082       88.819       69.282       65.316        0.025        0.011       15.689        4.944        0.099      340.786       15.046      864.009
08/05/2014  04:38:00      -15.536      -38.900       11.365       24.464       47.457       18.852      598.494     2252.172      355.390        0.254        0.160       41.888       18.444        0.194      340.763       15.007      864.005
08/05/2014  04:39:00       18.509      -41.919        8.937       23.163       34.876       31.149      536.506     1216.368      970.236        0.245        0.136       45.824       16.600        0.131      340.743       14.974      863.992
08/05/2014  04:40:00       39.051      -60.581        8.441       35.583       52.350       29.499     1266.152     2740.536      870.176        0.507        0.244       72.077       32.918        0.209      340.691       14.887      863.986
08/05/2014  04:41:00       89.924      -96.951      -19.655       46.754       56.418       30.031     2185.908     3182.966      901.865        1.207        0.314      132.234       25.396        0.037      340.649       14.815      863.977
08/05/2014  04:42:00       58.514      -35.830       24.075       32.917       43.464       33.580     1083.550     1889.125     1127.606        0.469        0.205       68.612       24.532        0.128      340.612       14.754      863.969
08/05/2014  04:43:00       56.252      -43.195       10.540       35.845       40.459       36.810     1284.898     1636.959     1354.997        0.471        0.214       70.923       37.155        0.274      340.571       14.684      863.974
08/05/2014  04:44:00       33.984      -59.811        1.781       29.171       36.114       24.752      850.941     1304.201      612.680        0.375        0.138       68.791       16.229        0.056      340.625       14.775      863.983
08/05/2014  04:45:00       45.512      -67.591        4.663       31.179       37.911       24.733      972.102     1437.265      611.744        0.484        0.151       81.485       27.113        0.111      340.658       14.831      863.987
08/05/2014  04:46:00        9.143      -33.732       23.264       24.777       35.242       22.701      613.883     1241.994      515.348        0.207        0.119       34.949       12.466        0.127      340.711       14.920      863.993
08/05/2014  04:47:00       44.138       -6.738       33.340       45.254       56.414       42.453     2047.929     3182.517     1802.287        0.507        0.352       44.650       40.388        0.818      340.651       14.819      863.999
08/05/2014  04:48:00      112.212     -109.844       -8.730       48.964       42.962       25.573     2397.436     1845.739      653.991        1.481        0.245      157.026       24.055        0.023      340.574       14.688      864.000
08/05/2014  04:49:00       80.629      -43.808       24.775       36.225       52.114       40.103     1312.277     2715.821     1608.270        0.733        0.282       91.761       30.974        0.114      340.601       14.733      864.003
08/05/2014  04:50:00       27.219      -27.494       26.614       31.825       43.368       24.789     1012.848     1880.803      614.518        0.286        0.175       38.689       25.131        0.422      340.653       14.822      864.003
08/05/2014  04:51:00       62.689      -77.320       -0.331       32.038       37.848       24.650     1026.426     1432.470      607.611        0.649        0.153       99.540       19.507        0.038      340.678       14.864      864.011
08/05/2014  04:52:00       53.435      -67.243       16.142       40.598       38.925       27.547     1648.236     1515.136      758.853        0.578        0.196       85.889       30.563        0.127      340.614       14.758      864.017
08/05/2014  04:53:00       42.325      -61.528        4.242       39.308       53.626       30.659     1545.082     2875.728      939.971        0.548        0.268       74.680       33.902        0.206      340.645       14.808      864.006
08/05/2014  04:54:00        7.990      -36.273       19.724       17.966       34.686       30.329      322.794     1203.118      919.867        0.211        0.122       37.143       11.578        0.097      340.699       14.899      863.994
08/05/2014  04:55:00       19.166       33.314       64.678       40.858       40.215       25.331     1669.414     1617.283      641.640        0.479        0.196       38.434       26.704        0.483      340.693       14.891      863.988
08/05/2014  04:56:00       28.010       11.732       44.133       42.103       46.647       30.400     1772.696     2175.951      924.139        0.387        0.244       30.368       25.645        0.713      340.749       14.984      863.987
08/05/2014  04:57:00       10.758       38.491       63.233       34.746       30.854       29.164     1207.287      951.942      850.553        0.430        0.150       39.966       25.462        0.406      340.596       14.728      863.979
08/05/2014  04:58:00       -7.591        2.114       38.707       21.881       30.595       17.709      478.761      936.069      313.622        0.164        0.086        7.879        5.160        0.429      340.670       14.852      863.973
08/05/2014  04:59:00       43.897      -25.319       24.083       33.941       45.415       30.455     1151.968     2062.562      927.477        0.364        0.207       50.675       27.461        0.294      340.600       14.732      863.973
08/05/2014  05:00:00       48.308      -38.013       25.689       48.147       34.156       28.660     2318.112     1166.647      821.380        0.437        0.215       61.471       29.594        0.232      340.613       14.755      863.970
08/05/2014  05:01:00       40.854      -78.045       14.939       28.915       43.508       25.686      836.074     1892.913      659.781        0.569        0.169       88.091       22.414        0.065      340.580       14.699      863.961
08/05/2014  05:02:00       40.196      -39.860       25.943       29.179       50.875       27.223      851.395     2588.239      741.097        0.403        0.209       56.609       19.339        0.117      340.649       14.816      863.957
08/05/2014  05:03:00       30.552      -38.469       16.964       37.209       53.099       25.754     1384.532     2819.486      663.284        0.378        0.243       49.125       19.997        0.166      340.609       14.747      863.965
08/05/2014  05:04:00       39.101      -61.628       12.718       33.572       51.137       28.453     1127.060     2615.010      809.552        0.502        0.228       72.985       32.897        0.203      340.606       14.741      863.973
08/05/2014  05:05:00       38.094      -66.670        8.527       29.350       34.098       19.541      861.404     1162.677      381.853        0.419        0.120       76.786       18.576        0.059      340.640       14.801      863.986
08/05/2014  05:06:00       44.437      -61.295       -7.355       28.896       35.221       21.388      834.951     1240.529      457.447        0.416        0.127       75.709       19.084        0.064      340.648       14.814      863.986
08/05/2014  05:07:00       43.446      -76.810        3.116       26.593       36.131       22.128      707.210     1305.483      489.645        0.515        0.125       88.246       23.197        0.069      340.626       14.778      863.981
08/05/2014  05:08:00       43.310        7.947       40.577       33.155       71.542       36.643     1099.234     5118.235     1342.714        0.557        0.378       44.033       46.740        1.127      340.621       14.769      863.978
08/05/2014  05:09:00       22.124       18.936       44.586       33.814       43.886       25.755     1143.419     1925.999      663.305        0.328        0.187       29.121       23.724        0.664      340.649       14.816      863.987
08/05/2014  05:10:00       16.911      -19.886       27.570       22.257       29.260       25.542      495.352      856.135      652.372        0.172        0.100       26.105       11.981        0.211      340.677       14.863      863.993
08/05/2014  05:11:00       23.400      -85.659        4.813       32.991       50.705       42.347     1088.388     2571.042     1793.255        0.668        0.273       88.798       29.165        0.108      340.647       14.812      863.993
08/05/2014  05:12:00       51.692     -105.128       -7.954       44.208       50.737       29.203     1954.351     2574.231      852.828        0.958        0.269      117.149       26.322        0.050      340.665       14.844      863.984
08/05/2014  05:13:00       43.145      -76.756       -5.880       32.743       44.738       31.601     1072.110     2001.453      998.613        0.593        0.204       88.051       23.444        0.071      340.673       14.856      863.989
08/05/2014  05:14:00       34.533      -18.950       18.359       26.230       57.570       16.225      687.997     3314.335      263.263        0.308        0.213       39.390       20.922        0.282      340.633       14.788      863.981
08/05/2014  05:15:00       43.225      -74.743       10.140       43.812       58.033       34.179     1919.524     3367.799     1168.234        0.701        0.323       86.342       34.123        0.156      340.633       14.789      863.982
08/05/2014  05:16:00       51.914       25.898       46.198       42.186       30.412       29.779     1779.648      924.902      886.780        0.454        0.180       58.015       20.018        0.119      340.735       14.961      863.982
08/05/2014  05:17:00       33.784       -9.265       26.335       53.440       48.745       27.161     2855.813     2376.097      737.727        0.394        0.298       35.032       26.292        0.563      340.650       14.819      863.994
08/05/2014  05:18:00       52.947       53.452       39.022       40.145       33.696       31.660     1611.639     1135.410     1002.380        0.547        0.187       75.237       25.761        0.117      340.588       14.712      863.992
08/05/2014  05:19:00       29.789       42.286       47.055       47.036       35.397       21.612     2212.375     1252.929      467.096        0.441        0.197       51.725       19.252        0.139      340.621       14.768      863.988
08/05/2014  05:20:00      108.361       53.826       26.718       35.023       25.124       31.006     1226.641      631.202      961.343        0.909        0.141      120.993       10.554        0.008      340.526       14.607      863.982
08/05/2014  05:21:00       63.496       47.425       36.796       39.046       33.789       25.784     1524.608     1141.693      664.794        0.548        0.167       79.252       19.331        0.059      340.542       14.635      863.973
08/05/2014  05:22:00       75.483       67.053       58.129       48.551       33.741       33.147     2357.220     1138.435     1098.735        0.908        0.230      100.964       27.629        0.075      340.572       14.685      863.962
08/05/2014  05:23:00       32.026       36.894       46.564       40.962       25.872       29.723     1677.926      669.350      883.468        0.389        0.162       48.855       26.923        0.304      340.829       15.118      863.964
08/05/2014  05:24:00       29.001       36.972       43.034       35.535       34.657       15.417     1262.736     1201.124      237.681        0.338        0.135       46.989       13.890        0.087      340.668       14.848      863.962
08/05/2014  05:25:00       17.947       40.409       50.142       34.079       29.386       17.566     1161.353      863.535      308.550        0.340        0.117       44.215       11.349        0.066      340.703       14.907      863.966
08/05/2014  05:26:00       59.194       48.850       36.435       28.279       24.536       21.273      799.712      602.023      452.554        0.454        0.093       76.748       16.493        0.046      340.589       14.713      863.960
08/05/2014  05:27:00       68.915       51.689       13.714       29.406       19.818       19.396      864.735      392.753      376.212        0.462        0.082       86.146        9.158        0.011      340.502       14.565      863.962
08/05/2014  05:28:00       77.530       64.781       27.167       38.243       22.548       29.894     1462.516      508.424      893.676        0.690        0.143      101.032       17.156        0.029      340.518       14.594      863.962
08/05/2014  05:29:00       72.571       69.987       29.946       32.962       19.825       28.119     1086.517      393.016      790.693        0.667        0.114      100.820       18.571        0.034      340.546       14.642      863.961
08/05/2014  05:30:00       77.221       58.356       35.982       26.871       25.308       26.601      722.056      640.495      707.611        0.637        0.104       96.791       21.278        0.048      340.543       14.636      863.959
08/05/2014  05:31:00      105.809       54.446       22.629       30.386       20.469       24.655      923.306      418.968      607.855        0.831        0.098      118.995       17.508        0.022      340.532       14.617      863.962
08/05/2014  05:32:00       72.172       44.645       43.285       41.156       28.126       39.319     1693.796      791.096     1545.954        0.655        0.202       84.864       22.507        0.070      340.585       14.708      863.966
08/05/2014  05:33:00       50.585       56.853       49.031       36.036       27.599       27.605     1298.562      761.732      762.034        0.551        0.141       76.100       22.126        0.085      340.574       14.687      863.970
08/05/2014  05:34:00       89.341       54.335       13.408       27.878       26.070       21.303      777.207      679.643      453.802        0.651        0.096      104.566       12.097        0.013      340.517       14.594      863.971
08/05/2014  05:35:00       99.421       67.273       19.071       32.491       29.130       26.532     1055.642      848.561      703.936        0.869        0.130      120.042       19.411        0.026      340.508       14.575      863.983
08/05/2014  05:36:00       84.889       59.337       30.227       28.284       26.488       28.929      799.973      701.627      836.910        0.699        0.117      103.572       12.686        0.015      340.510       14.580      863.986
08/05/2014  05:37:00       77.292       52.644       13.127       32.228       22.643       26.951     1038.614      512.717      726.355        0.560        0.114       93.517       22.533        0.058      340.494       14.555      863.989
08/05/2014  05:38:00       77.751       71.491       23.357       31.064       19.012       23.024      964.963      361.452      530.106        0.678        0.093      105.623       13.128        0.015      340.462       14.498      863.984
08/05/2014  05:39:00       83.847       52.360        4.152       30.037       25.417       24.542      902.199      646.014      602.305        0.597        0.108       98.853       13.205        0.018      340.463       14.501      863.986
08/05/2014  05:40:00       65.560       61.742       29.644       48.442       23.523       30.272     2346.588      553.352      916.374        0.640        0.191       90.057       29.164        0.105      340.453       14.483      863.988
08/05/2014  05:41:00       70.111       57.943       19.581       25.374       21.796       25.606      643.859      475.070      655.682        0.522        0.089       90.955       14.728        0.026      340.498       14.561      863.984
08/05/2014  05:42:00      105.259       77.987       15.911       33.767       23.381       29.576     1140.209      546.670      874.719        0.999        0.128      131.001       13.505        0.011      340.458       14.491      863.982
08/05/2014  05:43:00       96.863       68.846       34.205       45.371       28.645       27.295     2058.555      820.544      745.017        0.946        0.181      118.837       19.919        0.028      340.484       14.538      863.978
08/05/2014  05:44:00      103.983       75.515       35.584       44.435       29.043       50.554     1974.490      843.514     2555.657        1.158        0.269      128.511       32.219        0.063      340.591       14.718      863.982
08/05/2014  05:45:00       56.030       76.214       46.834       43.633       34.835       33.040     1903.839     1213.453     1091.619        0.767        0.210       94.593       21.308        0.051      340.679       14.866      863.988
08/05/2014  05:46:00       97.012       50.967       22.992       53.498       41.307       37.422     2862.031     1706.280     1400.442        0.925        0.298      109.585       31.644        0.083      340.552       14.651      864.003
08/05/2014  05:47:00      113.376       50.994        2.107       43.375       34.021       31.993     1881.432     1157.436     1023.565        0.976        0.203      124.316       23.436        0.036      340.447       14.473      864.020
08/05/2014  05:48:00      101.785       69.259       12.737       45.113       40.995       25.726     2035.156     1680.560      661.843        0.985        0.219      123.114       19.119        0.024      340.440       14.461      864.029
08/05/2014  05:49:00       70.840       43.064       12.791       45.950       26.563       22.770     2111.401      705.613      518.479        0.519        0.167       82.902       19.487        0.055      340.495       14.555      864.040
08/05/2014  05:50:00      110.617       47.307        1.683       48.950       36.537       22.479     2396.133     1334.939      505.325        0.936        0.212      120.308       24.660        0.042      340.472       14.515      864.051
08/05/2014  05:51:00       98.767       57.459       13.407       44.287       34.885       29.374     1961.346     1216.947      862.821        0.864        0.202      114.265       22.223        0.038      340.445       14.470      864.063
08/05/2014  05:52:00      100.840       69.089        8.729       26.764       26.162       21.842      716.294      684.450      477.091        0.845        0.094      122.238        5.430        0.002      340.419       14.427      864.069
08/05/2014  05:53:00       50.853       45.540       38.168       38.473       27.323       26.334     1480.185      746.547      693.489        0.452        0.146       68.264       22.525        0.109      340.476       14.522      864.081
08/05/2014  05:54:00      101.958       72.122        9.688       36.262       25.026       23.002     1314.916      626.310      529.070        0.908        0.124      124.888       15.278        0.015      340.395       14.386      864.091
08/05/2014  05:55:00       78.148       42.712       26.684       43.228       24.583       25.231     1868.649      604.306      636.590        0.588        0.155       89.059       18.140        0.041      340.447       14.473      864.102
08/05/2014  05:56:00       97.806       68.932        9.469       34.578       29.411       27.324     1195.624      865.002      746.584        0.861        0.140      119.657       18.211        0.023      340.389       14.378      864.117
08/05/2014  05:57:00       98.214       41.820        8.554       40.429       35.051       26.163     1634.497     1228.566      684.511        0.751        0.177      106.747       15.210        0.020      340.389       14.376      864.129
08/05/2014  05:58:00       80.960       60.437       22.285       21.825       25.058       24.384      476.329      627.896      594.603        0.620        0.085      101.030       13.556        0.018      340.451       14.480      864.138
08/05/2014  05:59:00       87.828       56.153       21.863       31.504       27.059       24.336      992.505      732.194      592.256        0.683        0.116      104.244       12.687        0.015      340.481       14.532      864.148
08/05/2014  06:00:00       91.665       59.446       29.063       28.499       23.025       29.061      812.173      530.171      844.568        0.748        0.109      109.254       18.949        0.030      340.458       14.492      864.168
08/05/2014  06:01:00       84.047       55.671       27.167       35.601       36.155       29.431     1267.456     1307.217      866.207        0.717        0.172      100.813       21.440        0.045      340.476       14.523      864.168
08/05/2014  06:02:00       69.049       30.905        1.344       46.699       38.420       28.406     2180.813     1476.134      806.890        0.509        0.223       75.649       23.372        0.095      340.441       14.463      864.175
08/05/2014  06:03:00       62.390       25.051       19.563       29.365       28.065       25.481      862.294      787.655      649.301        0.360        0.115       67.231       16.026        0.057      340.443       14.468      864.179
08/05/2014  06:04:00       73.256       24.847       14.801       43.502       32.162       36.218     1892.399     1034.402     1311.767        0.522        0.212       77.355       27.511        0.126      340.437       14.457      864.192
08/05/2014  06:05:00       72.569       34.947        0.933       51.553       38.011       25.511     2657.675     1444.823      650.820        0.562        0.238       80.546       21.359        0.070      340.417       14.424      864.194
08/05/2014  06:06:00       86.353       61.890       17.186       34.444       25.954       23.427     1186.357      673.606      548.827        0.700        0.120      106.241       19.545        0.034      340.428       14.441      864.193
08/05/2014  06:07:00       67.431       71.682       42.412       32.382       23.111       22.275     1048.565      534.096      496.188        0.678        0.104       98.414       17.095        0.030      340.502       14.567      864.189
08/05/2014  06:08:00       52.006       48.374       51.678       60.211       30.349       17.790     3625.424      921.075      316.488        0.629        0.243       71.027       23.098        0.106      340.566       14.675      864.194
08/05/2014  06:09:00      133.882       66.381       12.509       28.234       24.021       29.253      797.143      576.988      855.755        1.236        0.111      149.435       11.669        0.006      340.408       14.409      864.196
08/05/2014  06:10:00      120.539       81.781       14.901       43.443       29.595       30.153     1887.298      875.849      909.187        1.256        0.184      145.663       21.951        0.023      340.378       14.360      864.197
08/05/2014  06:11:00       97.513       49.744        3.858       31.656       27.853       23.613     1002.101      775.798      557.588        0.717        0.117      109.468       19.218        0.031      340.401       14.398      864.202
08/05/2014  06:12:00       96.508       59.643        9.830       35.297       29.685       32.840     1245.912      881.205     1078.465        0.809        0.160      113.451       23.803        0.044      340.394       14.386      864.213
08/05/2014  06:13:00      120.156       54.106        7.409       42.001       39.032       30.450     1764.122     1523.481      927.209        1.082        0.211      131.776       23.166        0.031      340.393       14.383      864.214
08/05/2014  06:14:00      100.222       61.889       30.910       40.639       30.634       32.337     1651.533      938.420     1045.687        0.923        0.182      117.791       24.934        0.045      340.472       14.517      864.223
08/05/2014  06:15:00      127.077       72.199       30.012       43.358       38.390       29.096     1879.947     1473.807      846.579        1.323        0.210      146.155       19.463        0.018      340.429       14.444      864.226
08/05/2014  06:16:00      103.096       74.533       24.878       24.781       25.546       23.640      614.076      652.588      558.868        0.931        0.091      127.216       12.143        0.009      340.390       14.381      864.239
08/05/2014  06:17:00       62.291       39.515       24.526       45.441       35.197       29.923     2064.863     1238.840      895.380        0.512        0.210       73.767       17.925        0.059      340.430       14.446      864.238
08/05/2014  06:18:00       80.047       40.448       11.249       51.835       27.549       23.993     2686.819      758.960      575.642        0.609        0.201       89.686        8.711        0.009      340.431       14.446      864.242
08/05/2014  06:19:00       79.914       67.002       13.913       35.336       22.459       24.804     1248.611      504.404      615.256        0.672        0.118      104.286       20.185        0.037      340.424       14.434      864.236
08/05/2014  06:20:00       84.289       38.945        2.316       27.862       28.432       18.964      776.268      808.379      359.624        0.529        0.097       92.851       10.569        0.013      340.421       14.429      864.241
08/05/2014  06:21:00       81.168       49.046        5.153       31.265       24.040       22.327      977.478      577.925      498.516        0.554        0.103       94.836       13.821        0.021      340.428       14.440      864.253
08/05/2014  06:22:00       59.132       38.749        1.164       25.419       22.315       19.469      646.142      497.939      379.037        0.326        0.076       70.697       15.832        0.050      340.461       14.496      864.262
08/05/2014  06:23:00       59.226       29.084        6.627       20.316       14.040       17.038      412.742      197.115      290.277        0.265        0.045       65.982       10.089        0.023      340.525       14.607      864.273
08/05/2014  06:24:00       85.123       47.651        5.755       28.297       18.503       16.787      800.731      342.347      281.793        0.549        0.071       97.553        8.781        0.008      340.488       14.544      864.282
08/05/2014  06:25:00       98.465       64.119       13.489       27.011       24.393       26.602      729.612      595.002      707.683        0.801        0.102      117.501       19.239        0.027      340.452       14.482      864.288
08/05/2014  06:26:00       79.281       32.551       11.480       31.488       22.770       24.727      991.484      518.472      611.437        0.480        0.106       85.703       19.977        0.054      340.499       14.562      864.288
08/05/2014  06:27:00       88.529       46.823       17.684       23.071       21.629       26.391      532.265      467.793      696.492        0.602        0.085      100.149       17.249        0.030      340.478       14.526      864.294
08/05/2014  06:28:00       43.781       28.846       13.391       27.853       23.345       22.533      775.790      544.982      507.720        0.238        0.091       52.430       17.728        0.114      340.500       14.564      864.303
08/05/2014  06:29:00       47.077       52.302       12.285       21.918       17.206       28.120      480.379      296.044      790.738        0.333        0.078       70.369       10.073        0.020      340.521       14.601      864.305
08/05/2014  06:30:00       67.636       48.909       12.868       23.328       21.337       23.812      544.177      455.269      567.031        0.435        0.078       83.467       15.218        0.033      340.501       14.567      864.303
08/05/2014  06:31:00       64.188       56.765        3.815       19.133       15.039       13.520      366.081      226.164      182.798        0.407        0.039       85.688       11.131        0.017      340.446       14.474      864.299
08/05/2014  06:32:00       51.614       56.859       -3.039       18.967       17.610       16.843      359.732      310.111      283.698        0.343        0.048       76.792        8.079        0.011      340.440       14.466      864.292
08/05/2014  06:33:00       35.754       44.812       12.899        9.411        9.119       10.646       88.562       83.160      113.335        0.187        0.014       57.328        4.116        0.005      340.444       14.469      864.295
08/05/2014  06:34:00       23.444       30.669       22.211       14.147       16.262        9.181      200.130      264.439       84.282        0.127        0.027       38.603        6.402        0.028      340.481       14.531      864.298
08/05/2014  06:35:00       22.772       35.594        6.255       14.281       11.175       11.135      203.945      124.875      123.993        0.114        0.023       42.256        7.195        0.029      340.527       14.610      864.302
08/05/2014  06:36:00       21.577       17.657       11.041       15.475       14.391       16.370      239.461      207.095      267.969        0.081        0.036       27.881        8.838        0.100      340.548       14.645      864.307
08/05/2014  06:37:00       41.057       25.412       12.918       11.070       13.003       15.070      122.546      169.073      227.105        0.151        0.026       48.285        8.612        0.032      340.510       14.578      864.307
08/05/2014  06:38:00       14.385      -14.893       12.601       15.746       23.385       17.361      247.944      546.854      301.405        0.084        0.055       20.706        7.324        0.125      340.576       14.693      864.313
08/05/2014  06:39:00        4.849      -21.170        8.849       20.340       22.135       17.669      413.717      489.955      312.210        0.088        0.061       21.718       10.581        0.237      340.612       14.751      864.323
08/05/2014  06:40:00        4.046      -26.894       16.320       18.169       16.339       21.710      330.107      266.969      471.303        0.104        0.053       27.197        9.593        0.124      340.609       14.748      864.334
08/05/2014  06:41:00        4.948      -19.743       11.451       18.780       16.064       18.831      352.673      258.050      354.624        0.076        0.048       20.353       12.535        0.379      340.606       14.744      864.349
08/05/2014  06:42:00       23.017      -23.529       -5.244       20.134       11.687       12.968      405.394      136.593      168.165        0.091        0.036       32.915        7.841        0.057      340.564       14.674      864.351
08/05/2014  06:43:00        7.269      -42.030        0.524       12.495       12.903       14.488      156.132      166.498      209.911        0.118        0.027       42.654       12.244        0.082      340.632       14.787      864.350
08/05/2014  06:44:00      -25.262      -21.723       -1.616       22.269       13.635        9.395      495.929      185.905       88.258        0.094        0.039       33.317        5.283        0.025      340.662       14.838      864.352
08/05/2014  06:45:00      -56.534       12.080        1.587       11.404       12.023        7.815      130.058      144.555       61.068        0.184        0.017       57.811        5.299        0.008      340.625       14.773      864.349
08/05/2014  06:46:00      -32.996      -11.055       -2.429       17.247       14.392       11.330      297.450      207.125      128.378        0.092        0.032       34.799       11.387        0.107      340.657       14.828      864.351
08/05/2014  06:47:00      -27.895        3.555        0.716       18.851        7.307        6.671      355.369       53.399       44.506        0.062        0.023       28.121        7.583        0.073      340.630       14.784      864.350
08/05/2014  06:48:00        8.438        3.652       20.300        8.409        4.935        6.428       70.716       24.356       41.316        0.032        0.007        9.195        4.940        0.289      340.657       14.828      864.350
08/05/2014  06:49:00        0.907        1.158       13.322       11.093        5.627        7.288      123.055       31.667       53.118        0.019        0.010        1.471        7.473       25.800      340.654       14.824      864.355
08/05/2014  06:50:00       -8.926       -1.734        5.337        7.419        5.172        4.749       55.045       26.747       22.549        0.011        0.005        9.093        3.987        0.192      340.661       14.837      864.355
08/05/2014  06:51:00      -10.384       -1.323       -0.723       10.053        7.030        6.700      101.063       49.417       44.895        0.015        0.010       10.468        5.389        0.265      340.649       14.814      864.361
08/05/2014  06:52:00        8.332        0.106       14.292        8.447        3.438        6.335       71.353       11.821       40.137        0.020        0.006        8.333        3.841        0.213      340.721       14.939      864.360
08/05/2014  06:53:00       20.953       14.904        3.449        5.231        7.263        7.291       27.364       52.750       53.155        0.040        0.007       25.713        3.799        0.022      340.599       14.732      864.364
08/05/2014  06:54:00       25.710       17.943        4.628       13.096        8.786        8.294      171.511       77.194       68.783        0.066        0.016       31.352        5.155        0.027      340.608       14.746      864.362
08/05/2014  06:55:00       27.946       11.522        6.468        8.311        6.676       10.164       69.073       44.568      103.311        0.059        0.011       30.228        4.624        0.023      340.630       14.785      864.360
08/05/2014  06:56:00       -5.527        9.126        1.394       10.050       10.366       10.734      101.008      107.452      115.218        0.022        0.016       10.669        7.940        0.554      340.636       14.795      864.360
08/05/2014  06:57:00        1.230       23.459       -7.316        7.649       11.956        9.795       58.513      142.942       95.947        0.045        0.015       23.491        7.415        0.100      340.632       14.786      864.358
08/05/2014  06:58:00       -2.317       12.147       -2.165        9.887        9.563        7.161       97.759       91.446       51.275        0.020        0.012       12.366        4.538        0.135      340.649       14.814      864.353
08/05/2014  06:59:00       -4.574       11.523       -1.513        6.120       10.442        7.363       37.450      109.033       54.220        0.018        0.010       12.398        3.793        0.094      340.647       14.810      864.347
08/05/2014  07:00:00       -5.042       10.469       -2.637       10.049        7.913        5.155      100.991       62.614       26.572        0.017        0.010       11.620        3.116        0.072      340.679       14.867      864.335
08/05/2014  07:01:00      -11.666        3.572        5.146        8.446        6.237        7.380       71.327       38.896       54.464        0.017        0.008       12.200        5.358        0.193      340.767       15.012      864.327
08/05/2014  07:02:00       -9.514        1.375        8.013       17.883        5.840        7.177      319.816       34.109       51.506        0.028        0.020        9.613        9.768        1.033      340.834       15.127      864.317
08/05/2014  07:03:00      -41.734        7.120        6.387       17.885       16.341       11.353      319.890      267.035      128.888        0.127        0.036       42.337       10.717        0.064      340.728       14.949      864.319
08/05/2014  07:04:00      -35.041      -30.118        8.026       20.794       20.595       13.332      432.379      424.143      177.738        0.162        0.052       46.206       11.625        0.063      340.799       15.068      864.324
08/05/2014  07:05:00      -11.723      -50.759        3.252       12.954       18.051       14.270      167.818      325.845      203.633        0.171        0.035       52.096       11.212        0.046      340.807       15.083      864.339
08/05/2014  07:06:00       -6.010       -2.963       12.877       12.891       18.033       10.084      166.167      325.190      101.690        0.040        0.030        6.701        8.661        1.670      340.825       15.113      864.350
08/05/2014  07:07:00       -8.655        6.995       13.389       16.401       12.142        8.353      269.009      147.437       69.769        0.039        0.024       11.128        9.221        0.687      340.792       15.058      864.366
08/05/2014  07:08:00        0.690      -11.207        8.642       12.772       12.371       12.141      163.126      153.033      147.412        0.033        0.023       11.229       12.849        1.309      340.748       14.982      864.377
08/05/2014  07:09:00      -14.995      -16.277       -2.698        7.107        7.420        4.040       50.511       55.063       16.319        0.031        0.006       22.131        1.628        0.005      340.699       14.897      864.381
08/05/2014  07:10:00       -9.141       -2.821       -3.702        9.605        9.420        5.769       92.250       88.730       33.281        0.016        0.011        9.566        4.231        0.196      340.726       14.942      864.394
08/05/2014  07:11:00        3.841        2.537       13.935        5.816        6.958        5.456       33.823       48.409       29.765        0.016        0.006        4.603        5.055        1.206      340.855       15.164      864.400
08/05/2014  07:12:00       -5.616       15.091        6.164       11.339       10.430        8.583      128.577      108.777       73.667        0.030        0.016       16.102        5.372        0.111      340.765       15.013      864.410
08/05/2014  07:13:00        5.857       30.251       -0.699       11.995        6.104        6.168      143.889       37.256       38.046        0.058        0.011       30.813        6.012        0.038      340.739       14.969      864.425
08/05/2014  07:14:00       19.127       26.912       -6.705       14.437       14.227       10.227      208.414      202.405      104.588        0.083        0.026       33.017        6.646        0.041      340.736       14.964      864.434
08/05/2014  07:15:00       18.262       21.329        0.642       14.811       15.035       12.404      219.357      226.058      153.856        0.069        0.030       28.079       10.214        0.132      340.762       15.008      864.445
08/05/2014  07:16:00       27.435        9.149        5.575       18.363       13.737       11.772      337.190      188.707      138.572        0.077        0.033       28.920        7.498        0.067      340.808       15.082      864.458
08/05/2014  07:17:00       43.165       31.394        0.673       14.808       14.053       13.493      219.263      197.475      182.058        0.172        0.030       53.374        9.612        0.032      340.776       15.029      864.460
08/05/2014  07:18:00       35.409       28.488        5.514       19.259       23.664       16.514      370.917      559.962      272.720        0.165        0.060       45.446        9.017        0.039      340.811       15.090      864.463
08/05/2014  07:19:00       17.031       38.069        7.061       16.689       25.946       17.602      278.514      673.174      309.840        0.153        0.063       41.705       12.791        0.094      340.784       15.043      864.468
08/05/2014  07:20:00       23.496       34.310        5.557       24.641       18.979       17.022      607.175      360.186      289.748        0.151        0.063       41.584       14.705        0.125      340.812       15.091      864.466
08/05/2014  07:21:00       25.379       64.467       -1.928       21.684       19.120       15.849      470.182      365.560      251.191        0.295        0.054       69.282        8.682        0.016      340.772       15.024      864.457
08/05/2014  07:22:00       17.000       53.019       -4.380       16.365       17.703       14.516      267.802      313.385      210.722        0.196        0.040       55.677       11.414        0.042      340.778       15.032      864.443
08/05/2014  07:23:00        4.263       42.928       -7.547       15.523       13.917        9.419      240.948      193.692       88.717        0.122        0.026       43.139        7.793        0.033      340.795       15.059      864.437
08/05/2014  07:24:00        0.983       42.896       -7.537        6.857       15.395        5.507       47.023      237.016       30.324        0.111        0.016       42.907        3.269        0.006      340.812       15.093      864.434
08/05/2014  07:25:00        4.374       42.287       -8.309        7.622       12.159        6.538       58.095      147.844       42.742        0.106        0.012       42.513        5.054        0.014      340.785       15.046      864.432
08/05/2014  07:26:00        6.080       34.497        1.040       14.005       12.339       10.551      196.141      152.260      111.333        0.084        0.023       35.029        9.023        0.066      340.816       15.096      864.425
08/05/2014  07:27:00       10.831       44.013       -5.898       13.067       14.303        8.520      170.748      204.589       72.598        0.127        0.022       45.326        4.580        0.010      340.816       15.100      864.412
08/05/2014  07:28:00       10.172       23.855        8.576       12.334       15.350       12.471      152.131      235.619      155.527        0.064        0.027       25.933        5.618        0.047      340.858       15.168      864.404
08/05/2014  07:29:00        0.257        6.754        3.748       11.884       11.389        7.106      141.225      129.709       50.502        0.019        0.016        6.759        7.655        1.283      340.884       15.208      864.395
08/05/2014  07:30:00        9.216       -2.282        6.078       10.457        8.300        7.632      109.340       68.887       58.247        0.018        0.012        9.494        4.865        0.263      340.955       15.333      864.393
08/05/2014  07:31:00      -19.863       10.006       -3.787       15.384       13.139        8.738      236.659      172.625       76.361        0.050        0.024       22.241        3.924        0.031      340.916       15.266      864.394
08/05/2014  07:32:00      -42.338       11.207       -6.805        9.563       11.095        8.356       91.459      123.101       69.824        0.112        0.014       43.797        6.575        0.023      340.908       15.252      864.399
08/05/2014  07:33:00      -38.755      -13.491       -2.375       14.250       13.363       10.660      203.057      178.566      113.632        0.109        0.025       41.036        8.873        0.047      340.889       15.224      864.408
08/05/2014  07:34:00      -31.631      -19.878       -0.231       17.020       13.123        9.442      289.679      172.203       89.158        0.097        0.028       37.358        9.382        0.063      340.930       15.292      864.408
08/05/2014  07:35:00      -18.230       20.286        4.868       15.444       27.051       10.858      238.517      731.732      117.899        0.093        0.054       27.274       12.228        0.201      340.934       15.297      864.415
08/05/2014  07:36:00      -10.917       12.991       10.285       16.149       14.444       11.844      260.780      208.616      140.273        0.050        0.030       16.969       11.516        0.461      340.937       15.301      864.425
08/05/2014  07:37:00      -14.869        2.776        9.357       18.108       10.745        9.437      327.891      115.456       89.048        0.042        0.027       15.126       11.206        0.549      340.936       15.300      864.434
08/05/2014  07:38:00       37.814       33.423       23.348       17.525       23.241       25.365      307.111      540.142      643.398        0.229        0.075       50.468       21.434        0.180      340.906       15.249      864.439
08/05/2014  07:39:00       50.060       33.960       -4.000       22.515       20.290       18.635      506.903      411.702      347.259        0.247        0.063       60.492        9.684        0.026      340.859       15.167      864.445
08/05/2014  07:40:00       61.695       20.174       -0.195       30.994       29.515       21.464      960.655      871.130      460.710        0.325        0.115       64.909       17.559        0.073      340.898       15.236      864.444
08/05/2014  07:41:00       62.186       18.711        5.563       33.818       18.666       20.295     1143.671      348.438      411.889        0.308        0.095       64.940       19.484        0.090      340.893       15.228      864.453
08/05/2014  07:42:00       49.862       20.405        6.399       30.887       18.150       18.825      954.036      329.418      354.363        0.229        0.082       53.876       15.317        0.081      340.902       15.244      864.457
08/05/2014  07:43:00       54.222       34.839        5.010       19.559       21.017       13.640      382.568      441.717      186.038        0.259        0.051       64.450        5.964        0.009      340.906       15.248      864.465
08/05/2014  07:44:00       54.103       13.919        8.716       43.798       29.153       23.372     1918.295      849.898      546.267        0.325        0.166       55.864        5.782        0.011      340.929       15.289      864.469
08/05/2014  07:45:00       42.465       25.047        3.724       39.161       27.887       17.807     1533.604      777.672      317.096        0.254        0.131       49.301       13.456        0.074      340.942       15.310      864.479
08/05/2014  07:46:00       75.231       31.399        2.422       26.302       22.588       18.252      691.802      510.221      333.133        0.409        0.077       81.520        7.263        0.008      340.931       15.293      864.481
08/05/2014  07:47:00       60.230       34.104        9.099       24.769       26.949       20.698      613.496      726.261      428.416        0.332        0.088       69.215        6.432        0.009      340.949       15.324      864.481
08/05/2014  07:48:00       70.110       59.700        8.063       25.865       21.057       16.735      668.999      443.408      280.077        0.497        0.070       92.085       13.126        0.020      340.925       15.285      864.480
08/05/2014  07:49:00       58.668       55.824       -0.110       28.043       27.644       26.360      786.426      764.177      694.825        0.440        0.112       80.983       23.574        0.085      340.950       15.324      864.481
08/05/2014  07:50:00       42.300       51.684        7.599       25.143       22.212       20.663      632.172      493.386      426.956        0.304        0.078       66.787       10.154        0.023      340.944       15.314      864.478
08/05/2014  07:51:00       25.796       19.598        4.215       19.496       13.956       17.193      380.085      194.761      295.589        0.097        0.044       32.396       10.957        0.114      340.980       15.376      864.477
08/05/2014  07:52:00       61.337       36.843       11.885       19.709       17.669       15.791      388.464      312.201      249.366        0.311        0.048       71.552        8.736        0.015      341.012       15.430      864.475
08/05/2014  07:53:00       59.257       51.994       22.956       18.359       11.211       16.041      337.068      125.697      257.318        0.373        0.036       78.834        4.787        0.004      340.972       15.360      864.477
08/05/2014  07:54:00       35.673       30.234       19.336        9.182       10.497       12.927       84.313      110.178      167.105        0.146        0.018       46.762        7.979        0.029      340.973       15.361      864.480
08/05/2014  07:55:00       37.363       38.623       11.279       23.610       14.385       16.648      557.452      206.927      277.140        0.203        0.052       53.738       13.571        0.064      340.985       15.385      864.486
08/05/2014  07:56:00        8.038       20.897       10.383       14.451       20.776       15.613      208.830      431.645      243.755        0.075        0.044       22.390        8.168        0.133      341.073       15.533      864.493
08/05/2014  07:57:00        6.904       41.366       -3.580       11.695       10.457       11.729      136.781      109.359      137.576        0.108        0.019       41.938        8.159        0.038      341.053       15.503      864.505
08/05/2014  07:58:00      -14.409       21.802       -8.252        6.758        9.128        5.972       45.666       83.324       35.666        0.046        0.008       26.133        4.042        0.024      341.067       15.524      864.518
08/05/2014  07:59:00      -32.286       -5.220        4.268       21.801       20.119       14.053      475.289      404.786      197.490        0.108        0.054       32.705       13.670        0.175      341.150       15.665      864.528
08/05/2014  08:00:00      -55.227      -29.658      -10.914       18.661       14.104       10.833      348.244      198.930      117.360        0.236        0.033       62.686        5.830        0.009      341.051       15.495      864.547
08/05/2014  08:01:00       -8.979      -19.361        7.622       13.731       15.649       13.110      188.541      244.879      171.875        0.056        0.030       21.342        8.163        0.146      341.174       15.704      864.551
08/05/2014  08:02:00      -28.588      -17.701       -2.294       22.400       18.825       11.087      501.767      354.383      122.923        0.106        0.049       33.624        4.750        0.020      341.087       15.557      864.556
08/05/2014  08:03:00      -32.317       -5.863        1.393       17.903       11.608       11.275      320.520      134.738      127.133        0.083        0.029       32.844       10.884        0.110      341.147       15.658      864.572
08/05/2014  08:04:00      -22.312       -6.988        0.820       18.927        9.442       10.254      358.217       89.159      105.146        0.055        0.028       23.380        4.825        0.043      341.156       15.674      864.582
08/05/2014  08:05:00      -17.663      -21.542        2.905       16.896       12.517       11.189      285.472      156.669      125.184        0.068        0.028       27.858        9.742        0.122      341.239       15.814      864.569
08/05/2014  08:06:00      -31.150       -6.826        2.958       22.166       14.877       14.466      491.317      221.311      209.262        0.097        0.046       31.889       12.622        0.157      341.243       15.821      864.567
08/05/2014  08:07:00      -25.326      -17.705        3.049       27.960       18.047       12.543      781.755      325.678      157.317        0.111        0.063       30.901       13.684        0.196      341.288       15.897      864.571
08/05/2014  08:08:00      -19.059      -21.024        4.071       22.302       18.797       11.295      497.376      353.318      127.584        0.090        0.049       28.377       12.537        0.195      341.309       15.932      864.570
08/05/2014  08:09:00      -33.829      -19.428       -1.465       13.914       17.820        7.925      193.609      317.540       62.802        0.105        0.029       39.011        6.041        0.024      341.159       15.677      864.568
08/05/2014  08:10:00      -10.863      -38.131        0.897       15.859       17.252       11.721      251.509      297.636      137.376        0.113        0.034       39.648        5.874        0.022      341.244       15.823      864.567
08/05/2014  08:11:00      -17.105      -17.254        0.443       17.093       17.513       10.640      292.165      306.694      113.215        0.065        0.036       24.296        8.868        0.133      341.309       15.933      864.560
08/05/2014  08:12:00        0.317        0.528       15.546        6.223        3.578        4.200       38.721       12.799       17.642        0.016        0.003        0.615        3.554       33.359      341.526       16.299      864.571
08/05/2014  08:13:00      -23.243        5.833        5.241       21.448        8.499        9.355      460.007       72.231       87.521        0.061        0.031       23.963        8.543        0.127      341.262       15.852      864.576
08/05/2014  08:14:00      -53.542        7.218       -2.722       17.760       16.537       14.007      315.434      273.483      196.204        0.186        0.039       54.027       11.960        0.049      341.139       15.644      864.575
08/05/2014  08:15:00      -55.710       14.618       -0.550       21.301       11.607        8.712      453.714      134.724       75.898        0.199        0.033       57.596        9.430        0.027      341.196       15.742      864.574
08/05/2014  08:16:00      -44.999       11.967       -6.496       16.541       20.175        8.593      273.619      407.025       73.847        0.148        0.038       46.563        7.520        0.026      341.232       15.803      864.575
08/05/2014  08:17:00      -32.842        6.484       -1.266       21.403       16.692       11.385      458.074      278.636      129.630        0.099        0.043       33.476       11.572        0.119      341.216       15.775      864.560
08/05/2014  08:18:00      -57.320        9.169       -6.682       20.741       17.003       11.314      430.185      289.089      128.007        0.213        0.042       58.049        6.070        0.011      341.182       15.719      864.555
08/05/2014  08:19:00      -21.763       -8.295       -3.749       25.253       15.754       10.191      637.697      248.204      103.856        0.077        0.049       23.291       12.382        0.283      341.229       15.798      864.546
08/05/2014  08:20:00      -28.145       -5.263       -1.698       21.009       13.553       10.715      441.363      183.684      114.812        0.078        0.037       28.633        5.645        0.039      341.296       15.911      864.532
08/05/2014  08:21:00      -77.330      -37.336        0.261       20.114       22.207       18.402      404.576      493.152      338.634        0.430        0.062       85.872       10.683        0.015      341.185       15.724      864.520
08/05/2014  08:22:00      -19.602      -24.276       10.306       28.752       26.129       17.157      826.657      682.721      294.355        0.144        0.090       31.202       15.905        0.260      341.301       15.918      864.513
08/05/2014  08:23:00      -28.197      -49.904        1.869       18.171       14.438       16.680      330.193      208.458      278.237        0.205        0.041       57.319       10.208        0.032      341.250       15.833      864.500
08/05/2014  08:24:00      -14.320      -18.615       11.023       21.862       30.948       17.019      477.957      957.749      289.654        0.120        0.086       23.486       20.865        0.789      341.426       16.132      864.493
08/05/2014  08:25:00      -46.061      -12.537       -1.039       32.640       20.810       13.076     1065.393      433.051      170.980        0.197        0.083       47.737       19.612        0.169      341.241       15.818      864.483
08/05/2014  08:26:00      -55.240      -21.324       -6.472       11.857        9.211        8.521      140.588       84.850       72.614        0.192        0.015       59.213        6.104        0.011      341.233       15.803      864.486
08/05/2014  08:27:00      -28.470      -27.254       -7.818       15.962       18.710       12.443      254.778      350.078      154.834        0.119        0.038       39.412       10.991        0.078      341.230       15.799      864.486
08/05/2014  08:28:00      -43.291      -31.710       -6.017       18.661       14.726       12.668      348.215      216.868      160.476        0.182        0.036       53.662       10.017        0.035      341.186       15.723      864.488
08/05/2014  08:29:00      -11.679       -3.768       -0.139       15.273       17.252       10.617      233.274      297.625      112.729        0.040        0.032       12.272       11.490        0.877      341.223       15.786      864.497
08/05/2014  08:30:00      -51.645       14.622       -4.299       14.469       11.293        9.263      209.356      127.526       85.801        0.166        0.021       53.675        7.154        0.018      341.208       15.761      864.507
08/05/2014  08:31:00      -41.975       24.446       -4.410       15.607        9.324       13.073      243.576       86.931      170.902        0.144        0.025       48.575       11.398        0.055      341.236       15.809      864.511
08/05/2014  08:32:00        0.337       35.624        0.668       11.389       29.095       11.599      129.719      846.525      134.529        0.119        0.056       35.625       15.564        0.191      341.342       15.988      864.520
08/05/2014  08:33:00        7.043       67.116       -6.188        9.779       13.714        9.963       95.624      188.087       99.258        0.249        0.019       67.484        6.052        0.008      341.216       15.777      864.528
08/05/2014  08:34:00       27.564       59.577       -0.929       26.828       28.349       18.868      719.745      803.655      355.989        0.309        0.094       65.645       12.393        0.036      341.285       15.892      864.529
08/05/2014  08:35:00       23.143       63.851       -4.267       23.793       23.018       21.687      566.088      529.814      470.321        0.310        0.078       67.916       15.547        0.052      341.247       15.828      864.533
08/05/2014  08:36:00       18.693       68.445       -5.139       19.498       22.276       18.981      380.189      496.234      360.263        0.315        0.062       70.951       13.640        0.037      341.228       15.795      864.535
08/05/2014  08:37:00       20.731       34.532       -3.334       16.921       23.541       15.288      286.311      554.184      233.721        0.135        0.054       40.277       10.678        0.070      341.257       15.845      864.540
08/05/2014  08:38:00       54.690       30.929        5.162       40.759       32.407       18.383     1661.289     1050.230      337.936        0.351        0.152       62.830       12.086        0.037      341.275       15.874      864.531
08/05/2014  08:39:00       44.294       12.990       17.267       30.255       23.904       30.093      915.389      571.411      905.570        0.241        0.120       46.159       18.090        0.154      341.315       15.942      864.529
08/05/2014  08:40:00       79.099       40.365       11.973       28.072       25.251       22.089      788.010      637.604      487.910        0.497        0.096       88.803       17.318        0.038      341.258       15.845      864.526
08/05/2014  08:41:00       61.887       69.131       53.614       37.095       25.391       24.123     1376.020      644.686      581.903        0.704        0.130       92.785       14.615        0.025      341.337       15.980      864.526
08/05/2014  08:42:00       26.884       52.725       58.522       30.214       28.784       16.470      912.911      828.537      271.276        0.447        0.101       59.183        6.167        0.011      341.452       16.173      864.527
08/05/2014  08:43:00       12.407       53.589       52.967       24.585       28.497       14.418      604.412      812.066      207.891        0.373        0.081       55.007        8.950        0.026      341.542       16.327      864.527
08/05/2014  08:44:00       33.451       59.313       23.224       25.168       25.539       28.473      633.413      652.233      810.715        0.364        0.105       68.095       20.767        0.093      341.400       16.085      864.529
08/05/2014  08:45:00       22.569       61.268       -1.331       23.545       32.190       19.369      554.372     1036.167      375.170        0.311        0.098       65.293       18.727        0.082      341.279       15.880      864.531
08/05/2014  08:46:00       26.761      100.710      -10.993       11.165       16.610       13.187      124.652      275.908      173.891        0.578        0.029      104.204       10.500        0.010      341.230       15.800      864.539
08/05/2014  08:47:00       23.683       63.051       -2.089       18.693       26.846       24.021      349.422      720.689      576.999        0.309        0.082       67.352       15.952        0.056      341.294       15.908      864.534
08/05/2014  08:48:00       16.793       60.804       -7.211       10.397       16.587        9.888      108.089      275.134       97.780        0.226        0.024       63.080        9.701        0.024      341.241       15.821      864.541
08/05/2014  08:49:00       35.750       38.362        2.655       20.356       18.489       18.788      414.349      341.854      352.984        0.193        0.055       52.438       16.332        0.097      341.279       15.882      864.537
08/05/2014  08:50:00       72.322       27.372        7.112       28.420       17.052       15.044      807.673      290.762      226.315        0.368        0.066       77.328        8.747        0.013      341.290       15.899      864.543
08/05/2014  08:51:00       62.766       38.282        2.257       21.260       19.629       18.890      451.984      385.293      356.833        0.330        0.060       73.519        9.906        0.018      341.267       15.862      864.544
08/05/2014  08:52:00       65.179       31.840        9.821       38.349       24.702       24.469     1470.622      610.189      598.728        0.402        0.134       72.540       17.483        0.058      341.294       15.908      864.542
08/05/2014  08:53:00       96.725       52.910       -3.430       23.703       22.441       18.725      561.810      503.577      350.641        0.679        0.071      110.250       12.509        0.013      341.289       15.898      864.542
08/05/2014  08:54:00       89.579       58.126        5.163       22.822       28.494       21.574      520.829      811.895      465.420        0.661        0.090      106.785       14.396        0.018      341.242       15.818      864.550
08/05/2014  08:55:00       42.444       28.757        8.574       29.145       18.466       18.853      849.456      340.994      355.446        0.212        0.077       51.268       18.474        0.130      341.264       15.856      864.547
08/05/2014  08:56:00       84.526       35.101        7.198       40.963       28.702       23.466     1677.995      823.828      550.669        0.574        0.153       91.524       18.852        0.042      341.309       15.932      864.556
08/05/2014  08:57:00       75.803       37.996       -2.385       28.394       28.526       21.990      806.236      813.751      483.572        0.465        0.105       84.793       15.290        0.033      341.321       15.953      864.549
08/05/2014  08:58:00      106.643       73.197       -3.150       14.070       16.531       16.014      197.977      273.270      256.441        0.873        0.036      129.346        8.797        0.005      341.237       15.812      864.560
08/05/2014  08:59:00       75.641       59.516       -3.770       35.003       24.101       18.626     1225.208      580.872      346.919        0.571        0.108       96.248        8.917        0.009      341.274       15.874      864.560
08/05/2014  09:00:00       62.695       61.226        8.349       30.305       12.881       20.597      918.423      165.931      424.217        0.463        0.075       87.632       16.769        0.037      341.272       15.869      864.567
08/05/2014  09:01:00       72.023       40.210        1.047       20.678       14.298       22.812      427.576      204.432      520.405        0.398        0.058       82.487       15.259        0.034      341.316       15.944      864.583
08/05/2014  09:02:00       56.519       41.913       -1.170       29.668       22.308       18.719      880.177      497.639      350.413        0.334        0.086       70.364       12.404        0.031      341.397       16.080      864.581
08/05/2014  09:03:00       90.004       56.854       15.350       19.426       20.258       18.094      377.367      410.401      327.407        0.634        0.056      106.457       12.744        0.014      341.327       15.963      864.594
08/05/2014  09:04:00       44.333       24.011       18.634       31.961       26.213       19.229     1021.527      687.107      369.758        0.248        0.104       50.418       20.797        0.170      341.354       16.008      864.611
08/05/2014  09:05:00       51.880       28.248       -2.212       27.181       19.036       17.585      738.815      362.375      309.232        0.245        0.071       59.072        6.911        0.014      341.382       16.057      864.621
08/05/2014  09:06:00       53.436       33.560        5.428       37.358       19.478       23.505     1395.647      379.388      552.480        0.317        0.116       63.101        8.991        0.020      341.439       16.151      864.638
08/05/2014  09:07:00       87.482       52.777       10.670       32.238       17.531       23.631     1039.313      307.346      558.435        0.623        0.095      102.169       19.854        0.038      341.325       15.958      864.649
08/05/2014  09:08:00       41.959       33.127       -9.325       16.392       18.815       13.192      268.696      353.989      174.037        0.187        0.040       53.459       11.676        0.048      341.295       15.911      864.651
08/05/2014  09:09:00       27.692       27.557        0.229       14.847       14.761       14.745      220.426      217.885      217.410        0.109        0.033       39.067       12.500        0.102      341.362       16.023      864.661
08/05/2014  09:10:00       12.113       22.225       -0.968       11.582       12.766       11.491      134.145      162.983      132.048        0.054        0.021       25.312        5.425        0.046      341.363       16.022      864.668
08/05/2014  09:11:00       -3.972       57.101      -10.205       12.117       27.202        6.612      146.819      739.967       43.721        0.216        0.047       57.239        6.521        0.013      341.363       16.025      864.675
08/05/2014  09:12:00       10.738       57.302       -7.214       17.784       21.312        9.922      316.258      454.212       98.453        0.216        0.043       58.300        5.130        0.008      341.436       16.146      864.682
08/05/2014  09:13:00       35.138       83.886       -7.232       26.466       22.419       18.731      700.448      502.590      350.853        0.494        0.078       90.948       13.356        0.022      341.446       16.164      864.680
08/05/2014  09:14:00       40.290       44.365        3.090       22.719       29.742       19.707      516.171      884.587      388.383        0.269        0.089       59.929       13.956        0.054      341.476       16.215      864.680
08/05/2014  09:15:00       60.428       77.045        3.778       39.067       33.739       24.542     1526.258     1138.327      602.288        0.643        0.163       97.915       21.774        0.049      341.501       16.257      864.684
08/05/2014  09:16:00       48.907       94.078       -6.701       34.198       42.810       27.443     1169.470     1832.717      753.128        0.752        0.188      106.031       25.236        0.057      341.478       16.218      864.682
08/05/2014  09:17:00        6.279       62.452      -15.329       28.852       19.250       14.436      832.410      370.579      208.388        0.279        0.071       62.767       11.688        0.035      341.470       16.205      864.674
08/05/2014  09:18:00       -2.691       64.547       -5.214       15.935       19.656       15.555      253.927      386.366      241.963        0.254        0.044       64.603       10.942        0.029      341.462       16.194      864.684
08/05/2014  09:19:00       -1.837       46.147       -9.381       12.124       16.431        9.765      146.984      269.969       95.346        0.137        0.026       46.183        7.106        0.024      341.493       16.243      864.677
08/05/2014  09:20:00      -25.284       63.269       -8.103       23.644       43.286       18.700      559.023     1873.710      349.703        0.374        0.139       68.134       14.564        0.046      341.651       16.512      864.679
08/05/2014  09:21:00      -27.915        3.596        5.414       26.788       15.800       11.298      717.615      249.636      127.646        0.096        0.055       28.146       11.795        0.176      341.694       16.585      864.691
08/05/2014  09:22:00        9.750       50.971       -6.732       15.383       30.998       13.629      236.624      960.847      185.742        0.206        0.069       51.895       12.741        0.060      341.668       16.543      864.683
08/05/2014  09:23:00       23.428       81.103      -14.675       26.222       33.762       20.200      687.578     1139.839      408.030        0.479        0.112       84.419       18.733        0.049      341.585       16.399      864.694
08/05/2014  09:24:00       35.346       36.893        2.914       42.757       25.364       22.546     1828.146      643.333      508.302        0.280        0.149       51.092       16.549        0.105      341.643       16.497      864.698
08/05/2014  09:25:00       -0.103       93.330       -6.319       29.612       52.285       26.391      876.859     2733.757      696.468        0.653        0.215       93.330       25.965        0.077      341.657       16.520      864.707
08/05/2014  09:26:00      -45.460       60.590       -0.289       64.015       41.014       29.209     4097.968     1682.175      853.148        0.618        0.332       75.748       32.734        0.187      341.735       16.655      864.715
08/05/2014  09:27:00      -82.004       51.728      -11.299       46.563       28.088       18.521     2168.146      788.937      343.046        0.641        0.165       96.956       18.528        0.037      341.616       16.452      864.730
08/05/2014  09:28:00       -3.552      138.153       -6.292       30.235       48.032       24.936      914.133     2307.026      621.816        1.149        0.192      138.199       25.596        0.034      341.663       16.532      864.734
08/05/2014  09:29:00      -53.536       75.707       -5.488       36.130       45.940       28.322     1305.397     2110.483      802.145        0.642        0.211       92.724       21.711        0.055      341.669       16.542      864.747
08/05/2014  09:30:00      -84.873       75.884      -22.935       34.615       42.070       22.740     1198.226     1769.871      517.092        0.849        0.174      113.850       18.969        0.028      341.651       16.511      864.751
08/05/2014  09:31:00      -45.711       19.590        6.527       78.223       36.972       38.256     6118.854     1366.897     1463.497        0.573        0.447       49.732       40.964        0.678      341.693       16.585      864.750
08/05/2014  09:32:00      -44.759       53.742        0.329       57.355       55.768       31.868     3289.586     3110.068     1015.559        0.615        0.371       69.940       39.985        0.327      341.669       16.542      864.758
08/05/2014  09:33:00      -77.921       53.158       -3.963       62.447       49.558       28.971     3899.623     2455.957      839.313        0.805        0.360       94.326       31.612        0.112      341.662       16.531      864.762
08/05/2014  09:34:00     -108.103       91.484      -19.340       54.391       52.655       28.897     2958.350     2772.551      835.027        1.350        0.328      141.617       33.143        0.055      341.565       16.366      864.760
08/05/2014  09:35:00     -127.861      146.776      -40.559       36.757       52.905       30.494     1351.069     2798.911      929.879        2.231        0.254      194.658       25.717        0.017      341.559       16.353      864.770
08/05/2014  09:36:00      -99.785        9.836      -12.227       43.731       36.308       27.135     1912.407     1318.291      736.322        0.708        0.198      100.269       26.238        0.068      341.621       16.460      864.775
08/05/2014  09:37:00      -75.282       59.960       -5.168       46.724       35.132       31.633     2183.116     1234.281     1000.672        0.685        0.221       96.242       23.402        0.059      341.617       16.454      864.770
08/05/2014  09:38:00      -73.259       72.437      -11.115       36.915       35.636       26.779     1362.731     1269.902      717.115        0.704        0.167      103.024       16.804        0.027      341.623       16.464      864.774
08/05/2014  09:39:00      -55.234       31.254       -5.866       25.232       71.869       24.082      636.662     5165.168      579.962        0.522        0.319       63.464       38.628        0.370      341.631       16.478      864.772
08/05/2014  09:40:00      -52.755       54.180        7.547       44.317       47.024       28.734     1963.981     2211.275      825.639        0.539        0.250       75.621       23.967        0.100      341.697       16.591      864.769
08/05/2014  09:41:00      -47.288       73.245       -7.864       40.351       30.693       28.448     1628.183      942.076      809.313        0.552        0.169       87.184       12.249        0.020      341.691       16.581      864.770
08/05/2014  09:42:00       38.681       81.250       -1.177       42.106       35.354       33.370     1772.920     1249.917     1113.534        0.612        0.207       89.988       29.609        0.108      341.692       16.582      864.766
08/05/2014  09:43:00      -17.966      110.739       -8.926       38.961       33.078       22.531     1517.927     1094.173      507.630        0.789        0.156      112.187       13.852        0.015      341.703       16.600      864.759
08/05/2014  09:44:00      -49.906       69.773       -6.687       25.120       59.372       28.285      631.022     3524.995      800.029        0.618        0.248       85.784       30.564        0.127      341.789       16.745      864.740
08/05/2014  09:45:00       25.148       93.623      -12.639       26.353       43.897       25.196      694.455     1926.958      634.844        0.641        0.163       96.942       24.632        0.065      341.744       16.669      864.726
08/05/2014  09:46:00       -6.161       84.789      -10.823       31.134       58.400       22.102      969.355     3410.551      488.497        0.611        0.243       85.012       25.313        0.089      341.801       16.766      864.724
08/05/2014  09:47:00      -32.060       70.689       -9.585       35.214       39.452       18.693     1240.010     1556.479      349.416        0.463        0.157       77.619       14.646        0.036      341.823       16.803      864.714
08/05/2014  09:48:00        2.220      135.614      -13.528       32.632       34.723       27.672     1064.820     1205.683      765.735        1.081        0.152      135.632       16.449        0.015      341.669       16.544      864.703
08/05/2014  09:49:00      -32.727      174.938      -15.901       38.826       35.695       20.093     1507.421     1274.142      403.730        1.756        0.159      177.973       15.078        0.007      341.677       16.556      864.702
08/05/2014  09:50:00      -16.068      181.861      -12.562       40.756       46.402       19.970     1661.064     2153.187      398.782        1.885        0.211      182.570       18.635        0.010      341.646       16.502      864.703
08/05/2014  09:51:00       21.380      135.902      -17.924       31.623       54.875       27.440     1000.000     3011.243      752.941        1.201        0.238      137.574       31.516        0.052      341.683       16.565      864.704
08/05/2014  09:52:00        8.636      131.554      -20.727       26.680       30.848       15.971      711.831      951.603      255.082        0.986        0.096      131.837        8.947        0.005      341.700       16.594      864.703
08/05/2014  09:53:00       -5.651       86.965       -9.430       39.422       54.103       28.567     1554.108     2927.110      816.055        0.649        0.265       87.148       24.680        0.080      341.801       16.766      864.711
08/05/2014  09:54:00       71.601       71.154        5.143       37.171       47.107       32.294     1381.651     2219.081     1042.890        0.743        0.232      100.944       30.918        0.094      341.783       16.733      864.715
08/05/2014  09:55:00       59.410       33.658        0.883       31.451       27.421       22.653      989.182      751.928      513.166        0.346        0.113       68.282       15.945        0.055      341.815       16.789      864.725
08/05/2014  09:56:00       67.559       65.027       -3.729       31.130       33.313       24.505      969.061     1109.776      600.486        0.574        0.134       93.770       22.852        0.059      341.727       16.639      864.728
08/05/2014  09:57:00       16.744       28.588        5.550       25.688       25.123       22.220      659.891      631.178      493.737        0.146        0.089       33.131       15.500        0.219      341.814       16.788      864.734
08/05/2014  09:58:00       23.709       92.543       -5.145       28.009       40.142       32.255      784.524     1611.385     1040.376        0.629        0.172       95.532       26.884        0.079      341.726       16.637      864.755
08/05/2014  09:59:00       68.343       85.592       -3.971       41.860       36.734       27.220     1752.282     1349.380      740.905        0.793        0.192      109.530       20.907        0.036      341.717       16.623      864.764
08/05/2014  10:00:00       74.274       65.490       -4.851       55.795       41.420       37.378     3113.068     1715.595     1397.121        0.803        0.311       99.023       23.879        0.058      341.702       16.599      864.777
08/05/2014  10:01:00       64.263       87.436       -1.700       38.218       52.405       30.780     1460.610     2746.233      947.399        0.846        0.258      108.512       31.165        0.082      341.695       16.588      864.785
08/05/2014  10:02:00       23.090      113.861      -19.682       43.083       37.934       16.582     1856.132     1438.957      274.960        0.873        0.179      116.179       13.094        0.013      341.651       16.510      864.782
08/05/2014  10:03:00       41.290       11.277        3.961       16.531       28.609       15.587      273.289      818.472      242.969        0.159        0.067       42.802        9.931        0.054      341.666       16.537      864.790
08/05/2014  10:04:00       48.405       39.616       10.438       32.301       28.906       19.359     1043.378      835.559      374.758        0.314        0.113       62.550       10.460        0.028      341.789       16.746      864.800
08/05/2014  10:05:00       51.697       82.433      -10.701       58.950       42.645       31.985     3475.048     1818.620     1023.067        0.795        0.316       97.303       27.172        0.078      341.701       16.596      864.813
08/05/2014  10:06:00       56.735       68.358        4.223       52.201       49.355       31.992     2724.956     2435.927     1023.504        0.705        0.309       88.836       31.104        0.123      341.715       16.621      864.816
08/05/2014  10:07:00       71.146       54.039       -0.599       46.166       30.016       26.757     2131.327      900.940      715.929        0.586        0.187       89.342       12.697        0.020      341.687       16.573      864.823
08/05/2014  10:08:00       65.084       42.922        2.917       41.381       33.806       27.786     1712.376     1142.829      772.082        0.486        0.181       77.963       13.462        0.030      341.708       16.609      864.818
08/05/2014  10:09:00      145.130       75.944       18.954       44.924       52.005       36.948     2018.138     2704.496     1365.173        1.664        0.304      163.799       13.756        0.007      341.709       16.610      864.811
08/05/2014  10:10:00      129.560       72.941       -1.036       43.377       29.654       27.953     1881.579      879.378      781.348        1.282        0.177      148.681       18.548        0.016      341.672       16.546      864.810
08/05/2014  10:11:00       52.274       63.913       -2.749       44.936       27.699       24.575     2019.232      767.253      603.940        0.511        0.170       82.568       19.136        0.054      341.741       16.664      864.814
08/05/2014  10:12:00       25.939      147.523      -20.813       35.843       44.237       25.626     1284.701     1956.901      656.701        1.338        0.195      149.786       26.659        0.032      341.695       16.586      864.814
08/05/2014  10:13:00       63.529       87.659        3.412       62.793       46.030       31.516     3942.966     2118.784      993.238        0.939        0.353      108.259       35.302        0.106      341.694       16.583      864.812
08/05/2014  10:14:00      137.833       57.752        4.968       36.210       32.749       30.940     1311.166     1072.466      957.255        1.285        0.167      149.443       17.064        0.013      341.711       16.612      864.810
08/05/2014  10:15:00       94.462       51.005        0.927       43.198       29.998       28.834     1866.096      899.878      831.389        0.756        0.180      107.352       25.976        0.059      341.706       16.606      864.815
08/05/2014  10:16:00       64.015       43.270        2.919       34.186       31.195       25.075     1168.684      973.145      628.764        0.437        0.139       77.267       13.457        0.030      341.746       16.673      864.820
08/05/2014  10:17:00       25.303       69.344        3.110       31.444       41.434       28.997      988.704     1716.799      840.808        0.450        0.177       73.816       28.752        0.152      341.755       16.688      864.827
08/05/2014  10:18:00       72.574       37.529        3.227       35.750       31.908       23.155     1278.089     1018.105      536.149        0.476        0.142       81.703       11.227        0.019      341.754       16.685      864.826
08/05/2014  10:19:00       85.457       57.975       10.313       41.295       36.891       24.311     1705.285     1360.926      591.024        0.721        0.183      103.267       17.701        0.029      341.800       16.765      864.825
08/05/2014  10:20:00       81.008       61.338       32.903       55.366       28.644       32.403     3065.398      820.480     1049.980        0.817        0.247      101.610       33.920        0.111      341.825       16.807      864.822
08/05/2014  10:21:00       90.121       70.692        3.378       35.421       28.462       25.766     1254.623      810.075      663.899        0.793        0.136      114.539       17.432        0.023      341.779       16.730      864.825
08/05/2014  10:22:00       43.131       65.467       37.422       35.247       24.664       41.780     1242.324      608.323     1745.560        0.557        0.180       78.398       30.945        0.156      341.822       16.803      864.816
08/05/2014  10:23:00       44.373       75.094       65.577       38.336       31.186       25.112     1469.617      972.590      630.634        0.749        0.154       87.224       15.348        0.031      341.870       16.884      864.821
08/05/2014  10:24:00       71.934       42.931       18.557       31.259       35.812       26.362      977.151     1282.478      694.962        0.516        0.148       83.771       23.300        0.077      341.841       16.834      864.819
08/05/2014  10:25:00       36.928       21.141       -3.815       19.313       17.745       19.151      372.996      314.880      366.771        0.144        0.053       42.552       15.942        0.140      341.802       16.768      864.822
08/05/2014  10:26:00       33.383       31.195       17.883       28.527       16.145       21.412      813.769      260.671      458.488        0.197        0.077       45.690       12.542        0.075      341.856       16.860      864.827
08/05/2014  10:27:00       99.862       48.275       13.097       41.584       26.815       24.301     1729.232      719.064      590.526        0.776        0.152      110.919       13.945        0.016      341.830       16.814      864.841
08/05/2014  10:28:00       93.647       47.412        7.162       70.105       34.541       36.110     4914.702     1193.050     1303.915        0.924        0.371      104.965       24.795        0.056      341.837       16.827      864.844
08/05/2014  10:29:00       84.106       50.682        3.567       21.639       18.638       19.142      468.255      347.381      366.419        0.542        0.059       98.196        8.722        0.008      341.798       16.760      864.849
08/05/2014  10:30:00       32.315       22.948        3.950       27.894       17.918       15.034      778.051      321.056      226.027        0.146        0.066       39.634        7.779        0.039      341.897       16.928      864.852
08/05/2014  10:31:00       48.400       19.630        3.358       19.028       14.184       17.819      362.064      201.184      317.506        0.181        0.044       52.230        6.734        0.017      341.857       16.861      864.858
08/05/2014  10:32:00       51.493       42.047       36.526       42.235       32.672       35.338     1783.785     1067.436     1248.787        0.493        0.205       66.480       27.780        0.175      341.944       17.007      864.856
08/05/2014  10:33:00       60.750       58.241       29.205       26.600       18.032       23.407      707.579      325.156      547.881        0.476        0.079       84.158       12.499        0.022      341.863       16.871      864.856
08/05/2014  10:34:00        8.387       42.848       23.277       29.295       25.695       20.740      858.224      660.252      430.166        0.220        0.097       43.661       14.482        0.110      341.951       17.020      864.861
08/05/2014  10:35:00      -28.381        5.315        3.287       27.344       32.743       19.401      747.699     1072.127      376.391        0.152        0.110       28.875       15.925        0.304      341.934       16.992      864.861
08/05/2014  10:36:00      -26.076      -35.578       12.093       29.193       31.173       17.792      852.217      971.754      316.547        0.212        0.107       44.111       17.650        0.160      342.079       17.238      864.864
08/05/2014  10:37:00        1.177      -35.652        8.643       16.921       21.359       20.811      286.330      456.193      433.099        0.126        0.059       35.671       12.367        0.120      342.023       17.143      864.869
08/05/2014  10:38:00        9.994       12.427       17.443       15.511       20.851       14.088      240.600      434.746      198.462        0.072        0.044       15.948       12.564        0.621      342.074       17.229      864.873
08/05/2014  10:39:00       24.508       32.971       33.953       28.526       26.716       23.604      813.727      713.734      557.126        0.246        0.104       41.082       20.910        0.259      341.999       17.103      864.878
08/05/2014  10:40:00        6.027       17.277      -13.031       30.156       18.790       11.724      909.383      353.070      137.449        0.095        0.070       18.298       17.161        0.880      341.872       16.885      864.880
08/05/2014  10:41:00      -23.734        8.258       -3.844       15.732       12.014       11.032      247.494      144.326      121.712        0.058        0.026       25.130        9.297        0.137      341.942       17.005      864.890
08/05/2014  10:42:00      -30.010       -1.873        0.704       20.857       12.714       10.515      434.996      161.652      110.558        0.081        0.035       30.068        6.125        0.041      342.036       17.166      864.892
08/05/2014  10:43:00      -39.387      -14.140        0.361       11.267       10.600       10.254      126.936      112.352      105.150        0.105        0.017       41.848        7.079        0.029      342.003       17.108      864.895
08/05/2014  10:44:00      -26.928       -6.762        4.117       10.849       13.760       11.393      117.697      189.324      129.797        0.061        0.022       27.764       10.766        0.150      342.017       17.133      864.895
08/05/2014  10:45:00      -11.100       -3.919        3.666       15.679       18.654       12.486      245.827      347.989      155.894        0.045        0.037       11.772       10.470        0.791      342.048       17.186      864.901
08/05/2014  10:46:00      -13.534       -7.489       -5.184       18.599       19.698       15.339      345.932      387.994      235.272        0.062        0.048       15.468       11.091        0.514      342.113       17.295      864.908
08/05/2014  10:47:00        0.287      -30.417       -3.872       20.696       22.810       18.053      428.339      520.309      325.896        0.111        0.064       30.418       16.796        0.305      342.095       17.266      864.925
08/05/2014  10:48:00      -46.350      -28.208        4.508       25.076       18.279       14.934      628.791      334.125      223.022        0.207        0.059       54.259       12.622        0.054      341.952       17.022      864.941
08/05/2014  10:49:00      -54.958      -33.509        0.886       32.265       23.986       17.936     1041.046      575.332      321.689        0.304        0.097       64.368       10.113        0.025      341.912       16.953      864.956
08/05/2014  10:50:00      -46.919      -64.980       -3.300       29.199       22.369       16.503      852.569      500.385      272.349        0.403        0.081       80.149       12.602        0.025      341.862       16.870      864.971
08/05/2014  10:51:00      -63.429      -79.697       -7.088       20.094       16.308       12.553      403.749      265.955      157.582        0.563        0.041      101.857        7.370        0.005      341.776       16.726      864.987
08/05/2014  10:52:00     -104.012      -45.976       -7.749       36.069       22.574       14.558     1300.995      509.591      211.939        0.751        0.101      113.720        8.834        0.006      341.759       16.696      864.993
08/05/2014  10:53:00     -126.425       -4.105      -12.108       17.602       15.947       10.561      309.830      254.296      111.536        0.841        0.034      126.492        6.668        0.003      341.720       16.628      865.001
08/05/2014  10:54:00      -38.958      -32.537       15.434       46.394       38.284       23.426     2152.395     1465.678      548.755        0.349        0.208       50.758       27.575        0.295      341.879       16.898      865.018
08/05/2014  10:55:00      -60.064      -48.192       -0.027       33.180       21.943       15.084     1100.943      481.495      227.538        0.387        0.090       77.008       14.923        0.038      341.816       16.793      865.027
08/05/2014  10:56:00      -49.603       -9.946        2.389       27.277       28.899       20.701      744.043      835.154      428.551        0.229        0.100       50.590       15.512        0.094      341.905       16.943      865.039
08/05/2014  10:57:00     -120.035       37.753      -10.128       41.701       39.165       25.065     1738.932     1533.869      628.242        0.992        0.195      125.832       16.898        0.018      341.811       16.784      865.049
08/05/2014  10:58:00     -126.117      -71.763       -9.422       47.423       36.798       19.853     2248.949     1354.110      394.139        1.257        0.200      145.105       18.508        0.016      341.759       16.694      865.050
08/05/2014  10:59:00      -87.083      -62.239       -4.340       70.341       37.708       25.700     4947.904     1421.856      660.481        0.925        0.352      107.038       28.846        0.073      341.849       16.849      865.045
08/05/2014  11:00:00      -93.678      -50.956        4.654       59.308       42.910       26.859     3517.422     1841.233      721.400        0.874        0.304      106.640       26.124        0.060      341.824       16.804      865.048
08/05/2014  11:01:00     -120.542      -65.123        3.062       35.950       31.675       23.482     1292.374     1003.280      551.391        1.081        0.142      137.008       18.400        0.018      341.780       16.730      865.049
08/05/2014  11:02:00     -128.002      -72.642       -3.925       43.094       29.688       20.688     1857.114      881.364      427.978        1.242        0.158      147.178       20.198        0.019      341.753       16.683      865.043
08/05/2014  11:03:00     -108.266      -78.408      -10.522       60.095       52.249       27.325     3611.452     2729.984      746.640        1.253        0.354      133.677       26.928        0.041      341.715       16.619      865.042
08/05/2014  11:04:00      -85.208      -75.732       -1.628       45.323       46.308       26.497     2054.190     2144.458      702.098        0.895        0.245      113.999       28.397        0.062      341.737       16.659      865.043
08/05/2014  11:05:00      -85.220      -54.337        1.849       46.072       38.719       24.849     2122.630     1499.146      617.465        0.723        0.212      101.069       21.594        0.046      341.790       16.748      865.045
08/05/2014  11:06:00     -147.414      -42.001       -9.802       30.263       39.354       19.362      915.860     1548.751      374.896        1.321        0.142      153.280       16.690        0.012      341.689       16.577      865.048
08/05/2014  11:07:00      -84.691      -37.094       -3.269       39.935       48.380       21.812     1594.788     2340.614      475.747        0.648        0.221       92.458       19.566        0.045      341.766       16.708      865.048
08/05/2014  11:08:00     -102.110      -19.900       -3.333       37.320       34.394       20.511     1392.802     1182.952      420.704        0.691        0.150      104.031       16.970        0.027      341.710       16.612      865.048
08/05/2014  11:09:00     -103.547       -8.415       -8.046       27.966       25.150       21.017      782.089      632.508      441.714        0.636        0.093      103.888       17.164        0.027      341.683       16.567      865.053
08/05/2014  11:10:00      -90.629       23.761      -10.070       18.006       16.592       14.129      324.226      275.290      199.629        0.484        0.040       93.692        7.857        0.007      341.743       16.669      865.050
08/05/2014  11:11:00      -24.749      -13.947        8.274       41.084       22.025       19.527     1687.933      485.092      381.286        0.171        0.128       28.408       22.432        0.624      342.021       17.139      865.048
08/05/2014  11:12:00     -105.021      -56.526       -5.650       39.426       25.466       20.533     1554.415      648.513      421.597        0.844        0.131      119.266       21.106        0.031      341.776       16.724      865.044
08/05/2014  11:13:00     -142.549      -58.955       -4.634       36.120       33.528       18.318     1304.646     1124.120      335.544        1.329        0.138      154.259       11.989        0.006      341.659       16.524      865.052
08/05/2014  11:14:00     -136.824      -51.302       -0.751       29.265       20.584       16.933      856.420      423.704      286.738        1.146        0.078      146.126       16.216        0.012      341.665       16.535      865.065
08/05/2014  11:15:00     -113.823      -38.036       -0.055       28.830       31.303       14.761      831.188      979.867      217.884        0.822        0.101      120.010       13.497        0.013      341.739       16.660      865.065
08/05/2014  11:16:00      -55.595      -33.737        0.415       36.394       29.794       23.050     1324.515      887.689      531.285        0.349        0.137       65.031       20.948        0.104      341.913       16.956      865.074
08/05/2014  11:17:00      -75.663      -21.772       -3.074       47.504       19.852       14.019     2256.602      394.085      196.541        0.453        0.142       78.733       15.462        0.039      341.797       16.760      865.085
08/05/2014  11:18:00      -97.673      -26.637       -3.069       20.215       17.468       13.343      408.660      305.136      178.024        0.558        0.045      101.240        8.719        0.007      341.769       16.711      865.094
08/05/2014  11:19:00      -48.168      -33.929       -5.760       28.623       15.320       14.225      819.265      234.700      202.364        0.238        0.063       58.918       12.079        0.042      341.828       16.811      865.091
08/05/2014  11:20:00      -77.203       -9.937       -6.026       17.272       14.297       16.315      298.336      204.392      266.195        0.343        0.038       77.840        6.981        0.008      341.843       16.837      865.089
08/05/2014  11:21:00      -62.916        5.238       -3.587       22.880       18.915       13.462      523.498      357.764      181.214        0.253        0.053       63.133       12.531        0.039      341.988       17.081      865.102
08/05/2014  11:22:00      -44.977       21.381       -8.780       16.786       12.728       10.310      281.786      162.011      106.296        0.155        0.028       49.800        7.518        0.023      341.835       16.825      865.105
08/05/2014  11:23:00      -50.925       -1.657       -3.449       17.075        6.591        7.678      291.540       43.436       58.955        0.150        0.020       50.952        4.535        0.008      341.813       16.785      865.102
08/05/2014  11:24:00       -9.402       10.359       11.197       16.440       11.105       15.305      270.277      123.321      234.235        0.047        0.031       13.990       14.211        1.032      342.087       17.251      865.110
08/05/2014  11:25:00       50.345       21.482       10.312       14.785       15.576       21.736      218.603      242.621      472.463        0.202        0.047       54.737        9.812        0.032      341.861       16.867      865.126
08/05/2014  11:26:00       15.701        5.895        2.319       21.126       11.255       10.289      446.327      126.669      105.867        0.048        0.034       16.771        7.991        0.227      341.989       17.085      865.129
08/05/2014  11:27:00      -26.540        3.646       -0.381       10.541       10.306        7.865      111.117      106.217       61.855        0.050        0.014       26.789        4.550        0.029      341.930       16.985      865.132
08/05/2014  11:28:00      -19.032       26.991       16.805       19.784       20.164       15.170      391.397      406.568      230.126        0.120        0.051       33.026        8.514        0.066      342.078       17.237      865.149
08/05/2014  11:29:00        5.873       48.998       25.454       27.585       18.016       23.304      760.949      324.590      543.096        0.236        0.081       49.348       20.559        0.174      342.177       17.404      865.143
08/05/2014  11:30:00       11.091       19.444       13.013       20.756       25.786       21.203      430.821      664.913      449.587        0.111        0.077       22.385       20.158        0.811      342.253       17.533      865.148
08/05/2014  11:31:00       38.447       56.191        0.616       23.919       26.913       20.953      572.115      724.301      439.008        0.319        0.087       68.085       17.866        0.069      342.040       17.172      865.154
08/05/2014  11:32:00       -4.934       62.074        4.224       22.663       44.511       15.511      513.604     1981.196      240.606        0.331        0.137       62.270       16.631        0.071      342.106       17.284      865.145
08/05/2014  11:33:00      -13.860       56.155        3.738       11.852       24.369       15.113      140.472      593.826      228.412        0.216        0.048       57.840       11.941        0.043      342.145       17.350      865.149
08/05/2014  11:34:00      -11.116       69.815       -7.784       14.222       18.942       13.356      202.253      358.793      178.370        0.290        0.037       70.694        7.191        0.010      342.049       17.186      865.155
08/05/2014  11:35:00      -15.583       61.306       -7.313       11.067       19.882       10.443      122.474      395.290      109.064        0.234        0.031       63.255        9.349        0.022      342.014       17.127      865.147
08/05/2014  11:36:00      -30.125       37.990        6.627       33.511       17.845       17.917     1122.977      318.433      321.008        0.208        0.088       48.485       12.259        0.064      342.207       17.457      865.157
08/05/2014  11:37:00      -83.886       11.929       -9.264       21.921       26.572       12.915      480.533      706.050      166.805        0.431        0.068       84.730        6.924        0.007      342.019       17.138      865.166
08/05/2014  11:38:00      -85.245        1.002       -7.667       18.474       17.668       16.249      341.276      312.149      264.020        0.412        0.046       85.251       13.647        0.026      342.063       17.211      865.153
08/05/2014  11:39:00      -49.202        1.568       -3.062       31.168       13.257       12.665      971.468      175.737      160.396        0.187        0.065       49.227       13.195        0.072      342.156       17.368      865.155
08/05/2014  11:40:00      -70.926       14.109      -14.193       11.174        9.169       14.853      124.856       84.067      220.612        0.293        0.021       72.316        7.923        0.012      341.990       17.084      865.158
08/05/2014  11:41:00      -79.015       -9.389       -3.547       21.050       22.308       17.290      443.115      497.662      298.934        0.379        0.062       79.571       11.396        0.021      342.074       17.231      865.156
08/05/2014  11:42:00      -69.912        3.699      -12.811       24.755       17.124       15.324      612.787      293.246      234.834        0.310        0.057       70.010       14.714        0.044      342.147       17.354      865.154
08/05/2014  11:43:00      -71.054        0.663      -11.917       22.876       13.713       15.170      523.308      188.039      230.131        0.307        0.047       71.057        7.199        0.010      342.051       17.191      865.160
08/05/2014  11:44:00      -61.022       -6.552       -5.081       24.192       15.737       12.757      585.248      247.661      162.748        0.239        0.050       61.372        9.398        0.023      342.103       17.278      865.148
08/05/2014  11:45:00      -36.863       -3.759        0.791       18.984       19.617       12.771      360.406      384.842      163.099        0.114        0.045       37.054       11.289        0.093      342.219       17.477      865.145
08/05/2014  11:46:00       -9.503       28.480        0.608       12.299       39.117       15.313      151.277     1530.164      234.497        0.141        0.096       30.024       19.608        0.426      342.282       17.583      865.146
08/05/2014  11:47:00        9.119       47.401       -1.817       16.212       30.439       17.643      262.831      926.561      311.269        0.192        0.075       48.270       18.528        0.147      342.193       17.430      865.127
08/05/2014  11:48:00      -21.644       26.623       14.184       21.179       29.028       15.327      448.538      842.609      234.932        0.145        0.076       34.311       13.120        0.146      342.342       17.684      865.129
08/05/2014  11:49:00        1.650       27.233        9.594       25.164       24.757       16.738      633.249      612.911      280.167        0.118        0.076       27.282       14.487        0.282      342.367       17.727      865.120
08/05/2014  11:50:00        3.899       22.964        2.992       14.765       27.378       26.360      218.019      749.529      694.843        0.111        0.083       23.292       22.328        0.919      342.384       17.756      865.114
08/05/2014  11:51:00       48.403       31.072       20.296       21.850       14.943       15.666      477.433      223.285      245.420        0.233        0.047       57.518        9.851        0.029      342.190       17.426      865.125
08/05/2014  11:52:00       47.665       25.080       19.655       24.995       23.817       25.077      624.757      567.236      628.849        0.255        0.091       53.861       19.553        0.132      342.219       17.477      865.131
08/05/2014  11:53:00       72.715       45.929       17.216       35.325       24.284       30.243     1247.888      589.733      914.669        0.522        0.138       86.006        9.215        0.011      342.226       17.486      865.136
08/05/2014  11:54:00       75.898       39.736       22.025       51.359       29.041       34.598     2637.795      843.363     1197.022        0.625        0.234       85.670       28.689        0.112      342.343       17.684      865.145
08/05/2014  11:55:00       35.991       36.754        6.641       31.120       21.762       20.875      968.429      473.571      435.762        0.228        0.094       51.441       12.439        0.058      342.351       17.700      865.145
08/05/2014  11:56:00       48.090       43.010       13.500       39.010       28.081       21.861     1521.775      788.527      477.893        0.357        0.139       64.518       15.810        0.060      342.343       17.687      865.146
08/05/2014  11:57:00       95.892       46.955        6.321       33.510       36.942       31.508     1122.901     1364.676      992.774        0.746        0.174      106.771       18.323        0.029      342.173       17.398      865.155
08/05/2014  11:58:00      102.492       42.256       11.026       45.324       36.447       32.096     2054.252     1328.408     1030.176        0.841        0.221      110.861       23.751        0.046      342.290       17.596      865.155
08/05/2014  11:59:00       92.163       49.760       -9.866       53.520       37.637       25.416     2864.427     1416.580      645.990        0.800        0.246      104.738       14.204        0.018      342.286       17.590      865.149
08/05/2014  12:00:00       35.140       66.087       -4.158       36.169       42.620       23.459     1308.174     1816.483      550.324        0.465        0.184       74.849       21.355        0.081      342.299       17.611      865.147
08/05/2014  12:01:00       37.672       59.011        6.944       28.610       21.654       25.741      818.538      468.914      662.598        0.345        0.098       70.011       18.050        0.066      342.255       17.535      865.136
08/05/2014  12:02:00       38.943      112.624        2.773       41.596       51.481       37.112     1730.201     2650.342     1377.279        0.998        0.288      119.167       31.070        0.068      342.226       17.488      865.143
08/05/2014  12:03:00       66.647       58.521        2.361       40.172       33.158       27.026     1613.814     1099.428      730.380        0.566        0.172       88.694       19.662        0.049      342.191       17.429      865.137
08/05/2014  12:04:00       96.320       61.715        3.991       23.754       26.084       23.993      564.238      680.362      575.670        0.746        0.091      114.395       13.700        0.014      342.112       17.294      865.130
08/05/2014  12:05:00       70.561       51.376       24.635       44.477       42.404       25.662     1978.184     1798.119      658.530        0.633        0.222       87.284       22.729        0.068      342.299       17.612      865.133
08/05/2014  12:06:00       39.845       30.386       10.727       25.033       19.471       19.609      626.664      379.122      384.524        0.201        0.070       50.109        9.447        0.036      342.447       17.864      865.125
08/05/2014  12:07:00        0.425      101.311      -13.758       29.702       35.812       15.565      882.236     1282.506      242.266        0.643        0.120      101.312       18.638        0.034      342.333       17.670      865.125
08/05/2014  12:08:00       61.942       68.875        3.085       43.073       34.131       27.533     1855.260     1164.952      758.067        0.618        0.189       92.631       17.989        0.038      342.398       17.780      865.125
08/05/2014  12:09:00       41.388       33.723        5.872       41.149       30.206       26.280     1693.200      912.388      690.616        0.309        0.165       53.387       20.749        0.151      342.313       17.635      865.120
08/05/2014  12:10:00       24.084       31.796        2.466       24.643       26.745       18.999      607.261      715.300      360.967        0.164        0.084       39.887       17.986        0.203      342.241       17.514      865.113
08/05/2014  12:11:00       19.794       22.944       -8.847       23.633       20.920       10.554      558.527      437.649      111.392        0.105        0.055       30.302        8.137        0.072      342.283       17.585      865.119
08/05/2014  12:12:00       32.032       34.355        3.301       23.973       27.703       21.072      574.714      767.434      444.040        0.200        0.089       46.971       14.500        0.095      342.383       17.754      865.131
08/05/2014  12:13:00        7.950      110.066      -11.963       38.542       51.188       32.908     1485.487     2620.224     1082.938        0.875        0.259      110.353       33.895        0.094      342.462       17.888      865.127
08/05/2014  12:14:00      -36.989      121.565      -14.535       34.885       51.153       31.155     1216.941     2616.669      970.620        1.058        0.240      127.068       32.918        0.067      342.408       17.798      865.141
08/05/2014  12:15:00        6.174      104.424       -6.926       25.510       49.583       29.948      650.745     2458.522      896.864        0.750        0.200      104.607       33.344        0.102      342.384       17.756      865.148
08/05/2014  12:16:00      -40.831       82.367      -14.767       32.921       32.763       16.047     1083.822     1073.419      257.497        0.554        0.121       91.932        6.999        0.006      342.172       17.395      865.136
08/05/2014  12:17:00      -44.835       83.512      -13.681       40.604       54.285       21.957     1648.711     2946.841      482.092        0.712        0.254       94.786       22.403        0.056      342.238       17.507      865.137
08/05/2014  12:18:00      -49.463       20.684       -3.043       29.599       29.615       18.368      876.119      877.058      337.379        0.249        0.105       53.614       14.776        0.076      342.244       17.518      865.138
08/05/2014  12:19:00      -52.896       32.092        1.347       50.839       28.154       26.315     2584.598      792.639      692.492        0.395        0.203       61.870       15.658        0.064      342.513       17.975      865.123
08/05/2014  12:20:00      -25.793       41.354        8.596       45.026       35.681       21.067     2027.324     1273.168      443.806        0.310        0.187       48.738       25.540        0.275      342.566       18.065      865.126
08/05/2014  12:21:00       49.524       77.232       -2.019       61.570       45.771       26.437     3790.894     2094.994      698.913        0.750        0.329       91.746       23.360        0.065      342.378       17.745      865.123
08/05/2014  12:22:00       50.767       41.563       23.430       53.416       39.114       42.475     2853.242     1529.878     1804.085        0.552        0.309       65.611       38.392        0.342      342.555       18.047      865.109
08/05/2014  12:23:00        7.441       48.129       41.110       30.135       36.527       42.684      908.113     1334.204     1821.956        0.406        0.203       48.701       23.973        0.242      342.686       18.269      865.108
08/05/2014  12:24:00       17.354      140.182      -22.648       31.684       72.225       28.172     1003.844     5216.493      793.683        1.374        0.351      141.252       39.114        0.077      342.321       17.647      865.120
08/05/2014  12:25:00       20.887       46.119       11.961       31.114       40.365       33.961      968.102     1629.345     1153.372        0.323        0.188       50.628       20.899        0.170      342.442       17.855      865.104
08/05/2014  12:26:00       37.874       65.096        4.059       29.563       34.135       26.745      873.959     1165.213      715.275        0.422        0.138       75.312       21.979        0.085      342.342       17.684      865.109
08/05/2014  12:27:00       13.037       76.983       -5.899       19.473       33.388       23.964      379.205     1114.765      574.290        0.410        0.103       78.079       21.679        0.077      342.393       17.772      865.098
08/05/2014  12:28:00      100.859       58.306        2.375       54.914       40.046       27.285     3015.507     1603.698      744.449        0.947        0.268      116.499       17.492        0.023      342.323       17.652      865.093
08/05/2014  12:29:00        4.912       81.204       -6.709       32.279       73.075       28.600     1041.934     5339.924      817.934        0.693        0.360       81.353       38.591        0.225      342.435       17.842      865.103
08/05/2014  12:30:00      -16.276      185.929      -15.766       62.594       87.370       40.041     3918.047     7633.603     1603.314        2.412        0.658      186.640       43.534        0.054      342.290       17.594      865.107
08/05/2014  12:31:00       33.969      150.138      -16.029       51.695       99.992       47.805     2672.331     9998.454     2285.303        1.945        0.748      153.933       59.722        0.151      342.394       17.770      865.109
08/05/2014  12:32:00      -15.519      112.314       -4.066       38.820       47.704       32.971     1506.989     2275.681     1087.059        0.887        0.243      113.381       26.131        0.053      342.449       17.866      865.120
08/05/2014  12:33:00       20.634      168.178      -12.739       60.731       81.393       45.226     3688.304     6624.810     2045.387        2.061        0.618      169.439       45.828        0.073      342.337       17.673      865.125
08/05/2014  12:34:00       28.702      197.184      -20.263       44.995       75.570       38.406     2024.581     5710.870     1475.050        2.466        0.461      199.262       43.999        0.049      342.225       17.482      865.123
08/05/2014  12:35:00       -2.179      147.753      -24.887       63.694       84.171       42.213     4056.912     7084.791     1781.959        1.769        0.646      147.769       36.474        0.061      342.320       17.646      865.135
08/05/2014  12:36:00       64.952      121.796       -2.907       79.474       74.596       39.445     6316.194     5564.518     1555.906        1.625        0.672      138.033       36.727        0.071      342.374       17.738      865.137
08/05/2014  12:37:00      139.549       71.238        6.322       63.287       47.756       37.656     4005.252     2280.656     1417.978        1.614        0.385      156.680       16.032        0.010      342.330       17.662      865.138
08/05/2014  12:38:00      106.377       79.733       15.776       68.785       60.982       51.558     4731.332     3718.852     2658.190        1.451        0.555      132.941       28.880        0.047      342.294       17.602      865.154
08/05/2014  12:39:00       55.065       91.851       -3.548       55.458       72.408       43.541     3075.610     5242.887     1895.797        1.085        0.511      107.092       40.823        0.145      342.277       17.572      865.162
08/05/2014  12:40:00       -6.397      273.072      -29.226       52.709       76.755       35.613     2778.199     5891.357     1268.268        4.270        0.497      273.147       44.732        0.027      342.157       17.367      865.166
08/05/2014  12:41:00       36.494      148.749      -21.550       48.498       75.471       40.451     2352.070     5695.888     1636.317        1.680        0.484      153.160       41.182        0.072      342.274       17.567      865.165
08/05/2014  12:42:00      -26.367      129.768      -18.737       23.895       39.371       25.327      570.956     1550.051      641.447        1.032        0.138      132.419       24.727        0.035      342.264       17.551      865.164
08/05/2014  12:43:00       15.984      196.211      -28.927       31.445       72.435       26.221      988.779     5246.899      687.554        2.326        0.346      196.861       34.494        0.031      342.248       17.521      865.170
08/05/2014  12:44:00       59.942       64.964        2.920       58.101       43.301       35.446     3375.755     1874.984     1256.446        0.716        0.325       88.393       24.072        0.074      342.370       17.732      865.171
08/05/2014  12:45:00       18.251       81.023      -18.432       57.239       48.696       23.254     3276.262     2371.256      540.756        0.671        0.309       83.053       27.815        0.112      342.364       17.721      865.170
08/05/2014  12:46:00      -19.195      197.836      -25.604       46.391       47.611       25.546     2152.122     2266.772      652.583        2.262        0.254      198.765       19.399        0.010      342.228       17.491      865.160
08/05/2014  12:47:00        8.259       65.669        9.992       36.839       56.881       33.034     1357.117     3235.487     1091.268        0.508        0.284       66.186       33.637        0.258      342.398       17.779      865.143
08/05/2014  12:48:00       16.207       58.502       -5.541       33.589       57.675       26.681     1128.201     3326.370      711.854        0.444        0.258       60.705       31.660        0.272      342.437       17.846      865.132
08/05/2014  12:49:00       19.946       96.404       -0.470       49.031       78.872       32.481     2403.997     6220.848     1054.997        0.968        0.484       98.446       41.986        0.182      342.491       17.937      865.131
08/05/2014  12:50:00       20.984      154.676      -22.571       59.497       58.065       35.554     3539.933     3371.542     1264.090        1.652        0.409      156.093       30.589        0.038      342.463       17.888      865.129
08/05/2014  12:51:00       77.807       49.615       18.404       52.604       30.693       32.294     2767.231      942.089     1042.909        0.680        0.238       92.280       13.976        0.023      342.514       17.976      865.125
08/05/2014  12:52:00       35.265       67.086       -0.471       53.269       49.495       27.671     2837.594     2449.763      765.678        0.590        0.303       75.790       19.632        0.067      342.584       18.095      865.124
08/05/2014  12:53:00       26.762       67.717        4.116       48.896       48.436       28.436     2390.828     2346.042      808.592        0.543        0.277       72.813       26.142        0.129      342.596       18.116      865.122
08/05/2014  12:54:00       26.403       48.920       20.635       38.282       60.127       34.741     1465.505     3615.272     1206.949        0.490        0.314       55.590       34.729        0.390      342.731       18.346      865.120
08/05/2014  12:55:00      -13.444      120.113      -14.520       35.043       66.186       24.660     1227.991     4380.562      608.130        1.052        0.311      120.863       34.387        0.081      342.597       18.119      865.117
08/05/2014  12:56:00       28.836      193.064      -32.293       31.325       52.391       22.619      981.258     2744.847      511.636        2.169        0.212      195.205       17.525        0.008      342.359       17.711      865.120
08/05/2014  12:57:00      104.953       76.455       18.942       45.923       36.981       35.671     2108.926     1367.614     1272.451        1.098        0.237      129.848       20.393        0.025      342.491       17.937      865.117
08/05/2014  12:58:00       98.223       78.910       10.644       57.714       43.735       36.822     3330.875     1912.752     1355.825        1.129        0.330      125.994       30.838        0.060      342.526       17.998      865.111
08/05/2014  12:59:00       27.579      102.340        4.665       51.538       53.434       44.136     2656.134     2855.206     1947.954        0.936        0.373      105.991       41.256        0.152      342.531       18.007      865.122
08/05/2014  13:00:00       75.656       65.577        5.051       46.603       38.908       37.106     2171.847     1513.818     1376.823        0.756        0.253      100.121       27.914        0.078      342.514       17.977      865.124
08/05/2014  13:01:00       89.795       67.381        1.378       59.334       40.022       33.450     3520.540     1601.723     1118.885        0.942        0.312      112.265       24.409        0.047      342.562       18.058      865.125
08/05/2014  13:02:00       44.913       55.098       -1.303       41.389       39.052       20.864     1713.063     1525.026      435.303        0.436        0.184       71.085       17.899        0.063      342.681       18.261      865.119
08/05/2014  13:03:00      -21.373       76.148      -15.134       39.952       48.076       20.891     1596.177     2311.306      436.429        0.541        0.217       79.091       25.418        0.103      342.555       18.046      865.126
08/05/2014  13:04:00       23.572      179.889      -25.581       36.543       84.493       32.200     1335.409     7139.001     1036.843        2.154        0.476      181.427       44.157        0.059      342.521       17.986      865.112
08/05/2014  13:05:00       19.854      195.631      -25.984       38.510       54.785       26.412     1483.056     3001.442      697.572        2.226        0.259      196.636       27.538        0.020      342.475       17.909      865.109
08/05/2014  13:06:00       14.476      261.654      -26.175       45.789       62.831       43.945     2096.640     3947.739     1931.198        3.867        0.399      262.055       33.298        0.016      342.453       17.869      865.107
08/05/2014  13:07:00       25.028      249.406      -43.848       27.978       44.081       16.965      782.757     1943.118      287.811        3.388        0.151      250.659       18.257        0.005      342.300       17.608      865.111
08/05/2014  13:08:00       10.200      180.860      -29.523       44.560       61.392       35.825     1985.569     3769.018     1283.421        2.036        0.352      181.147       23.802        0.017      342.437       17.845      865.110
08/05/2014  13:09:00       22.552      156.421      -21.762       49.141       57.471       33.361     2414.826     3302.967     1112.936        1.614        0.342      158.039       31.469        0.040      342.532       18.007      865.109
08/05/2014  13:10:00       95.336       65.619        2.744       46.690       34.769       39.069     2179.992     1208.869     1526.366        0.916        0.246      115.736       29.087        0.063      342.525       17.995      865.096
08/05/2014  13:11:00      105.471       54.886       -8.050       66.143       43.062       33.717     4374.936     1854.317     1136.852        1.078        0.368      118.898       19.552        0.027      342.608       18.137      865.099
08/05/2014  13:12:00       69.099       56.172       -0.565       56.010       39.823       27.426     3137.067     1585.887      752.191        0.670        0.274       89.050       26.932        0.091      342.672       18.245      865.094
08/05/2014  13:13:00       57.483       98.184       -6.954       48.085       56.149       36.453     2312.199     3152.691     1328.796        0.989        0.340      113.774       31.356        0.076      342.609       18.139      865.092
08/05/2014  13:14:00       71.492      103.244        4.000       52.808       76.431       48.326     2788.685     5841.703     2335.394        1.337        0.548      125.580       47.988        0.146      342.636       18.184      865.091
08/05/2014  13:15:00       80.872       90.591        7.269       69.820       60.938       49.565     4874.799     3713.414     2456.665        1.292        0.552      121.437       37.525        0.095      342.578       18.083      865.098
08/05/2014  13:16:00       59.367       70.452       -0.063       42.954       45.924       33.969     1845.023     2109.048     1153.913        0.680        0.255       92.130       28.934        0.099      342.659       18.223      865.096
08/05/2014  13:17:00       44.088       62.173        5.936       49.466       57.731       33.242     2446.923     3332.876     1105.057        0.636        0.344       76.218       34.044        0.200      342.664       18.231      865.093
08/05/2014  13:18:00       40.254      132.330      -14.296       60.715       62.649       33.601     3686.259     3924.916     1129.042        1.404        0.437      138.317       31.810        0.053      342.643       18.197      865.089
08/05/2014  13:19:00       82.083       83.796       -0.313       61.260       54.341       44.398     3752.801     2952.987     1971.170        1.122        0.434      117.300       35.308        0.091      342.717       18.322      865.082
08/05/2014  13:20:00       25.749       48.867       -3.464       44.736       29.605       16.895     2001.323      876.462      285.451        0.311        0.158       55.236       15.473        0.078      342.717       18.320      865.079
08/05/2014  13:21:00       62.245       63.250       -0.508       44.023       54.601       30.541     1938.058     2981.283      932.751        0.686        0.293       88.741       25.869        0.085      342.809       18.478      865.062
08/05/2014  13:22:00        8.793      178.811      -24.503       26.805       43.876       19.309      718.522     1925.067      372.843        1.783        0.151      179.027       12.314        0.005      342.621       18.158      865.056
08/05/2014  13:23:00       32.337      132.367      -10.613       42.836       61.237       40.325     1834.958     3749.962     1626.120        1.294        0.361      136.259       42.002        0.095      342.798       18.458      865.049
08/05/2014  13:24:00       16.979      200.885      -29.875       45.760       56.122       26.954     2094.010     3149.726      726.530        2.375        0.299      201.601       20.885        0.011      342.762       18.394      865.035
08/05/2014  13:25:00       43.594      119.960       -6.987       60.238       71.455       34.179     3628.672     5105.819     1168.211        1.312        0.495      127.636       38.286        0.090      342.866       18.574      865.032
08/05/2014  13:26:00       40.161       32.981       13.178       59.156       39.069       29.049     3499.420     1526.420      843.851        0.437        0.293       51.968       12.316        0.056      342.912       18.653      865.028
08/05/2014  13:27:00       -7.724      115.553      -10.183       48.315       51.171       29.488     2334.317     2618.435      869.517        0.967        0.291      115.811       28.974        0.063      342.857       18.559      865.032
08/05/2014  13:28:00       38.202      195.304      -28.829       36.587       68.987       37.780     1338.604     4759.225     1427.329        2.398        0.376      199.005       39.132        0.039      342.743       18.363      865.034
08/05/2014  13:29:00      -16.791      116.809       -3.796       40.295       59.256       32.510     1623.674     3511.235     1056.932        1.006        0.310      118.009       34.061        0.083      342.864       18.572      865.031
08/05/2014  13:30:00       -3.549       58.631        1.982       31.241       34.302       23.077      976.013     1176.646      532.558        0.307        0.134       58.738       19.947        0.115      343.022       18.842      865.025
08/05/2014  13:31:00       24.896       38.040       16.948       46.566       41.028       34.116     2168.393     1683.289     1163.889        0.368        0.251       45.462       29.689        0.426      343.095       18.966      865.006
08/05/2014  13:32:00       56.673       70.965       -4.745       49.756       33.994       31.636     2475.670     1155.580     1000.805        0.645        0.232       90.818       27.431        0.091      343.044       18.879      864.989
08/05/2014  13:33:00       -7.436      149.028      -26.104       41.097      117.649       27.369     1688.940    13841.368      749.053        1.961        0.814      149.214       36.581        0.060      342.884       18.603      864.990
08/05/2014  13:34:00      -21.558      127.458      -16.148       57.357       69.650       27.926     3289.806     4851.125      779.850        1.294        0.446      129.268       32.527        0.063      342.818       18.493      864.986
08/05/2014  13:35:00        4.792       19.097       30.798       36.314       37.501       26.251     1318.710     1406.345      689.104        0.237        0.171       19.689       18.675        0.900      343.216       19.171      864.967
08/05/2014  13:36:00       -1.760      134.324      -16.592       34.036       35.814       20.935     1158.451     1282.640      438.257        1.060        0.144      134.335       18.860        0.020      343.038       18.869      864.969
08/05/2014  13:37:00       39.807       94.915       -4.078       51.978       57.074       38.636     2701.707     3257.456     1492.767        0.903        0.373      102.924       39.773        0.149      343.005       18.811      864.968
08/05/2014  13:38:00       36.818      138.506        4.925       62.815       97.043       47.129     3945.757     9417.392     2221.161        1.807        0.779      143.316       58.071        0.164      342.930       18.681      864.972
08/05/2014  13:39:00       10.585      147.280      -15.869       31.608       72.905       38.501      999.068     5315.101     1482.339        1.492        0.390      147.660       42.850        0.084      343.006       18.814      864.971
08/05/2014  13:40:00      113.180      107.376        0.526       67.599       59.101       47.773     4569.588     3492.910     2282.214        1.734        0.517      156.011       35.130        0.051      342.895       18.623      864.960
08/05/2014  13:41:00       57.081      120.405      -15.065       54.624       78.173       52.503     2983.767     6111.074     2756.515        1.491        0.593      133.250       51.127        0.147      342.911       18.651      864.954
08/05/2014  13:42:00      126.492      110.521        6.787       58.518       49.384       45.705     3424.327     2438.775     2088.912        1.811        0.398      167.974       35.651        0.045      342.866       18.575      864.949
08/05/2014  13:43:00       42.761      122.584      -20.508       47.812       70.602       40.657     2285.958     4984.640     1652.991        1.310        0.446      129.828       37.650        0.084      342.984       18.776      864.946
08/05/2014  13:44:00       96.330       76.207        2.767       51.330       62.435       41.904     2634.795     3898.103     1755.965        1.169        0.414      122.828       35.555        0.084      343.068       18.919      864.929
08/05/2014  13:45:00      127.410       89.143       15.548       58.358       37.691       40.979     3405.661     1420.576     1679.290        1.546        0.325      155.498       23.277        0.022      343.021       18.839      864.913
08/05/2014  13:46:00       33.710      109.794       -1.494       51.989       68.702       37.332     2702.829     4719.955     1393.663        1.100        0.441      114.853       35.797        0.097      343.159       19.074      864.917
08/05/2014  13:47:00        3.510      124.669      -18.763       39.961       68.224       31.877     1596.897     4654.542     1016.133        1.159        0.363      124.719       37.001        0.088      343.120       19.007      864.929
08/05/2014  13:48:00       53.497       54.334       -1.432       46.144       34.741       36.286     2129.257     1206.924     1316.655        0.523        0.233       76.251       23.306        0.093      343.102       18.978      864.929
08/05/2014  13:49:00      161.960       83.797       15.924      122.588       60.748       56.111    15027.800     3690.366     3148.447        2.768        1.093      182.354       36.728        0.041      343.089       18.953      864.920
08/05/2014  13:50:00      -18.116       97.870       -9.517       52.847       64.704       35.204     2792.857     4186.598     1239.320        0.911        0.411       99.533       35.724        0.129      343.282       19.284      864.934
08/05/2014  13:51:00       -4.716      124.452      -11.077       40.177       59.243       27.804     1614.185     3509.737      773.080        1.076        0.295      124.542       23.872        0.037      343.052       18.890      864.947
08/05/2014  13:52:00       -6.633      109.551       -7.838       44.243       48.391       34.842     1957.452     2341.650     1213.998        0.881        0.276      109.751       29.958        0.075      343.023       18.843      864.953
08/05/2014  13:53:00        1.498      102.678      -16.480       28.547       24.804       20.167      814.951      615.217      406.701        0.633        0.092      102.689       13.058        0.016      343.026       18.848      864.963
08/05/2014  13:54:00      -22.699       58.870        4.837       29.484       51.130       27.422      869.318     2614.230      751.976        0.412        0.212       63.095       21.572        0.117      343.310       19.331      864.964
08/05/2014  13:55:00      -69.943      -30.694       -1.217       47.794       34.806       31.411     2284.290     1211.484      986.630        0.516        0.224       76.381       34.515        0.204      343.243       19.217      864.952
08/05/2014  13:56:00      -25.049       18.162       16.401       37.028       21.944       22.993     1371.042      481.536      528.656        0.180        0.119       30.940       12.992        0.176      343.453       19.575      864.941
08/05/2014  13:57:00      -75.797      -24.000       -0.555       56.875       44.659       26.009     3234.798     1994.462      676.460        0.611        0.295       79.506       29.177        0.135      343.248       19.227      864.944
08/05/2014  13:58:00      -75.117       74.235      -35.938       56.663       42.675       31.522     3210.702     1821.164      993.622        0.923        0.301      105.610       26.427        0.063      343.233       19.200      864.955
08/05/2014  13:59:00      -71.810       83.976       -3.669       69.510       63.855       41.026     4831.592     4077.496     1683.153        1.141        0.530      110.493       48.427        0.192      343.157       19.071      864.963
08/05/2014  14:00:00     -124.866       19.045      -19.228       51.126       53.281       33.122     2613.893     2838.900     1097.040        1.144        0.327      126.310       25.387        0.040      343.201       19.146      864.955
08/05/2014  14:01:00     -188.320       -3.269      -16.208       68.169       54.993       32.748     4647.059     3024.239     1072.415        2.224        0.437      188.349       28.537        0.023      343.039       18.867      864.950
08/05/2014  14:02:00     -187.640      -51.269      -12.964       72.403       68.574       36.193     5242.206     4702.361     1309.920        2.463        0.563      194.519       28.065        0.021      343.115       18.997      864.948
08/05/2014  14:03:00     -137.164       70.620      -15.239       56.495       72.149       34.390     3191.725     5205.441     1182.673        1.680        0.479      154.276       35.187        0.052      343.040       18.871      864.955
08/05/2014  14:04:00     -113.655      -18.613       -4.148       61.658       78.909       36.489     3801.766     6226.703     1331.477        1.232        0.568      115.169       31.599        0.075      343.253       19.234      864.952
08/05/2014  14:05:00     -209.371       58.330      -19.457       70.609       49.036       32.499     4985.647     2404.559     1056.209        2.803        0.422      217.344       31.794        0.021      343.028       18.849      864.958
08/05/2014  14:06:00      -81.272      -58.117       12.383       65.546       72.133       31.253     4296.278     5203.118      976.729        1.030        0.524       99.914       35.700        0.128      343.206       19.154      864.964
08/05/2014  14:07:00     -111.707       10.736      -21.987       69.417       42.253       21.114     4818.772     1785.301      445.793        1.006        0.352      112.222       11.803        0.011      343.209       19.158      864.960
08/05/2014  14:08:00     -172.479       40.090      -26.688       57.835       50.135       30.131     3344.901     2513.481      907.899        1.942        0.338      177.077       22.766        0.017      342.953       18.721      864.973
08/05/2014  14:09:00      -43.250       20.025       -1.171       40.723       27.158       20.267     1658.364      737.551      410.760        0.254        0.140       47.661       13.240        0.077      343.106       18.984      864.979
08/05/2014  14:10:00      -32.966       51.563        0.636       53.877       42.518       27.335     2902.761     1807.746      747.210        0.460        0.273       61.201       22.946        0.141      343.187       19.121      864.966
08/05/2014  14:11:00      -45.641       39.916      -13.444       63.347       55.850       25.052     4012.892     3119.194      627.594        0.581        0.388       60.633       24.265        0.160      343.147       19.055      864.950
08/05/2014  14:12:00      -39.661       72.072       -7.126       41.689       83.850       27.997     1737.943     7030.837      783.859        0.818        0.478       82.264       26.758        0.106      343.289       19.296      864.938
08/05/2014  14:13:00      -26.263       44.824        2.867       42.252       38.063       24.012     1785.194     1448.805      576.560        0.326        0.191       51.951       14.494        0.078      343.366       19.427      864.937
08/05/2014  14:14:00      -40.591       94.897       -5.912       68.265       45.016       31.734     4660.050     2026.480     1007.059        0.919        0.385      103.214       35.500        0.118      343.347       19.393      864.938
08/05/2014  14:15:00      -80.964      143.249      -25.996       93.037       86.698       41.027     8655.901     7516.618     1683.196        2.280        0.893      164.547       54.090        0.108      343.167       19.086      864.933
08/05/2014  14:16:00      -48.817      221.892      -37.118       73.058       61.758       24.384     5337.525     3814.025      594.590        3.137        0.487      227.198       23.710        0.011      342.881       18.599      864.937
08/05/2014  14:17:00        1.200      124.679      -13.438       37.227       62.741       33.708     1385.858     3936.457     1136.256        1.109        0.323      124.684       35.235        0.080      343.085       18.949      864.929
08/05/2014  14:18:00      -48.517      196.341      -19.989       66.034       74.569       42.238     4360.498     5560.529     1784.013        2.650        0.585      202.247       37.531        0.034      343.167       19.084      864.934
08/05/2014  14:19:00      -25.105      159.600      -19.615       54.993       45.394       28.947     3024.242     2060.650      837.905        1.620        0.296      161.562       22.242        0.019      343.173       19.097      864.945
08/05/2014  14:20:00      -22.000      231.232      -40.293       65.543       67.167       33.828     4295.882     4511.385     1144.348        3.276        0.498      232.276       33.966        0.021      343.059       18.900      864.936
08/05/2014  14:21:00      -29.439      166.983      -11.047       92.445       95.108       49.104     8546.119     9045.462     2411.195        2.443        1.000      169.558       58.455        0.119      343.324       19.355      864.942
08/05/2014  14:22:00       -5.023      286.523      -31.018       72.789      112.161       51.248     5298.176    12580.095     2626.358        5.179        1.025      286.567       59.673        0.043      343.045       18.877      864.948
08/05/2014  14:23:00      -32.949      313.877      -43.553       36.626       37.896       18.455     1341.461     1436.085      340.604        5.231        0.156      315.602       17.971        0.003      342.793       18.447      864.957
08/05/2014  14:24:00      -13.319      247.246      -30.219       53.563       46.411       23.141     2868.993     2153.957      535.509        3.389        0.278      247.604       19.382        0.006      342.963       18.737      864.948
08/05/2014  14:25:00      -51.551      262.238      -32.097       44.438       39.747       22.356     1974.773     1579.859      499.770        3.825        0.203      267.257       16.707        0.004      342.933       18.684      864.934
08/05/2014  14:26:00      -98.227      185.217      -30.374       64.337       62.752       36.676     4139.217     3937.790     1345.121        2.715        0.471      209.651       29.944        0.020      343.113       18.993      864.923
08/05/2014  14:27:00       -4.910      212.329      -19.691       55.024       52.927       32.727     3027.631     2801.255     1071.080        2.620        0.345      212.386       30.192        0.020      343.144       19.045      864.925
08/05/2014  14:28:00       29.680       62.030       -1.817       53.553       55.165       39.961     2867.910     3043.187     1596.879        0.612        0.375       68.765       32.880        0.229      343.220       19.178      864.925
08/05/2014  14:29:00       16.641       84.944        0.592       56.257       60.709       34.061     3164.808     3685.613     1160.141        0.775        0.401       86.559       30.225        0.122      343.260       19.247      864.916
08/05/2014  14:30:00       18.590      150.225      -26.526       46.942       67.374       33.637     2203.526     4539.251     1131.422        1.574        0.394      151.371       20.832        0.019      343.097       18.967      864.905
08/05/2014  14:31:00      -33.111       48.452      -15.753       32.301       37.747       18.929     1043.338     1424.811      358.295        0.326        0.141       58.686       15.067        0.066      343.224       19.186      864.902
08/05/2014  14:32:00       18.770      103.899      -15.054       39.693       45.316       26.446     1575.567     2053.498      699.410        0.785        0.216      105.581       22.603        0.046      343.252       19.232      864.901
08/05/2014  14:33:00      -34.650       69.585        1.503       77.726       84.949       46.328     6041.267     7216.383     2146.298        1.072        0.770       77.735       56.834        0.535      343.363       19.422      864.899
08/05/2014  14:34:00     -163.931      170.368      -43.023       38.186       56.633       26.382     1458.135     3207.309      696.028        3.155        0.268      236.429       26.159        0.012      342.969       18.746      864.907
08/05/2014  14:35:00      -25.906       82.655      -12.801       56.211       42.176       22.496     3159.698     1778.789      506.061        0.655        0.272       86.619       22.533        0.068      343.256       19.240      864.890
08/05/2014  14:36:00        1.272      100.491       -5.949       32.863       55.664       29.124     1080.001     3098.445      848.187        0.758        0.251      100.499       33.529        0.111      343.437       19.547      864.878
08/05/2014  14:37:00       23.560      250.047      -35.436       45.807       75.958       31.683     2098.314     5769.673     1003.826        3.660        0.444      251.155       32.794        0.017      343.042       18.870      864.875
08/05/2014  14:38:00       25.353      187.447      -10.947       51.831       89.421       47.528     2686.424     7996.199     2258.869        2.442        0.647      189.154       53.844        0.081      343.210       19.159      864.868
08/05/2014  14:39:00        5.740      134.180      -13.778       44.477       59.263       39.093     1978.237     3512.081     1528.235        1.262        0.351      134.303       35.819        0.071      343.285       19.288      864.865
08/05/2014  14:40:00       18.802      155.974      -18.442       50.084       88.886       35.626     2508.367     7900.700     1269.204        1.835        0.584      157.103       36.490        0.054      343.369       19.430      864.861
08/05/2014  14:41:00      -29.137      233.772      -19.173       62.573       79.301       40.143     3915.364     6288.594     1611.453        3.384        0.591      235.581       32.766        0.019      343.248       19.222      864.871
08/05/2014  14:42:00      -61.904      155.597       -7.432       44.256       42.696       32.035     1958.558     1822.944     1026.215        1.645        0.240      167.459       24.633        0.022      343.367       19.428      864.881
08/05/2014  14:43:00      -27.085       97.359        2.248       36.912       40.373       29.629     1362.470     1629.999      877.905        0.704        0.194      101.056       25.183        0.062      343.422       19.521      864.887
08/05/2014  14:44:00       -5.117      137.748        1.444       46.237      106.021       39.819     2137.849    11240.403     1585.584        1.698        0.748      137.843       48.417        0.123      343.373       19.439      864.886
08/05/2014  14:45:00        1.153      159.962      -24.270       48.116       74.537       33.444     2315.101     5555.691     1118.474        1.758        0.449      159.966       35.636        0.050      343.317       19.342      864.886
08/05/2014  14:46:00      -35.656      186.648      -21.110       32.712       61.259       26.910     1070.061     3752.717      724.146        2.105        0.277      190.023        6.286        0.001      343.230       19.194      864.882
08/05/2014  14:47:00      -12.013      142.931       -8.223       57.349       64.071       32.226     3288.949     4105.105     1038.523        1.454        0.422      143.435       32.887        0.053      343.344       19.387      864.880
08/05/2014  14:48:00       -9.692      104.584        1.739       54.463       93.118       41.658     2966.240     8670.889     1735.384        1.220        0.669      105.032       54.250        0.267      343.437       19.548      864.879
08/05/2014  14:49:00       20.111      105.737      -11.531       44.935       62.873       36.616     2019.177     3952.974     1340.756        0.951        0.366      107.632       28.496        0.070      343.298       19.311      864.875
08/05/2014  14:50:00        8.159       87.412      -10.310       68.085       42.493       31.358     4635.583     1805.613      983.306        0.762        0.371       87.792       24.821        0.080      343.318       19.345      864.875
08/05/2014  14:51:00      -55.844       70.797       -4.953       58.385       52.687       30.944     3408.834     2775.884      957.558        0.765        0.357       90.170       32.071        0.127      343.384       19.458      864.875
08/05/2014  14:52:00     -113.217       78.149      -24.975       48.287       42.277       26.579     2331.659     1787.338      706.432        1.219        0.241      137.569       25.126        0.033      343.245       19.220      864.873
08/05/2014  14:53:00      -53.134       90.695      -14.332       50.980       43.529       23.729     2598.952     1894.739      563.063        0.815        0.253      105.114       21.200        0.041      343.383       19.456      864.881
08/05/2014  14:54:00      -33.431       50.402        3.246       55.053       74.650       28.767     3030.828     5572.573      827.559        0.655        0.472       60.481       27.100        0.201      343.401       19.487      864.888
08/05/2014  14:55:00        1.782      132.533        6.486       55.730       85.728       38.904     3105.810     7349.227     1513.517        1.479        0.598      132.545       41.855        0.100      343.409       19.500      864.872
08/05/2014  14:56:00      -54.980      123.409      -15.262       39.107       55.635       27.534     1529.358     3095.224      758.145        1.193        0.269      135.102       28.025        0.043      343.438       19.549      864.877
08/05/2014  14:57:00       -4.092      105.241       -3.421       39.535       95.782       33.128     1563.024     9174.146     1097.490        1.147        0.592      105.320       47.293        0.202      343.499       19.652      864.872
08/05/2014  14:58:00       15.804      150.520      -18.254       49.711       70.676       33.024     2471.233     4995.076     1090.572        1.590        0.428      151.347       29.138        0.037      343.344       19.389      864.866
08/05/2014  14:59:00       -1.122      201.288      -25.777       51.096       70.441       36.799     2610.750     4961.905     1354.200        2.505        0.446      201.291       40.670        0.041      343.385       19.457      864.860
08/05/2014  15:00:00       13.131       94.259       -1.427       48.684       55.956       34.603     2370.174     3131.029     1197.341        0.788        0.335       95.170       31.425        0.109      343.517       19.684      864.855
08/05/2014  15:01:00       -5.805      141.299      -10.359       36.303       55.327       27.204     1317.924     3061.131      740.042        1.261        0.256      141.418       22.801        0.026      343.415       19.511      864.863
08/05/2014  15:02:00       -8.181      142.642      -10.395       44.875       59.920       32.896     2013.784     3590.360     1082.134        1.360        0.334      142.876       32.207        0.051      343.391       19.469      864.858
08/05/2014  15:03:00      -13.730      246.458      -30.028       38.338       57.654       29.359     1469.791     3323.952      861.966        3.374        0.283      246.840       24.532        0.010      343.295       19.301      864.861
08/05/2014  15:04:00      -12.632      240.488      -31.770       53.749       41.097       25.243     2888.945     1688.924      637.197        3.211        0.261      240.820       16.932        0.005      343.207       19.152      864.861
08/05/2014  15:05:00      -63.975      186.751      -22.811       37.601       43.081       28.133     1413.845     1855.995      791.457        2.177        0.203      197.405       18.844        0.009      343.308       19.325      864.862
08/05/2014  15:06:00      -80.678      162.912      -24.435       66.884       57.396       33.512     4473.490     3294.248     1123.064        2.127        0.445      181.795       28.682        0.025      343.288       19.293      864.867
08/05/2014  15:07:00      -62.130      181.783      -16.446       43.173       52.612       27.146     1863.880     2768.040      736.886        2.127        0.268      192.107       22.675        0.014      343.299       19.311      864.862
08/05/2014  15:08:00     -125.284      140.119      -33.629       36.227       39.469       30.020     1312.407     1557.794      901.204        2.012        0.189      187.961       25.455        0.018      343.254       19.234      864.868
08/05/2014  15:09:00      -96.938       50.706      -11.373       25.924       26.945       18.271      672.046      726.058      333.847        0.691        0.087      109.398       18.383        0.028      343.356       19.409      864.856
08/05/2014  15:10:00      -39.206       50.446       -1.157       35.274       31.432       19.954     1244.251      987.980      398.176        0.336        0.132       63.890       20.212        0.100      343.426       19.529      864.859
08/05/2014  15:11:00       81.961       62.451       14.892       48.993       46.744       44.658     2400.286     2185.025     1994.337        0.871        0.329      103.042       34.625        0.113      343.391       19.470      864.855
08/05/2014  15:12:00       -1.951       45.030       10.778       59.547       32.288       33.750     3545.801     1042.507     1139.078        0.394        0.286       45.072       25.169        0.312      343.542       19.727      864.848
08/05/2014  15:13:00       15.823      172.299      -26.100       34.694       50.451       25.583     1203.684     2545.271      654.480        1.751        0.220      173.024       26.412        0.023      343.374       19.440      864.854
08/05/2014  15:14:00      -38.268      146.884      -21.224       35.206       57.408       25.008     1239.474     3295.713      625.424        1.432        0.258      151.787       25.619        0.028      343.478       19.618      864.864
08/05/2014  15:15:00      -72.023       78.755       -9.422       53.110       36.836       26.682     2820.699     1356.926      711.939        0.818        0.244      106.723       24.684        0.053      343.452       19.575      864.864
08/05/2014  15:16:00      -40.702       97.379       -9.600       53.302       55.759       35.738     2841.073     3109.090     1277.182        0.923        0.361      105.543       37.830        0.128      343.492       19.642      864.857
08/05/2014  15:17:00     -141.026       50.598      -15.818       66.348       28.635       22.798     4402.033      819.960      519.760        1.422        0.287      149.828       22.898        0.023      343.377       19.444      864.842
08/05/2014  15:18:00       62.519       77.843        8.401       65.111       40.063       37.245     4239.393     1605.052     1387.195        0.863        0.362       99.840       40.261        0.163      343.418       19.515      864.831
08/05/2014  15:19:00       78.116       36.517        6.002       42.209       28.296       27.062     1781.598      800.685      732.364        0.539        0.166       86.230       14.638        0.029      343.373       19.439      864.821
08/05/2014  15:20:00       32.138       77.800        4.340       47.117       42.947       25.605     2220.021     1844.459      655.626        0.591        0.236       84.177       21.439        0.065      343.444       19.560      864.813
08/05/2014  15:21:00       77.452       74.269        0.833       51.617       46.074       38.293     2664.334     2122.792     1466.391        0.888        0.313      107.306       28.624        0.071      343.471       19.606      864.805
08/05/2014  15:22:00       45.119       37.371        1.375       50.859       35.966       23.020     2586.642     1293.571      529.918        0.392        0.221       58.586       15.091        0.066      343.554       19.746      864.809
08/05/2014  15:23:00        3.008      131.397      -16.907       41.151       37.427       25.519     1693.438     1400.767      651.209        1.065        0.187      131.431       21.423        0.027      343.448       19.568      864.811
08/05/2014  15:24:00       11.319      113.360       -0.510       46.073       58.240       27.688     2122.753     3391.898      766.644        0.963        0.314      113.924       31.387        0.076      343.506       19.666      864.812
08/05/2014  15:25:00       23.108       83.561       -5.851       52.017       53.452       33.016     2705.758     2857.081     1090.058        0.710        0.333       86.698       33.127        0.146      343.532       19.711      864.809
08/05/2014  15:26:00       67.876       42.518        5.347       44.473       30.831       25.961     1977.857      950.525      673.993        0.502        0.180       80.094       21.162        0.070      343.538       19.720      864.799
08/05/2014  15:27:00       66.174       41.774        7.392       41.820       30.010       32.101     1748.950      900.596     1030.482        0.493        0.184       78.256       14.365        0.034      343.512       19.676      864.793
08/05/2014  15:28:00      -25.294      117.039      -13.600       22.766       42.822       21.699      518.303     1833.756      470.828        0.867        0.141      119.741       11.022        0.008      343.543       19.729      864.807
08/05/2014  15:29:00      -47.168      134.506      -19.055       63.186       47.074       26.170     3992.525     2215.959      684.895        1.379        0.345      142.536       31.188        0.048      343.471       19.606      864.816
08/05/2014  15:30:00     -119.855      169.150      -31.378       64.795       80.528       37.803     4198.380     6484.837     1429.093        2.803        0.606      207.309       29.114        0.020      343.469       19.599      864.811
08/05/2014  15:31:00     -128.349      109.932      -17.393       45.838       52.408       32.064     2101.121     2746.567     1028.115        1.737        0.294      168.992       22.535        0.018      343.407       19.497      864.810
08/05/2014  15:32:00     -123.395       60.479       -3.718       55.680       39.927       39.983     3100.249     1594.193     1598.636        1.259        0.315      137.420       35.073        0.065      343.468       19.601      864.804
08/05/2014  15:33:00      -94.273       88.103      -23.835       50.486       46.488       32.492     2548.868     2161.166     1055.747        1.149        0.288      129.033       25.738        0.040      343.449       19.569      864.814
08/05/2014  15:34:00      -47.359      124.819       -7.912       54.273       72.126       28.751     2945.585     5202.164      826.614        1.343        0.449      133.501       26.152        0.038      343.464       19.594      864.817
08/05/2014  15:35:00      -12.485      148.801      -11.906       32.259       57.620       31.370     1040.656     3320.103      984.047        1.389        0.267      149.323       31.087        0.043      343.484       19.627      864.811
08/05/2014  15:36:00      -31.212      171.318       -6.083       53.811       80.400       46.549     2895.659     6464.238     2166.815        2.094        0.576      174.138       51.924        0.089      343.468       19.598      864.810
08/05/2014  15:37:00      -30.975       81.928      -10.078       48.083       50.484       27.925     2311.976     2548.626      779.781        0.671        0.282       87.588       30.936        0.125      343.565       19.765      864.823
08/05/2014  15:38:00      -16.846      165.690       -6.461       55.442       84.342       38.987     3073.812     7113.614     1520.002        1.974        0.585      166.545       45.973        0.076      343.507       19.664      864.815
08/05/2014  15:39:00     -160.173       98.446      -22.753       78.408       48.426       39.374     6147.756     2345.104     1550.309        2.295        0.502      188.008       40.310        0.046      343.457       19.580      864.831
08/05/2014  15:40:00      -98.998       96.921      -20.565       52.476       48.600       31.520     2753.770     2361.949      993.518        1.286        0.305      138.544       30.179        0.047      343.408       19.497      864.842
08/05/2014  15:41:00     -160.393      153.865      -41.038       61.797       58.909       34.814     3818.845     3470.314     1211.983        2.979        0.425      222.262       34.761        0.024      343.318       19.342      864.837
08/05/2014  15:42:00      -90.565      152.800      -25.239       66.068       73.989       39.361     4364.965     5474.367     1549.273        2.179        0.569      177.623       48.714        0.075      343.369       19.430      864.829
08/05/2014  15:43:00      -20.040       97.154       -3.578       37.736       65.515       31.742     1424.008     4292.257     1007.568        0.829        0.336       99.199       40.514        0.167      343.530       19.707      864.822
08/05/2014  15:44:00      -60.133       83.304       -9.495       48.470       55.936       30.211     2349.331     3128.855      912.725        0.852        0.320      102.740       26.126        0.065      343.479       19.620      864.828
08/05/2014  15:45:00      -63.376       92.409      -20.683       70.138       68.598       31.981     4919.375     4705.741     1022.774        1.181        0.532      112.053       34.198        0.093      343.471       19.605      864.826
08/05/2014  15:46:00      -94.113       86.346       -2.882       93.044       46.197       36.516     8657.155     2134.135     1333.438        1.422        0.606      127.722       40.542        0.101      343.419       19.515      864.822
08/05/2014  15:47:00     -133.900      135.849      -19.882       55.128       97.096       33.864     3039.083     9427.714     1146.759        2.519        0.681      190.747       27.834        0.021      343.389       19.464      864.825
08/05/2014  15:48:00     -118.399      235.415      -34.376       70.108       54.084       37.173     4915.082     2925.041     1381.807        3.992        0.461      263.512       27.356        0.011      343.325       19.353      864.823
08/05/2014  15:49:00     -167.004      155.918      -39.811       37.092       71.837       28.108     1375.818     5160.522      790.081        3.055        0.366      228.474       30.091        0.017      343.333       19.368      864.809
08/05/2014  15:50:00     -126.174       84.848      -19.937       56.750       56.659       34.829     3220.558     3210.279     1213.040        1.558        0.382      152.049       25.976        0.029      343.361       19.416      864.807
08/05/2014  15:51:00     -173.404       94.961      -25.922       73.020       65.397       38.832     5331.914     4276.794     1507.938        2.544        0.556      197.703       28.820        0.021      343.321       19.347      864.808
08/05/2014  15:52:00      -70.321      146.222      -15.252       38.462       64.032       30.744     1479.314     4100.086      945.182        1.654        0.326      162.253       23.950        0.022      343.390       19.467      864.795
08/05/2014  15:53:00      -97.122       92.436       -9.675       44.051       58.924       26.838     1940.497     3472.039      720.300        1.210        0.307      134.079       27.248        0.041      343.414       19.508      864.796
08/05/2014  15:54:00     -107.277      137.758      -15.444       76.324      109.159       43.090     5825.297    11915.590     1856.759        2.516        0.980      174.602       43.461        0.062      343.366       19.424      864.793
08/05/2014  15:55:00      -81.687       70.449       -3.089       59.690       95.348       30.897     3562.893     9091.313      954.619        1.262        0.680      107.869       22.400        0.043      343.388       19.463      864.782
08/05/2014  15:56:00      -66.330       40.936       -1.244       37.472       45.037       24.461     1404.167     2028.294      598.326        0.505        0.202       77.945       23.042        0.087      343.407       19.498      864.781
08/05/2014  15:57:00      -82.000      120.131       -9.212       45.536       65.349       30.521     2073.495     4270.496      931.545        1.426        0.364      145.449       29.042        0.040      343.367       19.430      864.780
08/05/2014  15:58:00      -51.002       95.106       -8.833       49.783       47.693       27.198     2478.395     2274.604      739.741        0.861        0.275      107.918       23.018        0.045      343.354       19.406      864.777
08/05/2014  15:59:00      -54.755      153.086      -24.089       45.686       38.508       27.642     2087.194     1482.846      764.084        1.567        0.217      162.583       12.563        0.006      343.402       19.487      864.778
08/05/2014  16:00:00      -60.209      115.041      -12.938       43.522       63.589       25.771     1894.166     4043.594      664.154        1.181        0.330      129.845       24.906        0.037      343.399       19.484      864.780
08/05/2014  16:01:00     -110.931       56.908      -11.063       65.348       59.831       31.218     4270.392     3579.764      974.552        1.224        0.441      124.677       33.657        0.073      343.372       19.437      864.792
08/05/2014  16:02:00     -109.379       91.850      -35.779       53.226       53.221       27.633     2833.047     2832.440      763.591        1.405        0.321      142.830       32.411        0.051      343.246       19.222      864.793
08/05/2014  16:03:00      -53.188      136.422      -13.587       80.995      104.771       40.274     6560.143    10977.059     1622.032        2.039        0.958      146.424       42.963        0.086      343.286       19.288      864.795
08/05/2014  16:04:00      -50.305      264.159      -25.688       49.479       54.962       35.618     2448.156     3020.796     1268.608        3.985        0.337      268.906       31.576        0.014      343.243       19.212      864.807
08/05/2014  16:05:00      -88.980      202.151      -28.162       76.172      104.578       38.323     5802.215    10936.474     1468.649        3.389        0.910      220.867       37.311        0.029      343.269       19.259      864.803
08/05/2014  16:06:00      -38.877       73.648       -7.622       35.608       45.287       22.223     1267.909     2050.879      493.881        0.540        0.191       83.280       18.875        0.051      343.320       19.350      864.807
08/05/2014  16:07:00      -38.150      135.584      -18.209       33.282       58.218       24.909     1107.706     3389.334      620.474        1.264        0.256      140.849       20.825        0.022      343.266       19.256      864.809
08/05/2014  16:08:00      -36.565      134.350       -5.716       50.709      100.653       35.798     2571.355    10130.982     1281.480        1.670        0.699      139.237       49.570        0.127      343.222       19.180      864.807
08/05/2014  16:09:00     -124.881      194.388      -44.014       66.104       68.102       35.508     4369.780     4637.821     1260.794        3.279        0.513      231.045       38.334        0.028      343.217       19.170      864.818
08/05/2014  16:10:00      -30.948      170.667       -9.005       54.566       67.311       37.181     2977.461     4530.722     1382.406        1.953        0.445      173.451       35.347        0.042      343.241       19.211      864.820
08/05/2014  16:11:00      -25.644       97.646       -8.761       24.251       51.043       22.299      588.092     2605.373      497.237        0.698        0.185      100.957       18.199        0.032      343.213       19.165      864.820
08/05/2014  16:12:00      -58.491       57.316       -2.926       74.229       59.578       34.320     5509.985     3549.552     1177.860        0.847        0.512       81.892       29.413        0.129      343.242       19.214      864.820
08/05/2014  16:13:00       -0.125      181.674      -11.062       48.960       70.090       39.594     2397.080     4912.674     1567.662        2.100        0.444      181.674       43.081        0.056      343.154       19.065      864.816
08/05/2014  16:14:00       -1.848      189.060       -9.380       36.216       87.006       33.504     1311.606     7570.119     1122.494        2.292        0.500      189.069       37.589        0.040      343.121       19.008      864.816
08/05/2014  16:15:00      -27.928      114.695      -16.613       40.819       43.194       24.274     1666.220     1865.712      589.213        0.917        0.206      118.046       16.993        0.021      343.176       19.104      864.815
08/05/2014  16:16:00        1.998       80.690        8.670       52.511       49.309       35.794     2757.394     2431.333     1281.201        0.653        0.323       80.715       31.135        0.149      343.232       19.199      864.812
08/05/2014  16:17:00      -47.840       95.380      -13.045       33.082       47.779       23.494     1094.416     2282.790      551.976        0.774        0.196      106.705       17.837        0.028      343.208       19.158      864.822
08/05/2014  16:18:00      -45.928       85.788      -22.813       38.097       34.008       16.709     1451.373     1156.570      279.180        0.644        0.144       97.308       15.229        0.024      343.256       19.240      864.826
08/05/2014  16:19:00       -9.632      151.230       -6.053       67.657       71.420       44.226     4577.521     5100.864     1955.940        1.731        0.582      151.537       41.283        0.074      343.152       19.061      864.829
08/05/2014  16:20:00      -15.483      214.407      -22.660       49.183       63.233       37.694     2418.954     3998.443     1420.866        2.728        0.392      214.965       34.431        0.026      343.151       19.056      864.824
08/05/2014  16:21:00      -90.064      198.888      -21.753       58.457       86.418       40.107     3417.239     7468.072     1608.552        3.032        0.625      218.330       45.830        0.044      343.160       19.073      864.821
08/05/2014  16:22:00      -51.975      243.543      -36.661       39.763       48.633       27.264     1581.103     2365.176      743.315        3.402        0.234      249.027       22.488        0.008      343.175       19.097      864.813
08/05/2014  16:23:00      -40.575      249.936      -27.627       61.057      111.178       30.369     3728.010    12360.648      922.289        4.094        0.851      253.208       39.678        0.025      343.149       19.054      864.818
08/05/2014  16:24:00       50.284      243.807      -33.880       73.498       77.941       44.811     5401.936     6074.763     2007.988        3.830        0.674      248.939       46.112        0.034      343.104       18.977      864.815
08/05/2014  16:25:00      -33.365      197.272      -14.095       58.902       72.166       32.151     3469.400     5207.953     1033.660        2.497        0.486      200.073       35.114        0.031      343.110       18.989      864.822
08/05/2014  16:26:00      -26.816      199.641      -24.272       52.341       82.258       37.181     2739.552     6766.451     1382.400        2.602        0.544      201.434       42.815        0.045      343.083       18.942      864.819
08/05/2014  16:27:00      -29.259      257.827      -28.815       42.103       53.978       29.454     1772.637     2913.630      867.547        3.686        0.278      259.482       26.780        0.011      343.089       18.951      864.830
08/05/2014  16:28:00      -52.712      248.531      -35.271       51.334       70.957       27.926     2635.213     5034.870      779.834        3.712        0.422      254.060       26.334        0.011      343.113       18.991      864.830
08/05/2014  16:29:00      -63.623      190.289      -24.040       50.525       66.821       34.565     2552.763     4465.108     1194.720        2.452        0.411      200.644       36.809        0.034      343.108       18.984      864.839
08/05/2014  16:30:00      -16.633      205.446      -22.665       41.017       53.592       34.248     1682.362     2872.138     1172.953        2.436        0.286      206.118       26.854        0.017      343.068       18.916      864.848
08/05/2014  16:31:00     -122.090      153.795      -19.994       67.164       91.968       41.278     4511.004     8458.162     1703.905        2.681        0.734      196.364       47.694        0.059      343.047       18.882      864.846
08/05/2014  16:32:00      -26.339       99.102      -15.462       38.088       52.723       20.033     1450.722     2779.707      401.320        0.769        0.232      102.542       14.643        0.020      343.042       18.876      864.847
08/05/2014  16:33:00       -4.564       95.480      -14.402       39.626       31.144       25.374     1570.192      969.972      643.833        0.626        0.159       95.589       21.384        0.050      343.071       18.923      864.851
08/05/2014  16:34:00       48.821       71.701       20.700       55.950       51.384       37.975     3130.370     2640.351     1442.117        0.758        0.361       86.744       32.587        0.141      342.938       18.698      864.845
08/05/2014  16:35:00       -7.149      140.794      -26.806       46.359       63.702       18.645     2149.149     4057.930      347.649        1.357        0.328      140.975       23.676        0.028      342.930       18.683      864.851
08/05/2014  16:36:00      -38.490      134.184      -24.391       50.283       83.648       35.778     2528.421     6997.000     1280.038        1.544        0.540      139.596       40.569        0.084      342.940       18.701      864.851
08/05/2014  16:37:00      -68.690      109.112      -13.507       50.762       48.427       33.201     2576.744     2345.207     1102.274        1.141        0.301      128.933       34.227        0.070      342.972       18.758      864.850
08/05/2014  16:38:00     -106.112      166.684      -28.244       45.875       48.018       27.760     2104.547     2305.689      770.599        2.251        0.259      197.594       19.154        0.009      342.929       18.680      864.842
08/05/2014  16:39:00      -54.353      184.840      -19.128       25.041       56.283       25.046      627.053     3167.722      627.320        2.095        0.221      192.666       25.780        0.018      342.950       18.716      864.822
08/05/2014  16:40:00      -33.370      143.782      -16.108       31.861       50.906       25.036     1015.109     2591.443      626.776        1.314        0.212      147.603       25.056        0.029      342.942       18.704      864.825
08/05/2014  16:41:00       10.962       73.669        1.132       25.365       27.386       24.600      643.358      750.008      605.162        0.377        0.100       74.480       13.447        0.033      342.934       18.692      864.827
08/05/2014  16:42:00      -91.027       46.067      -22.882       29.311       59.416       30.836      859.139     3530.253      950.875        0.813        0.267      102.020       18.458        0.033      342.924       18.675      864.828
08/05/2014  16:43:00      -41.550       36.432        0.820       44.563       46.105       28.505     1985.839     2125.681      812.511        0.399        0.246       55.260       22.727        0.169      342.932       18.687      864.839
08/05/2014  16:44:00       16.387       38.151      -14.937       23.796       28.739       11.080      566.241      825.913      122.770        0.173        0.076       41.521       11.281        0.074      342.871       18.584      864.845
08/05/2014  16:45:00       37.695       36.882       -5.574       25.088       31.606       18.238      629.429      998.970      332.630        0.239        0.098       52.738       15.756        0.089      342.924       18.674      864.843
08/05/2014  16:46:00       90.334       39.871       12.231       24.402       24.133       19.576      595.445      582.390      383.221        0.573        0.078       98.742       10.773        0.012      342.837       18.526      864.836
08/05/2014  16:47:00       37.164       42.103       17.499       30.504       22.349       22.671      930.521      499.477      513.982        0.270        0.097       56.159       18.239        0.105      342.724       18.335      864.835
08/05/2014  16:48:00       49.858       39.303        1.371       30.970       20.669       20.896      959.113      427.228      436.631        0.293        0.091       63.487       15.534        0.060      342.709       18.310      864.834
08/05/2014  16:49:00      109.051       55.527        7.645       32.662       22.931       21.365     1066.825      525.837      456.442        0.854        0.102      122.374       17.566        0.021      342.699       18.292      864.821
08/05/2014  16:50:00      100.200       63.142       16.298       36.189       30.233       30.103     1309.641      914.005      906.184        0.871        0.156      118.436       20.395        0.030      342.701       18.295      864.819
08/05/2014  16:51:00       96.864       52.519        4.101       31.718       26.421       26.595     1006.002      698.057      707.299        0.728        0.121      110.185       14.101        0.016      342.702       18.296      864.800
08/05/2014  16:52:00       98.758       71.833        2.706       29.778       30.420       24.840      886.745      925.349      617.050        0.867        0.121      122.119       15.793        0.017      342.656       18.216      864.798
08/05/2014  16:53:00       83.566       61.571       -0.874       33.151       30.768       24.792     1098.964      946.653      614.627        0.672        0.133      103.799       17.588        0.029      342.614       18.148      864.794
08/05/2014  16:54:00       63.795       54.545        5.647       33.231       33.975       22.957     1104.317     1154.319      527.002        0.493        0.139       83.934       19.564        0.054      342.641       18.192      864.790
08/05/2014  16:55:00       71.417       55.117        2.192       39.151       35.556       25.145     1532.827     1264.210      632.271        0.579        0.171       90.212       24.272        0.072      342.631       18.177      864.793
08/05/2014  16:56:00       72.546       57.541       -1.782       40.307       35.109       28.125     1624.646     1232.646      791.013        0.611        0.182       92.596       19.771        0.046      342.627       18.168      864.778
08/05/2014  16:57:00       40.177      118.177      -13.753       34.147       45.674       27.108     1165.990     2086.080      734.850        0.988        0.199      124.820       20.700        0.028      342.606       18.133      864.789
08/05/2014  16:58:00       45.348       79.863       -5.838       29.113       45.438       30.296      847.557     2064.580      917.877        0.615        0.192       91.840       30.234        0.108      342.610       18.139      864.784
08/05/2014  16:59:00       42.082       87.111        5.975       32.714       44.130       31.930     1070.201     1947.464     1019.528        0.672        0.202       96.743       30.293        0.098      342.633       18.178      864.773
08/05/2014  17:00:00       24.841      124.151      -13.355       42.220       59.825       31.616     1782.505     3579.085      999.549        1.128        0.318      126.611       38.823        0.094      342.656       18.217      864.785
08/05/2014  17:01:00       18.408      118.802      -13.280       39.039       50.781       27.237     1524.046     2578.692      741.843        0.974        0.242      120.219       31.196        0.067      342.650       18.206      864.794
08/05/2014  17:02:00       25.371       98.777       -8.032       33.007       35.245       21.228     1089.465     1242.193      450.623        0.662        0.139      101.983       20.660        0.041      342.662       18.228      864.792
08/05/2014  17:03:00       21.631       64.404       -2.016       22.271       29.351       22.625      495.985      861.498      511.879        0.324        0.093       67.939       21.169        0.097      342.685       18.269      864.793
08/05/2014  17:04:00       41.856       30.765        1.318       14.776       19.141       18.020      218.332      366.395      324.728        0.180        0.045       51.946       11.847        0.052      342.712       18.311      864.794
08/05/2014  17:05:00       20.678       20.979        1.836       29.425       23.274       15.489      865.837      541.677      239.902        0.126        0.082       29.457       13.140        0.199      342.730       18.344      864.799
08/05/2014  17:06:00       12.596       74.267      -15.552       31.475       42.657       20.307      990.697     1819.594      412.364        0.457        0.161       75.328       19.710        0.068      342.805       18.471      864.794
08/05/2014  17:07:00       29.107       96.333      -20.712       25.084       41.494       22.954      629.217     1721.731      526.900        0.672        0.144      100.635       22.829        0.051      342.770       18.413      864.790
08/05/2014  17:08:00       35.555       54.972      -10.934       17.014       22.682       14.642      289.479      514.473      214.401        0.271        0.051       65.468        9.970        0.023      342.772       18.415      864.792
08/05/2014  17:09:00       40.050       31.891        3.994       38.561       25.241       15.666     1486.963      637.124      245.435        0.250        0.118       51.196       14.064        0.075      342.820       18.495      864.793
08/05/2014  17:10:00        1.812       98.965       -5.133       44.086       26.360       25.658     1943.609      694.852      658.354        0.656        0.165       98.981       17.548        0.031      342.852       18.552      864.798
08/05/2014  17:11:00       -3.298       68.645       -7.270       23.468       21.700       18.027      550.736      470.892      324.974        0.306        0.067       68.724       16.409        0.057      342.858       18.563      864.792
08/05/2014  17:12:00       13.705       35.719        1.095       22.983       21.950       17.183      528.221      481.824      295.269        0.138        0.065       38.258       14.380        0.141      342.893       18.621      864.800
08/05/2014  17:13:00      -35.818       97.952       -6.448       68.751       50.844       35.567     4726.758     2585.100     1265.013        0.975        0.429      104.296       30.757        0.087      342.999       18.802      864.797
08/05/2014  17:14:00      -25.168       39.043       -9.955       31.860       26.784       12.936     1015.072      717.407      167.352        0.208        0.095       46.452       12.223        0.069      343.031       18.857      864.798
08/05/2014  17:15:00     -106.598       92.357      -25.579       49.566       67.528       29.477     2456.811     4560.060      868.889        1.421        0.394      141.043       31.376        0.049      343.063       18.911      864.800
08/05/2014  17:16:00      -84.010       33.383       -3.903       80.972       49.453       32.307     6556.468     2445.589     1043.767        0.911        0.502       90.399       35.156        0.151      343.073       18.928      864.802
08/05/2014  17:17:00      -38.903       39.636       -2.167       41.293       56.248       26.650     1705.131     3163.829      710.229        0.433        0.279       55.538       22.049        0.158      343.090       18.957      864.805
08/05/2014  17:18:00       -6.124        7.926       -2.807       14.543       21.636       12.015      211.496      468.124      144.365        0.047        0.041       10.016        9.296        0.862      343.085       18.949      864.807
08/05/2014  17:19:00      -62.312      -41.976        1.267       46.187       34.653       25.249     2133.270     1200.831      637.506        0.481        0.199       75.132       21.683        0.083      343.086       18.951      864.802
08/05/2014  17:20:00      -35.342       -2.661        8.174       35.479       45.691       27.939     1258.725     2087.632      780.596        0.272        0.206       35.442       22.364        0.398      343.091       18.959      864.793
08/05/2014  17:21:00      -56.274       -2.871       -5.782       37.029       42.747       23.299     1371.183     1827.301      542.849        0.347        0.187       56.347       24.893        0.195      343.046       18.879      864.794
08/05/2014  17:22:00      -93.780       31.438      -21.688       62.758       44.688       30.764     3938.540     1997.054      946.407        0.857        0.344       98.909       28.956        0.086      343.077       18.937      864.792
08/05/2014  17:23:00     -100.336       63.425      -18.222       47.677       47.825       27.970     2273.101     2287.220      782.326        0.988        0.267      118.701       23.007        0.038      342.991       18.788      864.781
08/05/2014  17:24:00      -69.908      127.918      -14.785       30.205       56.219       26.984      912.323     3160.560      728.153        1.313        0.240      145.774       16.466        0.013      343.043       18.875      864.772
08/05/2014  17:25:00      -68.498       49.102      -12.041       27.068       38.080       19.447      732.691     1450.093      378.167        0.490        0.128       84.279       19.889        0.056      343.016       18.832      864.763
08/05/2014  17:26:00      -60.991      -49.831        6.013       57.918       34.151       23.564     3354.461     1166.322      555.258        0.566        0.254       78.759       23.287        0.087      342.995       18.794      864.750
08/05/2014  17:27:00      -79.095      -40.014       -3.927       48.550       46.563       24.417     2357.136     2168.078      596.191        0.650        0.256       88.640       21.824        0.061      342.948       18.714      864.744
08/05/2014  17:28:00      -60.909      -30.562       -1.458       29.057       33.237       19.617      844.282     1104.699      384.838        0.349        0.117       68.146       15.671        0.053      342.971       18.753      864.730
08/05/2014  17:29:00      -49.943      -35.359      -15.248       32.348       20.589       14.426     1046.393      423.898      208.100        0.283        0.084       61.193       11.096        0.033      342.918       18.665      864.730
08/05/2014  17:30:00      -92.623      -44.546       -1.714       76.333       29.757       20.698     5826.735      885.499      428.411        0.885        0.357      102.778       24.784        0.058      342.912       18.653      864.745
08/05/2014  17:31:00     -118.269      -35.022       -3.373       25.711       29.731       22.576      661.041      883.937      509.659        0.864        0.103      123.345       14.316        0.013      342.894       18.623      864.746
08/05/2014  17:32:00     -138.393      -41.998       -7.735       46.657       34.014       25.765     2176.844     1156.933      663.842        1.249        0.200      144.625       21.690        0.022      342.858       18.563      864.743
08/05/2014  17:33:00     -107.904      -26.638       -4.175       41.283       38.986       22.710     1704.286     1519.918      515.750        0.805        0.187      111.143       21.316        0.037      342.847       18.546      864.743
08/05/2014  17:34:00      -56.876       12.913        1.555       26.393       27.522       18.953      696.597      757.444      359.216        0.261        0.091       58.323       10.525        0.033      342.857       18.558      864.740
08/05/2014  17:35:00      -70.809      -25.662       -4.279       66.373       48.083       29.417     4405.438     2311.949      865.366        0.664        0.379       75.316       33.005        0.192      342.895       18.624      864.732
08/05/2014  17:36:00      -69.181      -40.363       -2.872       64.259       50.852       30.749     4129.219     2585.881      945.483        0.704        0.383       80.095       32.769        0.167      342.855       18.559      864.733
08/05/2014  17:37:00      -98.917      -23.905       -6.209       33.653       36.937       18.965     1132.508     1364.348      359.685        0.663        0.143      101.765       11.202        0.012      342.890       18.616      864.733
08/05/2014  17:38:00      -52.560       52.940       -1.051       38.297       40.269       27.520     1466.677     1621.564      757.361        0.471        0.192       74.600       24.684        0.109      342.901       18.635      864.730
08/05/2014  17:39:00     -134.320       56.580      -23.259       79.226       38.171       27.963     6276.694     1457.006      781.911        1.515        0.426      145.750       39.347        0.073      342.905       18.642      864.720
08/05/2014  17:40:00     -103.510       11.130      -11.027       50.573       34.831       17.663     2557.578     1213.209      311.978        0.752        0.204      104.106       19.214        0.034      342.924       18.672      864.706
08/05/2014  17:41:00      -61.484        4.078       -0.926       27.551       29.661       18.552      759.071      879.778      344.179        0.289        0.099       61.619       15.885        0.066      342.941       18.704      864.697
08/05/2014  17:42:00      -44.678        2.997      -12.286       36.978       34.797       31.005     1367.403     1210.805      961.336        0.285        0.177       44.778        7.194        0.026      342.898       18.631      864.703
08/05/2014  17:43:00      -67.150        7.083       -6.786       47.540       39.056       17.982     2260.088     1525.369      323.350        0.436        0.205       67.522       21.320        0.100      342.902       18.636      864.696
08/05/2014  17:44:00      -89.099       46.421      -11.930       31.130       43.918       24.272      969.093     1928.795      589.147        0.686        0.174      100.467       16.273        0.026      342.917       18.661      864.684
08/05/2014  17:45:00      -44.626       25.088      -10.788       50.313       37.842       19.190     2531.440     1432.029      368.251        0.353        0.217       51.195       19.876        0.151      342.955       18.725      864.676
08/05/2014  17:46:00      -85.280        6.974      -10.069       43.370       37.729       27.364     1880.936     1423.492      748.770        0.574        0.203       85.565       28.919        0.114      342.911       18.652      864.666
08/05/2014  17:47:00      -69.915      -30.333       -2.020       48.235       36.901       17.080     2326.643     1361.652      291.709        0.490        0.199       76.212       19.894        0.068      342.932       18.689      864.657
08/05/2014  17:48:00      -45.809      -13.452       -1.187       41.843       34.641       25.350     1750.864     1199.987      642.610        0.294        0.180       47.743       22.966        0.231      342.926       18.678      864.666
08/05/2014  17:49:00      -18.638       17.190       14.124       25.919       14.862       14.303      671.800      220.893      204.562        0.097        0.055       25.355       16.621        0.430      342.982       18.773      864.670
08/05/2014  17:50:00     -103.036      -35.464       -9.420       48.948       25.037       21.832     2395.902      626.852      476.634        0.773        0.175      108.968       12.401        0.013      342.900       18.632      864.661
08/05/2014  17:51:00     -146.955      -38.693       -3.503       53.230       50.120       31.642     2833.425     2512.040     1001.225        1.472        0.317      151.963       31.722        0.044      342.903       18.638      864.656
08/05/2014  17:52:00     -133.776      -17.439       -7.762       63.272       42.720       32.002     4003.306     1825.030     1024.152        1.256        0.343      134.908       38.208        0.080      342.912       18.653      864.651
08/05/2014  17:53:00     -145.980      -20.841      -10.925       47.217       44.551       21.762     2229.447     1984.754      473.578        1.327        0.234      147.460       17.220        0.014      342.944       18.708      864.642
08/05/2014  17:54:00     -177.330      -59.240       -6.633       48.717       50.502       25.549     2373.356     2550.422      652.745        2.029        0.279      186.963       22.399        0.014      342.956       18.726      864.646
08/05/2014  17:55:00     -169.130      -49.762       -0.760       53.555       46.142       24.091     2868.098     2129.049      580.394        1.833        0.279      176.299       25.155        0.020      342.945       18.709      864.647
08/05/2014  17:56:00     -166.220      -36.859       -2.103       50.538       44.410       29.267     2554.042     1972.239      856.576        1.719        0.269      170.257       25.049        0.022      342.961       18.735      864.630
08/05/2014  17:57:00     -119.591      -66.431       -1.447       67.691       50.831       29.856     4582.006     2583.812      891.378        1.339        0.403      136.803       29.454        0.046      343.017       18.832      864.614
08/05/2014  17:58:00     -119.469     -104.509       -5.726       63.683       50.487       30.721     4055.478     2548.887      943.798        1.639        0.377      158.729       36.382        0.053      343.041       18.871      864.601
08/05/2014  17:59:00     -141.238      -95.544       -6.312       54.818       59.291       25.597     3005.047     3515.385      655.193        1.814        0.359      170.519       24.434        0.021      343.029       18.850      864.583
08/05/2014  18:00:00     -177.673     -124.972       -3.527       72.288       62.204       34.441     5225.528     3869.290     1186.148        2.874        0.514      217.222       27.593        0.016      343.007       18.814      864.587
08/05/2014  18:01:00     -199.643     -139.344       -3.039       73.496       52.330       27.983     5401.596     2738.420      783.047        3.410        0.446      243.463       28.974        0.014      342.992       18.789      864.589
08/05/2014  18:02:00     -117.160      -79.300       -6.993       48.970       45.773       25.284     2398.039     2095.160      639.269        1.260        0.257      141.474       21.621        0.023      343.014       18.826      864.588
08/05/2014  18:03:00     -133.477      -82.837        2.849       60.484       33.660       30.039     3658.372     1132.991      902.334        1.519        0.285      157.093       17.292        0.012      343.019       18.836      864.593
08/05/2014  18:04:00     -150.262      -94.975      -10.410       57.651       57.189       29.150     3323.693     3270.537      849.731        1.957        0.372      177.760       13.715        0.006      343.022       18.840      864.605
08/05/2014  18:05:00     -182.016     -106.002        8.986      106.224       82.644       55.048    11283.491     6829.971     3030.257        3.279        1.057      210.633       51.763        0.060      343.012       18.822      864.615
08/05/2014  18:06:00     -215.861     -129.811      -11.859      106.257       66.213       52.174    11290.642     4384.131     2722.159        4.099        0.920      251.886       52.211        0.043      343.014       18.824      864.626
08/05/2014  18:07:00     -124.104     -126.570        4.225      101.816       75.159       52.069    10366.552     5648.812     2711.131        2.508        0.936      177.261       62.752        0.125      343.028       18.848      864.643
08/05/2014  18:08:00     -166.037     -108.472       -2.190       72.286       59.250       40.288     5225.275     3510.609     1623.135        2.485        0.518      198.330       36.610        0.034      342.989       18.783      864.650
08/05/2014  18:09:00      -98.084      -81.405       -1.785       69.350       50.864       31.689     4809.375     2587.146     1004.207        1.232        0.420      127.465       34.800        0.075      343.001       18.807      864.678
08/05/2014  18:10:00     -126.509      -93.657        0.006       65.515       38.692       31.936     4292.272     1497.067     1019.913        1.579        0.340      157.404       32.031        0.041      342.984       18.776      864.710
08/05/2014  18:11:00      -83.280      -70.271        8.333       93.791       52.513       38.144     8796.774     2757.664     1454.946        1.247        0.650      108.966       39.492        0.131      342.990       18.784      864.733
08/05/2014  18:12:00      -99.595      -56.961        2.853       52.863       54.012       26.410     2794.504     2917.291      697.472        0.979        0.320      114.733       24.942        0.047      342.980       18.772      864.758
08/05/2014  18:13:00      -72.881      -30.330        2.595       63.924       43.348       28.651     4086.216     1879.080      820.864        0.651        0.339       78.940       30.891        0.153      342.999       18.801      864.784
08/05/2014  18:14:00      -65.217      -28.291        2.262       48.876       29.380       19.202     2388.881      863.198      368.703        0.434        0.181       71.089       24.018        0.114      342.969       18.750      864.819
08/05/2014  18:15:00      -70.735      -61.831        1.795       45.058       44.591       22.763     2030.266     1988.394      518.172        0.668        0.227       93.949       16.287        0.030      342.988       18.783      864.840
08/05/2014  18:16:00     -110.785      -26.209      -15.290       27.099       32.648       19.955      734.333     1065.900      398.217        0.770        0.110      113.843        9.609        0.007      342.948       18.713      864.857
08/05/2014  18:17:00       -1.386      -13.986        8.248       30.107       21.609       18.554      906.410      466.951      344.260        0.099        0.086       14.055       13.313        0.897      343.007       18.815      864.874
08/05/2014  18:18:00      -22.331       -3.813       -1.398       14.748       16.255       20.861      217.512      264.210      435.181        0.072        0.046       22.654        6.626        0.086      343.131       19.027      864.889
08/05/2014  18:19:00      -32.012      -34.441       -1.365       26.599       28.832       10.663      707.533      831.261      113.702        0.193        0.083       47.021        7.114        0.023      343.012       18.823      864.910
08/05/2014  18:20:00      -12.591      -39.149        3.274       14.976       12.371       11.132      224.277      153.044      123.927        0.110        0.025       41.124        6.519        0.025      342.984       18.775      864.920
08/05/2014  18:21:00       -0.158      -20.278        5.237        8.180       12.910       10.209       66.905      166.665      104.228        0.039        0.017       20.279        3.328        0.027      343.002       18.807      864.933
08/05/2014  18:22:00      -24.880       -1.584       -1.045       17.067       13.838        9.584      291.279      191.495       91.852        0.060        0.029       24.931        9.260        0.138      342.995       18.796      864.943
08/05/2014  18:23:00      -42.205       -4.706       -9.557       13.288       12.087       10.281      176.563      146.089      105.705        0.116        0.021       42.467        6.303        0.022      342.966       18.747      864.952
08/05/2014  18:24:00      -39.208      -24.864       -8.531       17.446        9.056        8.897      304.363       82.004       79.160        0.135        0.023       46.427        4.560        0.010      342.950       18.717      864.972
08/05/2014  18:25:00      -28.874      -70.041       -0.017       53.933       48.976       27.848     2908.764     2398.635      775.503        0.591        0.304       75.759       26.361        0.121      342.978       18.766      864.988
08/05/2014  18:26:00      -93.957      -56.610        0.302       29.753       31.422       17.702      885.239      987.313      313.367        0.711        0.109      109.693        9.153        0.007      342.811       18.480      864.992
08/05/2014  18:27:00      -51.359      -59.246       -5.032       52.341       36.902       18.374     2739.584     1361.744      337.609        0.531        0.222       78.408       21.126        0.073      342.866       18.574      865.002
08/05/2014  18:28:00      -17.364      -27.842        5.749       33.504       29.472       17.755     1122.488      868.606      315.229        0.171        0.115       32.812       16.083        0.240      342.840       18.532      865.002
08/05/2014  18:29:00      -63.650      -77.413        1.681       67.885       36.034       28.182     4608.391     1298.479      794.201        0.837        0.335      100.220       21.741        0.047      342.865       18.573      865.003
08/05/2014  18:30:00     -137.509     -107.153        3.047       60.023       50.173       33.189     3602.806     2517.305     1101.535        1.881        0.361      174.329       30.582        0.031      342.789       18.441      865.007
08/05/2014  18:31:00     -136.060     -106.757       -1.540       56.256       53.793       34.311     3164.749     2893.660     1177.215        1.857        0.362      172.944       31.800        0.034      342.744       18.366      865.004
08/05/2014  18:32:00      -69.321     -117.849        9.398       52.139       61.044       29.495     2718.433     3726.353      869.969        1.305        0.366      136.726       25.103        0.034      342.743       18.365      865.003
08/05/2014  18:33:00     -109.990      -92.933        6.088       60.299       62.202       34.849     3636.017     3869.138     1214.423        1.474        0.436      143.995       31.680        0.048      342.719       18.323      865.005
08/05/2014  18:34:00     -120.278     -108.704       -3.952       82.031       69.357       39.165     6729.144     4810.420     1533.895        1.968        0.654      162.121       42.825        0.070      342.691       18.277      865.003
08/05/2014  18:35:00     -178.356     -118.057       -2.413       76.253       69.876       39.668     5814.481     4882.637     1573.543        2.901        0.614      213.888       39.623        0.034      342.664       18.228      865.010
08/05/2014  18:36:00     -183.928      -70.923        8.761       73.291       62.326       44.757     5371.522     3884.537     2003.175        2.510        0.563      197.129       38.730        0.039      342.644       18.195      865.018
08/05/2014  18:37:00     -131.884      -71.629        6.811       76.422       53.589       33.853     5840.266     2871.834     1146.038        1.621        0.493      150.080       34.201        0.052      342.642       18.194      865.030
08/05/2014  18:38:00     -115.057      -53.746       13.736       67.857       52.995       33.161     4604.546     2808.494     1099.620        1.241        0.426      126.991       30.444        0.057      342.638       18.185      865.033
08/05/2014  18:39:00      -59.619      -68.281        8.870       52.751       51.004       24.829     2782.714     2601.359      616.504        0.715        0.300       90.646       27.422        0.092      342.642       18.195      865.040
08/05/2014  18:40:00     -131.851      -50.756       -7.346       52.667       38.854       31.808     2773.803     1509.644     1011.731        1.265        0.265      141.283       29.133        0.043      342.628       18.169      865.055
08/05/2014  18:41:00      -98.448      -61.635        8.769       69.850       57.914       32.657     4878.998     3353.997     1066.498        1.143        0.465      116.150       29.441        0.064      342.624       18.163      865.059
08/05/2014  18:42:00     -139.715      -80.869        5.469      100.227       66.478       41.159    10045.480     4419.323     1694.101        2.112        0.808      161.432       51.155        0.100      342.625       18.164      865.063
08/05/2014  18:43:00     -155.152     -110.275       11.362      101.086       72.721       48.953    10218.281     5288.376     2396.419        2.713        0.895      190.348       54.386        0.082      342.636       18.181      865.070
08/05/2014  18:44:00     -142.635      -56.500        5.486       79.673       52.428       34.483     6347.734     2748.664     1189.061        1.692        0.514      153.418       33.468        0.048      342.601       18.124      865.094
08/05/2014  18:45:00     -163.781     -130.126       -5.050       74.196       87.140       34.313     5504.984     7593.337     1177.394        2.903        0.714      209.181       35.358        0.029      342.608       18.132      865.096
08/05/2014  18:46:00     -114.961     -106.683        2.059       87.107       63.190       42.804     7587.653     3992.951     1832.214        1.900        0.671      156.836       55.623        0.126      342.599       18.120      865.100
08/05/2014  18:47:00     -129.376      -92.165        4.872       58.737       62.438       31.634     3449.994     3898.513     1000.683        1.680        0.417      158.847       20.074        0.016      342.582       18.092      865.114
08/05/2014  18:48:00     -184.052      -97.171       -5.671       80.474       47.732       31.004     6476.029     2278.335      961.236        2.653        0.486      208.129       31.633        0.023      342.584       18.093      865.112
08/05/2014  18:49:00     -124.301      -59.880        0.729       61.760       43.103       31.177     3814.267     1857.894      972.021        1.284        0.332      137.972       29.177        0.045      342.550       18.038      865.110
08/05/2014  18:50:00      -82.785      -31.430        5.057       52.345       36.818       24.675     2740.009     1355.580      608.867        0.628        0.235       88.551       21.048        0.056      342.554       18.044      865.123
08/05/2014  18:51:00      -77.717      -50.940        4.898       59.306       33.881       22.661     3517.235     1147.945      513.539        0.692        0.259       92.924       25.117        0.073      342.569       18.070      865.130
08/05/2014  18:52:00     -111.705      -68.784        0.985       44.471       40.866       28.589     1977.698     1669.993      817.306        1.084        0.223      131.184       17.764        0.018      342.572       18.075      865.141
08/05/2014  18:53:00      -60.947      -39.975        5.019       38.905       37.892       20.048     1513.613     1435.775      401.916        0.434        0.168       72.887       18.914        0.067      342.575       18.081      865.159
08/05/2014  18:54:00      -77.592      -29.890        2.712       64.320       47.340       27.269     4137.004     2241.056      743.608        0.702        0.356       83.150       26.805        0.104      342.564       18.063      865.166
08/05/2014  18:55:00     -153.051       -7.976       -0.122       89.045       49.462       41.229     7928.988     2446.496     1699.804        1.778        0.604      153.259       47.584        0.096      342.509       17.967      865.170
08/05/2014  18:56:00     -209.331       -9.485      -20.586       63.453       41.265       30.773     4026.289     1702.830      946.972        2.550        0.334      209.546       27.155        0.017      342.493       17.936      865.182
08/05/2014  18:57:00     -222.673      -40.339       -7.561       77.679       58.185       38.164     6034.105     3385.511     1456.518        3.107        0.544      226.297       38.877        0.030      342.459       17.878      865.187
08/05/2014  18:58:00     -234.749      -50.439       -7.768       94.330       48.331       42.057     8898.202     2335.854     1768.806        3.535        0.650      240.107       50.745        0.045      342.459       17.880      865.185
08/05/2014  18:59:00     -188.328      -50.684       -0.123       66.612       62.240       40.891     4437.168     3873.817     1672.042        2.401        0.499      195.029       35.393        0.033      342.452       17.869      865.192
08/05/2014  19:00:00     -183.438      -22.312       -7.745       66.454       47.064       36.742     4416.174     2215.055     1349.974        2.109        0.399      184.790       35.092        0.036      342.443       17.856      865.204
08/05/2014  19:01:00     -134.828      -45.603       -6.779       61.465       52.318       24.854     3777.989     2737.203      617.736        1.372        0.357      142.331       30.148        0.045      342.467       17.896      865.204
08/05/2014  19:02:00     -148.189      -71.089        0.298       69.719       43.631       31.159     4860.792     1903.644      970.906        1.737        0.387      164.358       33.716        0.042      342.460       17.884      865.202
08/05/2014  19:03:00      -69.476      -15.542        1.097       47.772       38.483       24.449     2282.186     1480.926      597.740        0.471        0.218       71.193       21.741        0.093      342.470       17.903      865.205
08/05/2014  19:04:00      -71.430      -31.764        5.278       46.427       41.659       23.114     2155.483     1735.479      534.268        0.528        0.221       78.174       22.237        0.081      342.478       17.916      865.197
08/05/2014  19:05:00      -98.774      -72.159        9.277       91.939       50.822       30.173     8452.844     2582.825      910.440        1.350        0.597      122.324       40.998        0.112      342.497       17.947      865.174
08/05/2014  19:06:00     -119.672      -81.172        1.855       65.602       56.157       33.192     4303.644     3153.624     1101.702        1.473        0.428      144.604       28.000        0.037      342.511       17.970      865.144
08/05/2014  19:07:00     -169.347      -95.518       -3.339       88.131       70.987       42.955     7767.048     5039.147     1845.132        2.623        0.733      194.427       47.486        0.060      342.492       17.937      865.134
08/05/2014  19:08:00     -178.750     -123.559       -2.773      101.181       66.810       46.034    10237.518     4463.575     2119.157        3.202        0.841      217.298       48.222        0.049      342.509       17.964      865.138
08/05/2014  19:09:00     -133.930      -29.749        0.421       76.892       57.503       43.896     5912.374     3306.560     1926.872        1.498        0.557      137.195       45.317        0.109      342.461       17.887      865.136
08/05/2014  19:10:00     -161.484      -40.256        2.622       60.177       56.736       35.276     3621.277     3218.992     1244.427        1.789        0.404      166.426       25.497        0.023      342.469       17.898      865.146
08/05/2014  19:11:00     -162.774      -63.874       -0.009       94.825       57.775       38.436     8991.796     3337.915     1477.342        2.219        0.690      174.858       50.548        0.084      342.447       17.863      865.161
08/05/2014  19:12:00     -218.224      -80.031       -5.976       78.282       73.041       34.570     6128.043     5335.005     1195.097        3.336        0.633      232.436       27.192        0.014      342.414       17.804      865.184
08/05/2014  19:13:00     -234.126      -57.392       -9.814       92.231       77.349       37.725     8506.539     5982.842     1423.193        3.706        0.796      241.058       33.741        0.020      342.379       17.744      865.192
08/05/2014  19:14:00     -185.173     -111.765        4.726      101.934       79.784       47.561    10390.475     6365.451     2262.054        3.291        0.951      216.288       53.255        0.061      342.371       17.732      865.189
08/05/2014  19:15:00      -88.137      -48.111       14.616       68.620       75.301       43.366     4708.673     5670.261     1880.583        1.128        0.613      100.413       44.224        0.194      342.372       17.734      865.216
08/05/2014  19:16:00     -133.029      -52.321        5.280      103.654       75.289       43.348    10744.188     5668.455     1879.042        1.937        0.915      142.949       49.725        0.121      342.355       17.705      865.215
08/05/2014  19:17:00     -175.406      -45.512       -5.552       61.599       65.012       29.980     3794.456     4226.602      898.804        2.089        0.446      181.214       21.756        0.014      342.290       17.595      865.216
08/05/2014  19:18:00     -132.398      -68.798       -0.368       49.787       41.415       30.881     2478.793     1715.214      953.618        1.370        0.257      149.205       26.119        0.031      342.283       17.586      865.218
08/05/2014  19:19:00     -119.808      -52.619        4.210       71.431       57.690       37.401     5102.392     3328.182     1398.850        1.348        0.491      130.854       38.650        0.087      342.281       17.579      865.231
08/05/2014  19:20:00     -195.196      -35.546        0.488       84.751       60.025       35.086     7182.664     3603.021     1231.055        2.569        0.601      198.406       35.963        0.033      342.249       17.524      865.251
08/05/2014  19:21:00     -157.077      -21.109       -9.050       71.759       52.483       35.168     5149.318     2754.454     1236.818        1.717        0.457      158.489       27.588        0.030      342.231       17.494      865.252
08/05/2014  19:22:00     -149.573      -27.719       -4.289       90.898       38.864       33.693     8262.366     1510.394     1135.211        1.703        0.545      152.120       42.588        0.078      342.232       17.494      865.250
08/05/2014  19:23:00     -168.502       13.753       -5.875       52.183       41.218       31.807     2723.083     1698.902     1011.668        1.702        0.272      169.062       27.973        0.027      342.216       17.472      865.263
08/05/2014  19:24:00     -122.006      -59.016       -3.357       63.084       64.461       34.401     3979.586     4155.272     1183.447        1.385        0.466      135.530       35.385        0.068      342.265       17.553      865.266
08/05/2014  19:25:00     -193.613      -44.150       -5.218       76.867       53.670       31.080     5908.553     2880.440      965.974        2.461        0.488      198.583       35.365        0.032      342.251       17.528      865.260
08/05/2014  19:26:00     -107.697      -37.011        1.856       73.912       53.479       32.127     5463.051     2860.016     1032.150        1.116        0.468      113.879       41.339        0.132      342.252       17.531      865.245
08/05/2014  19:27:00     -116.940      -51.203       -1.547       57.180       40.430       28.526     3269.594     1634.618      813.744        1.101        0.286      127.659       28.472        0.050      342.241       17.512      865.235
08/05/2014  19:28:00     -160.259      -59.973       -0.802       64.285       59.311       28.967     4132.622     3517.749      839.067        1.888        0.424      171.113       19.732        0.013      342.249       17.525      865.236
08/05/2014  19:29:00      -82.887      -44.810        2.134       61.095       39.888       33.487     3732.647     1591.092     1121.373        0.766        0.322       94.224       33.827        0.129      342.242       17.514      865.222
08/05/2014  19:30:00     -134.958      -45.768        9.073       71.935       48.135       33.230     5174.593     2316.978     1104.226        1.449        0.430      142.507       36.525        0.066      342.230       17.492      865.219
08/05/2014  19:31:00     -147.232      -58.620       -2.323       69.293       84.105       32.534     4801.476     7073.705     1058.491        1.902        0.647      158.473       30.127        0.036      342.208       17.456      865.217
08/05/2014  19:32:00     -125.876      -60.794       -1.398       93.879       49.227       34.027     8813.178     2423.346     1157.847        1.597        0.620      139.788       43.004        0.095      342.205       17.449      865.219
08/05/2014  19:33:00     -162.181      -97.306       -0.513       62.002       46.706       31.851     3844.226     2181.427     1014.476        2.140        0.352      189.133       30.012        0.025      342.196       17.435      865.207
08/05/2014  19:34:00     -112.928      -45.117        4.869       63.608       40.404       30.909     4045.935     1632.518      955.352        1.072        0.332      121.607       31.492        0.067      342.192       17.429      865.200
08/05/2014  19:35:00      -66.877      -44.320        9.583       61.913       42.951       32.960     3833.281     1844.818     1086.348        0.665        0.338       80.230       34.646        0.186      342.219       17.475      865.196
08/05/2014  19:36:00     -155.629     -104.734      -11.453       68.732       48.982       35.122     4724.151     2399.267     1233.575        2.184        0.418      187.589       33.123        0.031      342.191       17.425      865.191
08/05/2014  19:37:00     -184.851     -106.579       -7.408       81.157       54.810       41.072     6586.401     3004.106     1686.920        2.843        0.564      213.375       49.307        0.053      342.165       17.380      865.188
08/05/2014  19:38:00     -189.199     -113.747       -8.671       52.646       48.649       36.966     2771.636     2366.752     1366.510        2.766        0.325      220.759       27.885        0.016      342.129       17.322      865.193
08/05/2014  19:39:00     -116.740     -107.860       -1.744       50.807       71.516       31.358     2581.353     5114.498      983.342        1.697        0.434      158.940       29.173        0.034      342.134       17.332      865.187
08/05/2014  19:40:00     -155.089      -58.299        5.521       54.371       44.033       33.817     2956.233     1938.916     1143.568        1.676        0.302      165.685       26.221        0.025      342.117       17.302      865.177
08/05/2014  19:41:00     -150.182      -49.466        2.334       84.574       49.870       32.988     7152.750     2487.020     1088.183        1.787        0.536      158.119       39.374        0.062      342.111       17.290      865.165
08/05/2014  19:42:00      -95.190      -36.500        0.441       56.998       52.423       30.616     3248.785     2748.206      937.364        0.866        0.347      101.948       32.186        0.100      342.125       17.315      865.154
08/05/2014  19:43:00     -125.207      -52.073       -2.947       72.511       34.293       24.573     5257.913     1175.981      603.826        1.272        0.352      135.604       24.529        0.033      342.118       17.304      865.143
08/05/2014  19:44:00     -143.843      -74.520      -10.863       70.681       48.165       32.483     4995.786     2319.909     1055.146        1.736        0.419      162.000       35.042        0.047      342.105       17.278      865.117
08/05/2014  19:45:00     -184.887      -54.184        2.001       90.188       46.709       34.243     8133.859     2181.696     1172.566        2.430        0.574      192.663       37.579        0.038      342.092       17.255      865.098
08/05/2014  19:46:00     -160.299      -37.378      -20.434       54.218       38.799       29.173     2939.606     1505.385      851.050        1.640        0.265      164.599       24.852        0.023      342.092       17.256      865.082
08/05/2014  19:47:00     -122.544      -60.323        1.693       51.981       43.028       29.455     2702.067     1851.423      867.581        1.204        0.271      136.587       24.936        0.033      342.089       17.251      865.078
08/05/2014  19:48:00     -100.006      -30.809        3.935       51.121       55.194       34.517     2613.346     3046.381     1191.419        0.891        0.343      104.644       24.496        0.055      342.076       17.232      865.075
08/05/2014  19:49:00     -128.111      -60.862       -5.108       86.081       35.245       27.700     7409.972     1242.198      767.297        1.478        0.471      141.833       30.051        0.045      342.077       17.232      865.075
08/05/2014  19:50:00     -115.745      -49.341       -0.300       43.196       47.482       22.797     1865.859     2254.507      519.684        1.023        0.232      125.823       21.243        0.029      342.072       17.225      865.067
08/05/2014  19:51:00     -180.092      -44.852       -2.205       65.470       38.623       29.641     4286.289     1491.740      878.577        2.055        0.333      185.594       30.842        0.028      342.072       17.223      865.051
08/05/2014  19:52:00     -126.236      -20.792       -1.880       42.202       39.314       27.648     1780.985     1545.587      764.429        1.023        0.205      127.937       20.728        0.026      342.093       17.260      865.052
08/05/2014  19:53:00      -40.099      -20.724        5.072       30.405       33.241       20.772      924.494     1104.949      431.472        0.226        0.123       45.138       18.555        0.169      342.118       17.305      865.061
08/05/2014  19:54:00      -44.375       -9.546       10.187       34.596       31.016       22.561     1196.904      961.985      508.979        0.242        0.133       45.390       18.209        0.161      342.098       17.268      865.062
08/05/2014  19:55:00     -131.709      -92.247        1.451       56.905       49.949       23.870     3238.171     2494.935      569.792        1.608        0.315      160.800       21.742        0.018      342.111       17.290      865.062
08/05/2014  19:56:00     -107.343      -69.696       -6.048       42.677       32.341       20.428     1821.286     1045.917      417.304        0.985        0.164      127.985       21.246        0.028      342.129       17.322      865.055
08/05/2014  19:57:00      -36.646      -35.419        2.357       37.700       28.183       22.291     1421.255      794.269      496.877        0.266        0.136       50.965       16.006        0.099      342.138       17.338      865.057
08/05/2014  19:58:00      -70.918      -65.054       -4.098       57.362       47.091       23.787     3290.392     2217.593      565.824        0.767        0.304       96.236       17.731        0.034      342.100       17.270      865.068
08/05/2014  19:59:00      -75.503      -47.699        1.210       69.274       39.622       30.368     4798.923     1569.931      922.239        0.763        0.365       89.308       29.832        0.112      342.095       17.264      865.072
08/05/2014  20:00:00      -99.629      -57.538       11.784       78.884       60.995       35.129     6222.679     3720.353     1234.068        1.227        0.559      115.050       43.674        0.144      342.065       17.214      865.069
08/05/2014  20:01:00     -128.578      -83.094       -1.908       65.283       54.702       35.070     4261.897     2992.348     1229.885        1.596        0.424      153.091       33.623        0.048      342.069       17.217      865.076
08/05/2014  20:02:00     -202.481      -48.360        1.024       67.189       56.993       35.009     4514.377     3248.213     1225.609        2.616        0.449      208.176       36.795        0.031      342.049       17.184      865.081
08/05/2014  20:03:00     -107.046      -83.911       -2.702       74.589       38.565       31.247     5563.584     1487.256      976.380        1.327        0.401      136.014       34.488        0.064      342.094       17.263      865.092
08/05/2014  20:04:00     -152.026      -87.086        1.462       75.534       65.735       33.979     5705.435     4321.155     1154.572        2.094        0.559      175.203       36.416        0.043      342.085       17.245      865.099
08/05/2014  20:05:00     -114.519      -33.414       -0.338       67.828       52.266       34.210     4600.600     2731.751     1170.324        1.137        0.425      119.294       38.163        0.102      342.099       17.270      865.107
08/05/2014  20:06:00     -120.890      -61.005        5.643       51.819       51.683       29.114     2685.209     2671.121      847.631        1.228        0.310      135.411       25.966        0.037      342.085       17.244      865.114
08/05/2014  20:07:00      -90.125      -30.781       -4.553       28.877       29.715       18.032      833.858      882.960      325.167        0.557        0.102       95.237        8.864        0.009      342.088       17.250      865.106
08/05/2014  20:08:00     -117.646      -16.062       -2.557       44.251       35.992       29.775     1958.113     1295.413      886.566        0.912        0.207      118.737       27.491        0.054      342.086       17.249      865.108
08/05/2014  20:09:00     -100.318      -39.104      -11.702       35.207       31.521       24.875     1239.540      993.560      618.775        0.729        0.143      107.670       19.287        0.032      342.155       17.367      865.115
08/05/2014  20:10:00     -114.263       -5.814        9.264       68.003       40.626       26.675     4624.352     1650.482      711.530        1.008        0.349      114.411       20.061        0.031      342.173       17.399      865.121
08/05/2014  20:11:00      -91.806      -78.782        3.842       76.311       64.245       37.929     5823.351     4127.458     1438.646        1.302        0.569      120.975       36.781        0.092      342.155       17.366      865.116
08/05/2014  20:12:00     -177.018     -117.752        4.415       91.905       65.883       40.039     8446.598     4340.522     1603.138        2.980        0.720      212.605       43.218        0.041      342.146       17.349      865.106
08/05/2014  20:13:00     -153.462      -79.882       -3.204       96.216       59.584       33.481     9257.532     3550.256     1120.999        2.193        0.696      173.008       45.224        0.068      342.127       17.320      865.108
08/05/2014  20:14:00     -115.504      -75.483        1.835       49.028       54.502       33.257     2403.730     2970.469     1106.036        1.276        0.324      137.981       35.871        0.068      342.113       17.294      865.119
08/05/2014  20:15:00     -143.945      -55.096       -0.805       62.082       46.247       28.535     3854.227     2138.745      814.265        1.528        0.340      154.129       29.902        0.038      342.119       17.303      865.120
08/05/2014  20:16:00      -95.382      -58.836        3.512       68.915       54.805       32.386     4749.330     3003.535     1048.873        1.069        0.440      112.069       34.502        0.095      342.117       17.303      865.119
08/05/2014  20:17:00     -215.088      -81.702      -14.800       74.036       57.642       33.686     5481.313     3322.577     1134.740        3.155        0.497      230.083       34.908        0.023      342.129       17.319      865.108
08/05/2014  20:18:00      -51.976      -31.700        0.869       69.927       48.153       40.321     4889.721     2318.708     1625.772        0.627        0.442       60.880       36.064        0.351      342.184       17.415      865.094
08/05/2014  20:19:00      -93.738      -65.738       -2.085       67.835       50.973       33.768     4601.553     2598.255     1140.252        1.072        0.417      114.492       38.923        0.116      342.125       17.318      865.085
08/05/2014  20:20:00     -124.535      -63.739       -0.820       81.498       54.283       26.417     6641.960     2946.635      697.834        1.493        0.514      139.899       26.330        0.035      342.129       17.324      865.074
08/05/2014  20:21:00     -163.995      -71.139       -4.076       61.749       40.052       22.993     3812.925     1604.140      528.669        1.896        0.297      178.760       21.144        0.014      342.135       17.333      865.069
08/05/2014  20:22:00     -110.260      -48.460        9.065       74.495       36.971       32.888     5549.461     1366.839     1081.611        1.129        0.400      120.440       40.579        0.114      342.171       17.394      865.072
08/05/2014  20:23:00      -89.507      -72.746        0.640       65.928       43.656       29.752     4346.437     1905.817      885.157        1.022        0.357      115.341       30.311        0.069      342.182       17.411      865.075
08/05/2014  20:24:00      -75.445      -66.219       -2.441       43.088       50.133       28.780     1856.617     2513.313      828.302        0.764        0.260      100.384       26.584        0.070      342.194       17.432      865.081
08/05/2014  20:25:00      -96.603      -48.286        4.276       59.033       47.363       26.780     3484.882     2243.275      717.171        0.906        0.322      107.998       30.823        0.081      342.200       17.445      865.094
08/05/2014  20:26:00     -153.258      -90.376      -10.094       57.143       41.379       29.559     3265.323     1712.196      873.730        1.880        0.293      177.921       31.143        0.031      342.194       17.432      865.097
08/05/2014  20:27:00      -67.461      -53.663        2.618       44.402       42.789       19.430     1971.552     1830.937      377.512        0.581        0.209       86.202       20.143        0.055      342.181       17.412      865.105
08/05/2014  20:28:00      -99.048      -69.281        2.626       42.367       34.514       27.200     1794.986     1191.236      739.828        0.917        0.186      120.874       26.494        0.048      342.191       17.428      865.109
08/05/2014  20:29:00     -129.757      -43.582       -4.777       45.772       29.104       20.015     2095.079      847.016      400.615        1.105        0.167      136.880       16.254        0.014      342.190       17.426      865.114
08/05/2014  20:30:00     -163.361      -90.229       -2.323       44.204       32.244       26.795     1953.990     1039.667      717.994        1.927        0.186      186.623       19.015        0.010      342.182       17.411      865.101
08/05/2014  20:31:00     -155.587      -34.552      -11.357       49.279       45.105       24.465     2428.375     2034.481      598.529        1.529        0.253      159.378       24.623        0.024      342.188       17.422      865.091
08/05/2014  20:32:00      -65.913      -81.814        5.998       45.333       66.355       31.477     2055.107     4403.006      990.828        0.926        0.372      105.062       32.673        0.097      342.203       17.447      865.094
08/05/2014  20:33:00      -83.001      -76.845       -2.232       34.235       34.363       20.455     1172.028     1180.793      418.397        0.778        0.139      113.112       19.620        0.030      342.230       17.495      865.091
08/05/2014  20:34:00      -82.049      -34.946       -6.888       50.658       45.418       24.460     2566.224     2062.760      598.314        0.661        0.261       89.181       23.366        0.069      342.225       17.487      865.095
08/05/2014  20:35:00      -98.835      -25.509       -1.281       55.913       33.404       26.532     3126.297     1115.818      703.938        0.768        0.247      102.074       29.668        0.084      342.254       17.534      865.088
08/05/2014  20:36:00      -88.984      -17.209      -12.163       32.118       28.215       19.921     1031.556      796.070      396.863        0.529        0.111       90.632       15.926        0.031      342.235       17.505      865.094
08/05/2014  20:37:00      -35.986      -22.361       -3.305       20.978       22.019       17.930      440.063      484.831      321.477        0.153        0.062       42.368       13.151        0.096      342.233       17.498      865.096
08/05/2014  20:38:00      -31.480      -11.053       11.340       29.299       27.960       14.535      858.424      781.752      211.281        0.155        0.093       33.365       20.203        0.367      342.261       17.547      865.097
08/05/2014  20:39:00     -104.504      -19.787       -4.486       38.223       35.738       17.999     1460.972     1277.195      323.959        0.720        0.153      106.361       14.258        0.018      342.297       17.607      865.099
08/05/2014  20:40:00      -98.622      -28.451       -4.266       47.416       32.097       23.431     2248.304     1030.216      548.992        0.719        0.191      102.644       24.897        0.059      342.220       17.477      865.097
08/05/2014  20:41:00      -65.544      -48.000       -3.914       16.514       20.686       14.366      272.727      427.901      206.378        0.376        0.045       81.240        9.505        0.014      342.245       17.519      865.098
08/05/2014  20:42:00      -58.751      -29.206       -4.852       23.614       20.360       14.031      557.606      414.547      196.869        0.275        0.058       65.610       13.743        0.044      342.282       17.583      865.103
08/05/2014  20:43:00      -64.047      -31.691       -1.718       41.533       21.401       18.862     1725.017      458.015      355.780        0.382        0.127       71.458       19.096        0.071      342.279       17.575      865.118
08/05/2014  20:44:00     -110.709      -29.811       -8.500       27.812       21.933       19.048      773.498      481.050      362.817        0.742        0.081      114.652       15.472        0.018      342.257       17.540      865.144
08/05/2014  20:45:00      -29.781        3.508        1.519       24.158       33.230       14.405      583.618     1104.212      207.497        0.140        0.095       29.987       15.204        0.257      342.306       17.622      865.166
08/05/2014  20:46:00      -70.309       27.357       -4.192       23.032       17.960       17.438      530.490      322.562      304.069        0.343        0.058       75.444        9.324        0.015      342.424       17.824      865.174
08/05/2014  20:47:00      -25.548       37.755        0.707       38.050       30.827       20.675     1447.787      950.287      427.446        0.245        0.141       45.587       15.963        0.123      342.321       17.647      865.187
08/05/2014  20:48:00      -22.894       94.847      -12.892       43.346       27.055       23.300     1878.836      731.951      542.911        0.642        0.158       97.571       13.897        0.020      342.340       17.683      865.195
08/05/2014  20:49:00        2.272       82.552      -15.305       39.733       35.769       17.075     1578.702     1279.409      291.571        0.510        0.157       82.583       12.442        0.023      342.324       17.655      865.204
08/05/2014  20:50:00       11.063        8.531        3.441       18.136       26.024       16.861      328.917      677.247      284.301        0.075        0.065       13.971       15.581        1.244      342.298       17.609      865.216
08/05/2014  20:51:00       34.231       45.895      -15.585       24.512       27.902       21.656      600.829      778.531      468.969        0.268        0.092       57.255       18.649        0.106      342.286       17.590      865.218
08/05/2014  20:52:00       19.187       13.841       -3.254       22.352       23.977       18.647      499.631      574.892      347.707        0.100        0.071       23.658        7.357        0.097      342.283       17.584      865.220
08/05/2014  20:53:00       27.808       65.384       -8.723       35.306       38.299       21.395     1246.482     1466.809      457.766        0.415        0.159       71.052       16.212        0.052      342.400       17.784      865.224
08/05/2014  20:54:00      -42.598      -63.382       -6.036       15.686       32.275       15.537      246.051     1041.706      241.413        0.370        0.076       76.367        9.793        0.016      342.502       17.957      865.221
08/05/2014  20:55:00       -8.149      -37.589      -15.943       23.221       21.797       11.361      539.207      475.099      129.065        0.144        0.057       38.462       13.005        0.114      342.497       17.951      865.218
08/05/2014  20:56:00      -15.068      -23.625        3.254       12.351       19.408       10.908      152.544      376.657      118.982        0.072        0.032       28.021        8.094        0.083      342.477       17.914      865.224
08/05/2014  20:57:00      -35.524        1.588        9.361       24.937       37.655       19.190      621.877     1417.918      368.247        0.188        0.120       35.560       14.604        0.169      342.560       18.054      865.244
08/05/2014  20:58:00      -37.207       42.855       -4.141       14.840       24.149       12.727      220.235      583.160      161.973        0.210        0.048       56.754       11.659        0.042      342.416       17.810      865.249
08/05/2014  20:59:00      -38.736       41.488       -8.510       25.238       20.422       16.469      636.961      417.076      271.238        0.231        0.066       56.760       13.810        0.059      342.444       17.859      865.248
08/05/2014  21:00:00      -21.731       14.602        5.767       27.148       18.593       16.075      737.026      345.691      258.397        0.103        0.067       26.182       19.459        0.552      342.500       17.954      865.239
08/05/2014  21:01:00       -5.117        1.426        5.602        9.000        6.083        7.369       80.992       37.003       54.309        0.012        0.009        5.312        4.827        0.826      342.515       17.978      865.216
08/05/2014  21:02:00      -25.079       28.135       -6.049       12.499       15.362       10.158      156.235      235.993      103.189        0.098        0.025       37.690       10.405        0.076      342.488       17.933      865.195
08/05/2014  21:03:00      -63.580       31.183      -15.786       19.555       11.621        7.853      382.397      135.058       61.676        0.292        0.029       70.816        5.250        0.005      342.616       18.150      865.187
08/05/2014  21:04:00      -86.214       53.737      -16.938       21.007       22.040       16.475      441.308      485.751      271.435        0.590        0.060      101.590       13.782        0.018      342.486       17.931      865.188
08/05/2014  21:05:00      -83.751       67.812      -17.117       15.676       17.071       14.175      245.740      291.418      200.929        0.632        0.037      107.762        7.960        0.005      342.507       17.965      865.178
08/05/2014  21:06:00      -98.596       52.503      -19.862       35.061       26.252       19.988     1229.262      689.165      399.532        0.759        0.116      111.704       24.553        0.048      342.567       18.065      865.163
08/05/2014  21:07:00      -47.029        8.861        2.851       27.082       19.607       12.020      733.438      384.420      144.477        0.178        0.063       47.856       13.701        0.082      342.627       18.167      865.156
08/05/2014  21:08:00      -23.259       -5.514       -3.263       12.844       14.655       10.242      164.979      214.763      104.900        0.053        0.024       23.903        9.664        0.163      342.559       18.053      865.151
08/05/2014  21:09:00      -58.923      -23.952       -6.745       15.180       16.592        7.015      230.418      275.283       49.214        0.232        0.028       63.605        3.166        0.002      342.491       17.936      865.141
08/05/2014  21:10:00      -37.417       -6.688       -1.222       18.520       15.699       12.489      342.980      246.457      155.963        0.110        0.037       38.010        9.740        0.066      342.565       18.062      865.143
08/05/2014  21:11:00      -34.044       -2.119       -4.973       16.262       18.380        8.465      264.439      337.841       71.652        0.093        0.034       34.110        8.819        0.067      342.642       18.193      865.147
08/05/2014  21:12:00      -67.250      -27.452       -3.411       27.520       23.429       14.852      757.367      548.927      220.581        0.341        0.076       72.638       12.415        0.029      342.587       18.103      865.157
08/05/2014  21:13:00     -107.559      -34.855       -9.055       21.931       23.846       11.865      480.954      568.612      140.785        0.703        0.060      113.065        7.631        0.005      342.491       17.939      865.167
08/05/2014  21:14:00      -89.485      -30.157       -2.411       23.902       24.499       13.250      571.319      600.204      175.557        0.513        0.067       94.430        8.116        0.007      342.419       17.815      865.167
08/05/2014  21:15:00      -57.759       -1.903       -3.364       16.715       20.206       11.402      279.377      408.300      130.012        0.208        0.041       57.790       10.985        0.036      342.417       17.811      865.164
08/05/2014  21:16:00      -43.381      -14.882       -2.482       25.676       10.294        8.792      659.240      105.974       77.296        0.148        0.042       45.863        9.384        0.042      342.474       17.907      865.171
08/05/2014  21:17:00      -24.531      -13.484        1.435       16.749       16.021       11.194      280.538      256.679      125.304        0.072        0.033       27.992        9.349        0.112      342.466       17.896      865.178
08/05/2014  21:18:00      -46.458       -3.691       -3.587       12.490       12.893        7.179      156.004      166.241       51.540        0.128        0.019       46.604        5.471        0.014      342.478       17.915      865.176
08/05/2014  21:19:00      -59.166      -21.440       -2.263        9.995       15.743       10.628       99.909      247.839      112.952        0.221        0.023       62.930        5.102        0.007      342.449       17.866      865.190
08/05/2014  21:20:00      -78.949      -18.917       -5.377       19.368       17.673        8.612      375.115      312.344       74.162        0.369        0.038       81.184        5.668        0.005      342.472       17.905      865.208
08/05/2014  21:21:00      -64.378       -3.317       -3.759       17.230       15.991       10.596      296.857      255.726      112.284        0.242        0.033       64.463        7.636        0.014      342.493       17.943      865.215
08/05/2014  21:22:00      -12.817       -0.105       -1.403       10.592        7.727        5.928      112.191       59.700       35.142        0.019        0.010       12.818        1.903        0.022      342.478       17.914      865.205
08/05/2014  21:23:00       -9.524        1.291        1.037        5.910        2.795        3.991       34.930        7.814       15.925        0.008        0.003        9.612        3.097        0.104      342.494       17.945      865.207
08/05/2014  21:24:00      -14.726       -4.193        2.506        8.090        4.694        4.252       65.443       22.037       18.080        0.017        0.005       15.311        4.863        0.101      342.555       18.049      865.217
08/05/2014  21:25:00       -2.556       -8.897       -0.166        7.875        7.395        6.627       62.008       54.686       43.915        0.012        0.008        9.257        7.093        0.587      342.559       18.053      865.223
08/05/2014  21:26:00      -45.905      -18.064       -4.879       10.772       14.711        8.340      116.028      216.425       69.558        0.143        0.020       49.331        8.005        0.026      342.567       18.067      865.238
08/05/2014  21:27:00      -35.571       -7.132       -5.350        8.031        7.649        5.388       64.496       58.512       29.027        0.075        0.008       36.279        3.995        0.012      342.518       17.985      865.242
08/05/2014  21:28:00      -11.873       -9.950        1.151       14.094        6.778        5.691      198.631       45.943       32.386        0.026        0.014       15.491        8.011        0.267      342.547       18.028      865.255
08/05/2014  21:29:00       -2.325       22.651       -0.004       17.997       12.184        4.994      323.905      148.454       24.936        0.051        0.025       22.770        4.773        0.044      342.484       17.925      865.264
08/05/2014  21:30:00       40.588       38.333        4.067       14.815       16.510       15.367      219.481      272.584      236.144        0.193        0.036       55.828       12.181        0.048      342.350       17.700      865.274
08/05/2014  21:31:00       39.376       45.487       12.311        8.357        8.501        8.908       69.841       72.260       79.350        0.200        0.011       60.162        7.206        0.014      342.450       17.868      865.273
08/05/2014  21:32:00       40.084       45.974       11.694       11.701        7.104       11.645      136.906       50.466      135.610        0.209        0.016       60.995        4.519        0.005      342.461       17.886      865.269
08/05/2014  21:33:00       48.399       44.757       17.714       11.349       13.946       16.772      128.804      194.492      281.316        0.263        0.030       65.922       11.026        0.028      342.460       17.886      865.266
08/05/2014  21:34:00       32.095       22.170       12.586       13.340       12.823       12.890      177.961      164.427      166.152        0.109        0.025       39.008        8.104        0.043      342.461       17.887      865.266
08/05/2014  21:35:00       26.815        4.134       -1.441        5.982        5.221        3.024       35.779       27.256        9.142        0.041        0.004       27.132        2.058        0.006      342.571       18.077      865.262
08/05/2014  21:36:00       10.443       -4.177       -3.836        8.390       10.442        6.356       70.397      109.028       40.402        0.018        0.011       11.248        2.367        0.044      342.574       18.084      865.258
08/05/2014  21:37:00        9.186        4.036        8.935        9.112        6.800        6.137       83.028       46.246       37.662        0.017        0.008       10.033        5.153        0.264      342.501       17.955      865.240
08/05/2014  21:38:00       20.120        9.885       -3.868        7.217        6.707        3.730       52.081       44.990       13.913        0.031        0.006       22.417        2.739        0.015      342.614       18.146      865.230
08/05/2014  21:39:00       14.617       18.021       -2.098        7.951       11.960        7.379       63.222      143.039       54.443        0.040        0.013       23.204        6.989        0.091      342.643       18.196      865.229
08/05/2014  21:40:00       12.421       13.594        6.187       10.918        7.406        6.319      119.202       54.847       39.932        0.030        0.011       18.414        3.991        0.047      342.584       18.098      865.231
08/05/2014  21:41:00        7.203       36.548       -1.967       15.827       10.783        8.959      250.510      116.270       80.268        0.092        0.022       37.251        8.260        0.049      342.655       18.218      865.232
08/05/2014  21:42:00        9.036       47.198       -7.969        9.480        9.604        6.035       89.879       92.229       36.422        0.130        0.011       48.055        4.460        0.009      342.651       18.210      865.237
08/05/2014  21:43:00        5.940       49.649       -9.376       12.300        8.316        6.608      151.295       69.162       43.671        0.143        0.013       50.003        5.007        0.010      342.654       18.218      865.252
08/05/2014  21:44:00       -3.431       35.734       -5.153       14.924       20.346        8.172      222.738      413.953       66.785        0.101        0.035       35.898        8.712        0.059      342.607       18.134      865.262
08/05/2014  21:45:00        0.473       58.827       -7.873        9.746       12.254        6.469       94.979      150.160       41.850        0.190        0.014       58.828        3.960        0.005      342.627       18.166      865.266
08/05/2014  21:46:00       13.061       54.458       -7.551        9.124       14.818        6.435       83.255      219.579       41.404        0.177        0.017       56.002        3.563        0.004      342.579       18.088      865.274
08/05/2014  21:47:00       16.532       46.640       -8.911       15.381       13.618        7.860      236.589      185.448       61.785        0.151        0.024       49.483        7.312        0.022      342.558       18.052      865.275
08/05/2014  21:48:00       16.118       37.096       -5.026       13.099       15.201       10.542      171.582      231.063      111.132        0.109        0.026       40.447       10.665        0.070      342.565       18.066      865.274
08/05/2014  21:49:00       12.154       21.852       -7.234        7.613       17.524        7.118       57.960      307.102       50.666        0.055        0.021       25.004        8.386        0.112      342.554       18.044      865.261
08/05/2014  21:50:00       11.711       15.498       -0.424       13.744       18.028        9.229      188.905      325.001       85.179        0.049        0.030       19.425       12.351        0.404      342.546       18.033      865.256
08/05/2014  21:51:00        8.144       18.018        6.998        9.492        7.842        8.496       90.098       61.493       72.181        0.033        0.011       19.773        6.523        0.109      342.563       18.062      865.248
08/05/2014  21:52:00       13.977       23.591       -2.716       13.749        8.623        6.404      189.029       74.359       41.009        0.053        0.015       27.421        7.486        0.075      342.562       18.057      865.232
08/05/2014  21:53:00       12.015       21.233        2.424       11.109        5.406        7.792      123.421       29.230       60.714        0.041        0.011       24.397        4.419        0.033      342.565       18.065      865.214
08/05/2014  21:54:00      -31.011        8.212       -1.604       20.303        8.887        6.773      412.205       78.970       45.878        0.078        0.027       32.080        6.329        0.039      342.386       17.759      865.209
08/05/2014  21:55:00      -61.534      -25.625       -4.547       29.451       16.132       12.780      867.378      260.234      163.333        0.288        0.065       66.656        8.634        0.017      342.203       17.449      865.198
08/05/2014  21:56:00      -76.949      -46.077       -2.568       24.035       14.176       11.274      577.673      200.956      127.096        0.448        0.045       89.690        9.496        0.011      342.190       17.426      865.192
08/05/2014  21:57:00      -65.540      -54.516       -0.552       20.896       18.468       13.078      436.650      341.061      171.035        0.411        0.047       85.249       12.259        0.021      342.215       17.469      865.188
08/05/2014  21:58:00      -60.976      -40.164       -1.967       16.284       12.768       11.580      265.162      163.032      134.095        0.295        0.028       73.015        9.904        0.018      342.221       17.479      865.183
08/05/2014  21:59:00      -45.465      -39.997       -2.215       11.613       11.280        8.470      134.873      127.240       71.746        0.200        0.017       60.554        6.629        0.012      342.357       17.710      865.181
08/05/2014  22:00:00      -23.804      -28.863       -3.093       14.347       11.384        6.768      205.840      129.601       45.800        0.090        0.019       37.413        5.182        0.019      342.556       18.047      865.175
08/05/2014  22:01:00      -49.071      -28.657       -5.408       20.330       15.663        7.351      413.294      245.321       54.033        0.199        0.036       56.826        3.492        0.004      342.377       17.744      865.170
08/05/2014  22:02:00      -33.463      -20.235        1.638       22.874       18.769       12.245      523.226      352.284      149.937        0.128        0.051       39.105        8.631        0.049      342.289       17.593      865.159
08/05/2014  22:03:00      -16.000      -21.524        2.894       17.415       15.437       11.268      303.271      238.296      126.968        0.070        0.033       26.819        7.242        0.073      342.326       17.654      865.144
08/05/2014  22:04:00      -40.696       -1.686        4.452       10.760       12.263        9.851      115.779      150.371       97.037        0.102        0.018       40.731        4.298        0.011      342.232       17.497      865.132
08/05/2014  22:05:00      -46.348        1.208       -4.051       13.628        8.058        5.695      185.710       64.936       32.431        0.122        0.014       46.363        3.258        0.005      342.124       17.316      865.119
08/05/2014  22:06:00      -38.932        0.591       -2.403        7.878        4.610        5.611       62.058       21.248       31.482        0.082        0.006       38.936        2.268        0.003      342.168       17.390      865.112
08/05/2014  22:07:00      -40.143       -6.178       -8.656        4.157       11.075        4.423       17.278      122.648       19.563        0.094        0.008       40.615        6.056        0.022      342.202       17.447      865.110
08/05/2014  22:08:00      -79.170      -17.236      -10.701       24.340       12.110        8.503      592.420      146.663       72.299        0.375        0.041       81.025        7.546        0.009      342.161       17.375      865.118
08/05/2014  22:09:00     -119.293      -30.839       -9.623       28.348       18.808       16.039      803.634      353.750      257.241        0.834        0.071      123.214       16.183        0.017      341.994       17.093      865.120
08/05/2014  22:10:00     -110.906      -18.436       -0.785       29.050       26.429       19.129      843.898      698.474      365.936        0.727        0.095      112.428       16.701        0.022      341.958       17.031      865.119
08/05/2014  22:11:00      -91.763      -44.067        0.479       45.533       40.924       21.679     2073.210     1674.782      469.973        0.729        0.211      101.795       21.790        0.046      341.937       16.995      865.113
08/05/2014  22:12:00      -84.225      -42.934       -0.969       34.989       25.542       14.406     1224.219      652.392      207.543        0.551        0.104       94.537       16.815        0.032      341.977       17.066      865.096
08/05/2014  22:13:00      -87.401      -25.013       -1.870       45.502       26.646       20.769     2070.402      710.027      431.348        0.574        0.161       90.910       26.617        0.086      341.969       17.051      865.083
08/05/2014  22:14:00      -70.591        0.780       -1.167       30.463       18.179       13.890      928.018      330.481      192.927        0.322        0.073       70.596       13.047        0.034      341.952       17.022      865.069
08/05/2014  22:15:00      -65.555      -21.381        1.357       23.747       20.695       15.116      563.923      428.295      228.504        0.299        0.061       68.954       11.907        0.030      341.941       17.002      865.062
08/05/2014  22:16:00      -73.316      -16.425       -5.411       17.475       19.850       13.958      305.387      394.032      194.821        0.328        0.045       75.133       12.603        0.028      341.936       16.993      865.050
08/05/2014  22:17:00      -46.060      -23.068        1.736       14.854       12.942        9.896      220.633      167.506       97.935        0.157        0.024       51.514        2.943        0.003      341.949       17.016      865.044
08/05/2014  22:18:00      -30.201      -22.765        0.038       16.850       13.051        8.415      283.913      170.336       70.809        0.098        0.026       37.820        8.717        0.053      341.999       17.102      865.051
08/05/2014  22:19:00      -32.672      -22.476       -1.706       16.266        8.255        8.878      264.580       68.146       78.814        0.099        0.021       39.656        9.285        0.055      342.057       17.199      865.060
08/05/2014  22:20:00      -24.793       -1.594       -3.781        7.718        8.562        4.100       59.570       73.306       16.807        0.039        0.007       24.845        4.234        0.029      342.068       17.218      865.076
08/05/2014  22:21:00      -36.468       12.179       -1.229       17.234        9.715        5.130      297.006       94.381       26.314        0.095        0.021       38.448        6.557        0.029      342.049       17.185      865.096
08/05/2014  22:22:00      -70.088        9.648       -4.694       14.591       15.523        6.159      212.900      240.962       37.934        0.276        0.025       70.749        3.287        0.002      341.954       17.028      865.113
08/05/2014  22:23:00      -39.168       11.444       -4.820       11.176        7.765        7.884      124.905       60.301       62.151        0.097        0.012       40.805        5.035        0.015      341.955       17.026      865.128
08/05/2014  22:24:00      -51.975       -2.392       -1.327       17.996       11.162        6.845      323.840      124.581       46.860        0.160        0.025       52.030        8.043        0.024      341.955       17.029      865.133
08/05/2014  22:25:00      -25.758      -15.518        4.481       17.219        9.274        8.922      296.509       86.015       79.595        0.069        0.023       30.071        8.667        0.083      341.977       17.063      865.135
08/05/2014  22:26:00        6.232      -31.802       -1.716       12.439       13.709        9.462      154.732      187.937       89.523        0.074        0.022       32.407        9.039        0.078      342.009       17.119      865.135
08/05/2014  22:27:00      -21.832      -13.085       -1.794       17.411       10.245        9.484      303.145      104.951       89.953        0.057        0.025       25.453       10.113        0.158      341.907       16.945      865.129
08/05/2014  22:28:00      -53.354       -2.599       -7.183       10.182        7.191        5.641      103.675       51.711       31.819        0.155        0.009       53.417        2.501        0.002      341.920       16.967      865.126
08/05/2014  22:29:00      -66.850       10.553      -11.474        9.018        7.910        5.135       81.318       62.563       26.371        0.244        0.009       67.678        4.395        0.004      342.006       17.115      865.125
08/05/2014  22:30:00      -78.395        6.360      -10.514       21.100       12.720       12.684      445.210      161.807      160.890        0.353        0.038       78.652       10.521        0.018      341.928       16.980      865.114
08/05/2014  22:31:00      -79.367        1.261      -10.668       16.880       13.292       11.787      284.924      176.679      138.923        0.351        0.030       79.377       11.147        0.020      341.928       16.981      865.111
08/05/2014  22:32:00      -57.954      -12.329       -3.851       15.548       13.905       10.323      241.725      193.354      106.555        0.203        0.027       59.251       10.200        0.030      341.935       16.993      865.101
08/05/2014  22:33:00      -11.362      -28.388       -1.687       16.345        9.740        6.422      267.149       94.865       41.247        0.067        0.020       30.577        5.040        0.027      341.992       17.092      865.086
08/05/2014  22:34:00      -10.680      -44.912       -9.735       11.159       11.065        7.643      124.514      122.443       58.408        0.127        0.015       46.164        6.018        0.017      342.047       17.184      865.068
08/05/2014  22:35:00       34.324      -77.388      -15.747       20.066       14.742       11.303      402.634      217.314      127.762        0.408        0.037       84.658        2.716        0.001      342.091       17.259      865.045
08/05/2014  22:36:00       56.917      -50.086      -14.665       22.422       29.922       18.479      502.727      895.303      341.468        0.385        0.087       75.817       19.003        0.063      342.045       17.179      865.024
08/05/2014  22:37:00       39.574      -14.838        0.851       22.307       22.645       19.742      497.615      512.816      389.735        0.159        0.070       42.264       16.359        0.150      342.033       17.159      865.001
08/05/2014  22:38:00       37.198      -38.662        4.866       37.777       32.163       20.681     1427.077     1034.436      427.706        0.290        0.144       53.651       26.682        0.247      342.067       17.216      864.984
08/05/2014  22:39:00       50.102      -45.346        3.014       33.434       34.237       23.457     1117.860     1172.167      550.231        0.371        0.142       67.576       24.597        0.132      342.113       17.296      864.968
08/05/2014  22:40:00        8.714       -1.762       24.934       14.991       18.651       11.447      224.739      347.845      131.039        0.070        0.035        8.890        5.755        0.419      341.996       17.096      864.955
08/05/2014  22:41:00       19.498      -26.641        5.165       22.215       21.806       20.575      493.503      475.523      423.339        0.125        0.070       33.014       14.520        0.193      342.042       17.173      864.944
08/05/2014  22:42:00       28.667      -37.380        8.911       29.763       38.363       28.257      885.823     1471.723      798.468        0.273        0.158       47.107       21.097        0.201      341.987       17.083      864.942
08/05/2014  22:43:00       29.300      -12.150       23.086       31.660       39.966       35.607     1002.387     1597.308     1267.888        0.270        0.193       31.719       26.794        0.714      341.933       16.990      864.940
08/05/2014  22:44:00       32.622      -18.566       17.728       36.123       38.377       28.031     1304.843     1472.832      785.731        0.264        0.178       37.536       29.720        0.627      341.958       17.031      864.933
08/05/2014  22:45:00       69.090      -52.998        4.967       44.904       44.803       30.720     2016.366     2007.344      943.727        0.629        0.248       87.076       27.479        0.100      341.995       17.095      864.920
08/05/2014  22:46:00       10.515      -14.284       37.797       27.376       35.597       28.961      749.435     1267.174      838.726        0.230        0.143       17.737       13.502        0.579      341.926       16.978      864.904
08/05/2014  22:47:00        7.860        1.147       42.866       21.135       28.373       15.097      446.688      805.052      227.919        0.169        0.074        7.944       14.178        3.186      341.919       16.967      864.882
08/05/2014  22:48:00       -0.093        6.206       35.299       23.672       45.610       27.977      560.375     2080.266      782.694        0.235        0.171        6.207       27.374       19.452      342.061       17.207      864.866
08/05/2014  22:49:00        4.140      -39.004       19.630       28.647       45.620       32.490      820.626     2081.188     1055.627        0.294        0.198       39.224       21.270        0.294      342.152       17.363      864.857
08/05/2014  22:50:00       42.326      -78.793        4.765       45.976       42.221       28.945     2113.801     1782.634      837.796        0.638        0.237       89.442       25.581        0.082      342.197       17.439      864.855
08/05/2014  22:51:00       -0.802        0.832       61.918       20.716       41.360       24.302      429.150     1710.681      590.575        0.328        0.137        1.156       21.297      339.659      342.194       17.432      864.849
08/05/2014  22:52:00       30.136      -31.249       23.106       33.858       41.943       31.302     1146.355     1759.173      979.846        0.315        0.194       43.413       26.966        0.386      342.202       17.448      864.871
08/05/2014  22:53:00       32.250      -11.335       20.123       27.734       33.550       25.648      769.201     1125.628      657.834        0.206        0.128       34.184       16.546        0.234      342.068       17.220      864.878
08/05/2014  22:54:00       15.979      -38.567        5.193       19.153       33.263       26.187      366.846     1106.395      685.759        0.196        0.108       41.746       24.606        0.347      342.037       17.166      864.886
08/05/2014  22:55:00        0.661       12.356        9.970       16.474       13.389       12.362      271.385      179.254      152.816        0.043        0.030       12.373        5.310        0.184      341.896       16.926      864.894
08/05/2014  22:56:00        8.184       22.343       -7.367       20.316       13.446       10.945      412.752      180.799      119.789        0.067        0.036       23.794        1.627        0.005      341.816       16.792      864.896
08/05/2014  22:57:00       10.278       30.626       -7.294       12.844       14.035       11.097      164.969      196.990      123.151        0.079        0.024       32.305        6.657        0.042      341.808       16.779      864.906
08/05/2014  22:58:00      -27.418       22.199       -7.840       13.722       11.010       10.433      188.285      121.224      108.855        0.086        0.021       35.278        5.975        0.029      341.817       16.790      864.910
08/05/2014  22:59:00      -40.786       22.419       -6.194        8.573       10.525        7.405       73.501      110.780       54.833        0.122        0.012       46.542        5.303        0.013      341.755       16.689      864.924
08/05/2014  23:00:00      -44.260       17.721       -1.729        9.577        9.655        5.491       91.724       93.227       30.154        0.125        0.011       47.676        4.338        0.008      341.849       16.848      864.947
08/05/2014  23:01:00      -44.000       30.843       -3.815       15.921       12.498       10.894      253.477      156.199      118.677        0.172        0.026       53.734        7.326        0.019      341.822       16.801      864.959
08/05/2014  23:02:00      -65.507       26.173       -7.252       14.360       12.500        9.545      206.205      156.262       91.114        0.274        0.023       70.542        7.868        0.012      341.827       16.810      864.968
08/05/2014  23:03:00      -61.133       23.532       -3.734       20.349       12.230       11.126      414.073      149.569      123.796        0.250        0.034       65.506        8.344        0.016      341.838       16.829      864.976
08/05/2014  23:04:00      -50.783       24.953       -2.508       20.185       12.494       10.920      407.440      156.112      119.251        0.195        0.034       56.582       10.698        0.036      341.805       16.774      864.983
08/05/2014  23:05:00      -94.420       30.777       -9.913       38.536       24.555       18.959     1485.013      602.944      359.432        0.620        0.122       99.309       14.784        0.022      341.725       16.638      864.991
08/05/2014  23:06:00      -90.247       20.429       -4.294       40.352       21.489       16.750     1628.316      461.793      280.569        0.548        0.119       92.530        7.016        0.006      341.692       16.581      864.991
08/05/2014  23:07:00      -69.138       33.428       -8.035       32.272       17.565       12.951     1041.462      308.515      167.738        0.374        0.076       76.795       10.453        0.019      341.694       16.583      864.993
08/05/2014  23:08:00      -75.697       48.843      -17.740       20.692       26.266       15.966      428.176      689.889      254.911        0.490        0.069       90.087       16.038        0.032      341.748       16.676      865.003
08/05/2014  23:09:00      -48.069       24.910       -5.979       17.161       20.506       12.198      294.514      420.489      148.781        0.192        0.043       54.140        7.318        0.018      341.730       16.645      864.995
08/05/2014  23:10:00      -48.640       22.615       -5.393       26.514       23.579       13.579      702.990      555.983      184.386        0.217        0.072       53.641       15.514        0.084      341.724       16.636      864.989
08/05/2014  23:11:00      -62.253       -9.864       -9.978       16.491       19.504       12.334      271.968      380.387      152.127        0.244        0.040       63.030       10.394        0.027      341.658       16.525      864.975
08/05/2014  23:12:00      -66.828      -21.234       -3.578       16.128       17.561       11.609      260.115      308.381      134.769        0.282        0.035       70.121        8.648        0.015      341.598       16.425      864.957
08/05/2014  23:13:00      -79.254      -32.077       -5.538       16.386       13.971       10.127      268.498      195.203      102.554        0.395        0.028       85.499        7.031        0.007      341.536       16.312      864.944
08/05/2014  23:14:00      -50.975      -40.166       -4.368       17.415       14.561       10.087      303.272      212.025      101.742        0.242        0.031       64.898        7.670        0.014      341.581       16.391      864.942
08/05/2014  23:15:00      -37.697      -15.732       -2.351       14.634       13.352       14.225      214.141      178.274      202.346        0.113        0.030       40.848        7.701        0.036      341.606       16.434      864.927
08/05/2014  23:16:00      -23.354       -9.772       -3.060       20.366       10.372       11.845      414.785      107.580      140.312        0.066        0.033       25.316       12.224        0.233      341.622       16.461      864.908
08/05/2014  23:17:00      -54.448      -10.281       -2.266       17.085       18.102       13.129      291.894      327.698      172.372        0.193        0.040       55.410        9.212        0.028      341.603       16.429      864.895
08/05/2014  23:18:00      -35.537      -28.660       -2.827       25.419       17.907       10.329      646.103      320.659      106.683        0.158        0.054       45.654        8.234        0.033      341.652       16.513      864.883
08/05/2014  23:19:00      -66.202      -16.117       -3.449       22.346       23.622       12.510      499.349      557.998      156.506        0.293        0.061       68.136       10.807        0.025      341.587       16.401      864.873
08/05/2014  23:20:00      -67.633      -38.707       -6.828       26.912       22.933       11.493      724.259      525.930      132.086        0.375        0.069       77.926       10.365        0.018      341.538       16.321      864.859
08/05/2014  23:21:00      -73.546      -40.184       -9.893       11.026       15.521        7.184      121.571      240.889       51.608        0.377        0.021       83.808        3.603        0.002      341.553       16.346      864.847
08/05/2014  23:22:00      -55.089      -35.463        2.437       14.553       11.388       10.487      211.782      129.696      109.988        0.237        0.023       65.517        9.797        0.022      341.592       16.413      864.844
08/05/2014  23:23:00       -8.350       -7.159        5.754       12.613       11.890        7.151      159.088      141.380       51.134        0.025        0.018       10.999        5.705        0.269      341.577       16.385      864.841
08/05/2014  23:24:00      -13.594        4.295        2.384       10.710        7.514        5.977      114.696       56.464       35.720        0.021        0.010       14.256        6.921        0.236      341.556       16.345      864.840
08/05/2014  23:25:00      -15.580        6.672       -2.182        7.441        8.515        9.450       55.365       72.497       89.302        0.025        0.011       16.949        6.178        0.133      341.530       16.307      864.832
08/05/2014  23:26:00       -6.514       -0.493       -6.121        5.032        3.129        3.378       25.316        9.788       11.413        0.006        0.002        6.532        1.927        0.087      341.594       16.417      864.821
08/05/2014  23:27:00       -8.402        0.539       -2.497        3.016        2.798        2.154        9.095        7.830        4.642        0.005        0.001        8.419        1.434        0.029      341.690       16.582      864.808
08/05/2014  23:28:00      -16.270        9.556       -3.457        3.848        3.153        2.576       14.806        9.942        6.633        0.020        0.002       18.869        2.031        0.012      341.728       16.646      864.802
08/05/2014  23:29:00      -12.580       10.080        0.510        8.395        4.408        5.168       70.475       19.431       26.706        0.019        0.006       16.120        5.372        0.111      341.715       16.620      864.801
08/05/2014  23:30:00        5.464        6.631       10.297        8.706        5.601        7.247       75.793       31.374       52.518        0.017        0.008        8.592        5.039        0.344      341.751       16.682      864.800
08/05/2014  23:31:00        2.183       38.895       -3.170       10.684       13.306        6.522      114.149      177.051       42.531        0.093        0.017       38.957        5.181        0.018      341.760       16.694      864.793
08/05/2014  23:32:00       -0.128       61.990       -8.014        5.754        9.550        5.401       33.106       91.198       29.170        0.203        0.008       61.990        3.432        0.003      341.767       16.707      864.788
08/05/2014  23:33:00        3.460       68.111      -10.483        3.999        7.507        2.942       15.992       56.350        8.655        0.242        0.004       68.198        2.018        0.001      341.811       16.784      864.779
08/05/2014  23:34:00        1.618       64.606       -8.328        5.016        7.579        3.750       25.158       57.438       14.062        0.217        0.005       64.626        2.397        0.001      341.834       16.820      864.775
08/05/2014  23:35:00       -1.814       75.336      -10.922        6.289       12.723        4.987       39.552      161.880       24.866        0.301        0.011       75.358        4.420        0.003      341.752       16.684      864.772
08/05/2014  23:36:00      -17.582       42.933       -3.840       18.292       31.548       10.448      334.608      995.290      109.153        0.180        0.072       46.393       12.812        0.076      341.728       16.643      864.772
08/05/2014  23:37:00      -32.277       -2.264       -2.282       13.557       11.244        7.986      183.804      126.423       63.784        0.071        0.019       32.356        4.860        0.023      341.600       16.427      864.772
08/05/2014  23:38:00      -38.915      -13.231       -2.788        9.528        7.356        5.853       90.782       54.117       34.256        0.094        0.009       41.102        5.534        0.018      341.557       16.349      864.773
08/05/2014  23:39:00      -38.560      -12.085       -8.891        6.767        7.663        4.648       45.788       58.718       21.607        0.092        0.006       40.410        2.225        0.003      341.553       16.345      864.774
08/05/2014  23:40:00      -39.206       -8.309       -5.722       10.325        7.555        7.148      106.598       57.072       51.100        0.093        0.011       40.076        7.096        0.031      341.555       16.345      864.772
08/05/2014  23:41:00      -25.991       -6.016       -0.068       15.704       15.480        6.732      246.614      239.642       45.325        0.062        0.027       26.678        6.856        0.066      341.559       16.354      864.781
08/05/2014  23:42:00      -39.901        4.461       -5.690       15.459       12.864        6.987      238.979      165.473       48.816        0.105        0.023       40.149        5.675        0.020      341.640       16.493      864.786
08/05/2014  23:43:00      -60.262       13.704       -7.805       12.547       11.628       12.092      157.420      135.207      146.227        0.216        0.022       61.801        5.880        0.009      341.669       16.540      864.792
08/05/2014  23:44:00      -40.208       -3.611       -4.751       14.208       10.132        8.370      201.880      102.664       70.054        0.101        0.019       40.370        9.495        0.055      341.664       16.533      864.809
08/05/2014  23:45:00      -32.385        6.164       -7.769       18.358       14.241       10.630      337.011      202.814      112.991        0.090        0.033       32.967        5.685        0.030      341.710       16.612      864.821
08/05/2014  23:46:00      -33.544      -23.848        2.386       24.822       16.055       13.185      616.137      257.772      173.849        0.137        0.052       41.158       13.904        0.114      341.680       16.561      864.830
08/05/2014  23:47:00      -69.157      -27.348       -5.397       14.229       15.776        8.437      202.462      248.882       71.184        0.304        0.026       74.368        6.988        0.009      341.569       16.372      864.843
08/05/2014  23:48:00      -47.701      -37.881       -5.879       15.415       13.146        8.890      237.617      172.812       79.030        0.212        0.024       60.913        6.384        0.011      341.551       16.339      864.844
08/05/2014  23:49:00      -53.008      -26.433       -4.751       19.990        7.994       11.438      399.594       63.904      130.829        0.206        0.030       59.233       10.745        0.033      341.570       16.377      864.853
08/05/2014  23:50:00      -41.146      -37.888        7.404       25.827       16.096       15.305      667.039      259.093      234.231        0.217        0.058       55.933       16.825        0.090      341.612       16.445      864.858
08/05/2014  23:51:00      -13.398      -22.654        7.903       23.229       17.037       13.760      539.606      290.247      189.350        0.089        0.051       26.320        9.035        0.118      341.683       16.566      864.858
08/05/2014  23:52:00      -22.953      -25.656        3.240       22.264       19.660       14.468      495.670      386.525      209.335        0.114        0.055       34.425        9.024        0.069      341.681       16.563      864.855
08/05/2014  23:53:00      -51.689      -52.122        0.863       29.540       30.958       17.970      872.617      958.387      322.906        0.377        0.108       73.406       16.485        0.050      341.703       16.601      864.855
08/05/2014  23:54:00      -52.956      -55.079      -10.213       18.643       20.622       12.334      347.568      425.272      152.124        0.343        0.046       76.407        3.505        0.002      341.790       16.746      864.855
08/05/2014  23:55:00       -5.495      -28.415       -4.553       14.030       24.211       11.870      196.837      586.155      140.899        0.089        0.046       28.942        9.947        0.118      341.805       16.772      864.855
08/05/2014  23:56:00      -22.005      -10.132       -1.128       23.910       16.027        9.830      571.687      256.868       96.631        0.076        0.046       24.226        5.697        0.055      341.785       16.739      864.857
08/05/2014  23:57:00      -16.911      -16.595       -2.206       16.479       14.754        9.223      271.569      217.678       85.069        0.057        0.029       23.694       10.468        0.195      341.820       16.797      864.855
08/05/2014  23:58:00      -10.415      -29.888       -1.713        6.617       17.820        7.420       43.786      317.540       55.057        0.071        0.021       31.650        3.753        0.014      341.840       16.832      864.854
08/05/2014  23:59:00      -10.666       -9.548       -1.651        8.454       13.294        5.980       71.477      176.738       35.757        0.025        0.014       14.316        5.940        0.172      341.854       16.856      864.859
